ECMWFNIL_925_thetae_000.txt.gz
Theta_e
314 312 313 312 313 313 312 311 309 308 307 306 307 306 306 307 308 308 308 309 310 311 311 310 310 307 304 304 305 304 304 304 304 304 304 304 304 304 304 304 304 304
313 312 312 312 313 314 313 312 310 310 309 308 307 306 307 308 308 308 309 310 311 312 312 311 311 307 305 305 306 305 304 304 304 304 304 304 304 304 304 304 304 303
312 312 312 313 313 314 314 312 311 310 310 310 308 307 307 308 308 309 310 311 313 313 312 311 310 307 305 306 306 305 304 304 304 304 304 304 304 304 304 303 303 302
312 312 313 313 313 314 315 314 311 310 310 310 309 308 308 309 310 311 311 313 314 313 312 311 310 307 306 306 306 305 305 304 305 304 304 304 304 303 303 302 302 302
313 313 314 314 314 314 315 314 313 311 311 311 311 309 308 309 310 312 312 313 313 312 312 310 309 307 307 307 306 305 305 305 304 304 304 303 303 302 302 302 301 301
314 314 314 315 315 315 315 315 313 313 312 312 312 310 309 309 311 312 312 313 313 312 311 309 308 307 307 306 306 305 305 304 304 303 303 303 302 302 302 302 301 301
315 316 315 315 315 315 315 315 314 314 313 313 312 311 310 310 311 312 312 312 312 311 310 308 307 307 306 306 306 305 304 304 303 303 302 302 301 301 301 301 301 301
316 316 316 316 315 316 316 315 314 314 313 313 313 312 312 311 311 312 312 312 311 310 308 306 306 307 306 306 306 305 304 303 302 302 301 301 300 300 300 300 300 300
315 317 317 316 316 316 316 316 315 314 313 314 313 313 312 312 311 312 311 311 310 308 306 306 307 307 307 306 306 304 303 302 301 301 300 300 299 299 298 298 298 299
315 315 316 316 317 317 317 317 315 314 314 314 314 313 312 312 312 311 311 310 308 307 306 306 307 307 306 306 304 303 302 301 301 300 300 299 299 298 298 297 298 298
317 316 315 316 317 316 317 317 316 315 315 315 313 313 313 312 312 311 310 309 307 306 306 306 307 307 306 304 302 301 301 301 300 299 299 299 298 298 298 298 298 298
319 317 316 316 316 317 316 316 316 315 315 315 313 313 313 312 311 311 309 307 306 306 306 307 307 306 304 302 301 301 300 299 299 299 298 298 298 298 298 298 298 298
318 316 316 316 317 317 317 316 316 316 315 314 314 313 313 312 311 309 308 307 307 307 307 307 305 304 302 301 300 300 299 299 298 298 297 297 297 297 297 297 297 297
317 316 316 316 316 317 317 316 316 315 315 314 314 313 312 311 310 308 308 307 308 307 306 305 303 302 301 300 300 299 298 297 296 296 296 295 295 296 296 296 296 297
316 316 315 315 316 316 317 317 315 315 315 314 313 312 311 310 309 308 308 308 307 305 304 303 302 301 300 299 298 296 294 293 292 292 293 293 293 293 294 294 295 295
317 316 315 315 315 316 317 316 315 315 314 313 312 311 310 310 309 308 308 307 306 304 303 302 301 301 300 297 295 292 291 290 290 291 291 291 292 292 292 292 293 293
317 316 315 315 315 315 315 315 315 315 313 312 312 310 309 309 309 309 308 306 305 303 302 302 301 299 297 294 292 291 290 290 290 290 291 291 291 291 291 292 292 292
317 316 315 315 315 315 314 313 314 314 312 312 311 310 309 309 309 308 306 304 303 303 302 301 300 298 295 293 291 291 290 290 290 290 290 291 291 291 291 291 292 292
318 316 315 314 314 313 311 311 311 311 311 310 310 310 310 309 308 306 305 304 303 303 302 301 299 296 293 292 292 291 290 290 290 290 290 290 290 290 290 291 291 291
318 317 315 313 313 311 310 310 310 310 310 310 310 310 310 309 307 305 304 304 303 303 302 300 298 295 293 292 292 292 291 291 290 290 290 290 290 290 290 290 291 291
317 317 315 313 312 311 310 310 310 310 310 310 310 310 309 308 306 305 304 304 303 302 302 299 296 294 293 293 293 292 291 291 291 290 290 290 290 290 290 290 291 291
316 316 315 313 311 310 309 310 310 310 310 310 310 309 308 307 306 305 304 303 303 302 300 297 295 294 293 293 293 292 291 291 291 290 290 290 290 290 290 290 291 291
314 314 314 313 311 310 309 309 310 309 310 310 309 308 308 307 306 305 304 303 302 300 297 296 295 294 294 293 294 293 292 291 291 290 290 290 290 290 290 290 290 291
314 314 313 312 311 309 308 309 309 309 310 309 308 308 307 306 305 304 303 302 300 297 296 296 296 295 294 294 294 293 292 291 291 290 290 290 290 290 290 290 290 290
313 312 312 311 309 309 309 310 310 310 309 308 307 306 306 305 305 304 302 300 298 297 296 296 296 296 295 295 294 293 292 291 291 291 291 290 290 290 290 290 290 290
312 311 311 310 309 309 310 311 310 308 307 306 305 304 304 305 305 303 300 299 298 297 297 297 296 296 296 295 295 294 292 291 291 291 291 291 290 290 290 290 290 290

ECMWFNIL_925_thetae_003.txt.gz
Theta_e
312 311 312 313 313 312 312 312 309 307 306 306 306 306 306 307 309 310 310 310 311 310 310 309 306 305 305 304 303 304 304 304 305 305 305 306 306 306 305 305 304 304
314 313 312 313 314 313 312 312 311 309 307 307 306 306 306 307 308 310 311 312 312 311 311 309 307 305 305 305 304 304 305 305 305 306 306 306 306 306 305 305 304 304
316 315 314 313 314 313 312 312 313 312 309 308 307 306 307 308 308 310 312 313 312 312 312 310 307 306 305 305 305 305 305 306 306 306 306 306 306 306 305 305 305 304
318 316 314 313 313 313 313 312 313 313 311 309 308 307 308 308 309 310 312 314 313 313 312 310 308 306 306 305 305 305 305 305 306 306 306 305 305 304 304 304 304 304
317 316 315 314 313 313 313 312 312 313 313 311 309 308 308 308 309 310 312 313 314 313 312 310 308 306 306 306 305 305 306 305 305 305 305 305 304 304 304 304 304 304
317 316 315 314 313 313 313 312 312 313 314 313 310 309 308 308 309 310 311 313 314 313 312 310 308 306 306 306 306 306 306 305 304 304 304 304 304 303 303 303 303 303
316 316 315 315 314 313 312 312 313 312 314 314 312 310 309 309 309 310 311 313 314 313 311 309 307 306 306 306 306 305 305 304 303 303 303 303 303 302 302 302 302 302
315 315 314 314 314 313 312 312 313 313 314 314 313 312 311 310 309 310 312 313 314 313 310 308 307 306 306 306 306 305 304 303 303 303 303 302 302 302 301 301 301 301
313 313 314 314 313 314 313 313 313 313 314 314 314 313 311 311 310 310 312 313 313 311 309 307 306 306 306 306 305 305 304 303 303 303 303 302 302 301 301 301 301 301
314 313 314 314 314 314 314 314 314 314 314 314 315 314 312 312 311 311 312 313 312 310 308 307 306 306 306 305 304 304 303 303 302 302 302 302 302 301 301 301 301 301
316 315 315 314 314 314 315 315 315 314 314 315 315 314 313 312 312 312 312 312 311 309 307 307 306 306 305 304 303 303 302 302 301 301 301 301 301 300 300 300 300 300
317 316 316 315 314 314 315 315 315 315 315 315 316 315 313 312 312 312 312 312 310 308 307 306 306 306 305 304 303 302 301 301 300 300 299 299 298 299 299 299 299 299
318 317 317 316 315 315 315 315 315 315 315 315 315 315 313 313 312 312 312 311 309 307 306 306 306 305 305 304 303 302 301 300 299 297 296 295 295 296 296 297 298 298
318 318 317 317 316 316 315 315 315 315 315 315 315 314 313 313 312 312 311 309 308 307 307 306 306 305 305 304 303 302 301 299 297 294 293 292 293 294 295 295 296 296
318 318 317 317 317 316 316 315 315 315 315 315 315 313 313 312 312 312 310 308 307 307 307 306 306 305 305 303 302 301 300 297 294 292 291 292 293 294 294 294 294 295
317 318 317 316 316 316 316 315 315 315 314 314 313 312 311 310 310 310 310 308 308 307 307 306 306 305 304 303 301 300 297 294 292 291 291 292 293 294 294 294 294 294
315 317 317 316 316 315 315 315 314 314 313 312 310 310 310 310 310 310 309 308 308 307 306 306 305 304 303 301 300 297 294 292 292 291 291 292 293 293 294 294 294 294
312 315 316 316 315 315 314 314 313 312 311 310 310 310 310 310 309 309 309 308 307 307 306 305 305 303 302 300 298 295 293 292 292 292 291 292 293 293 294 294 294 294
308 313 316 316 315 315 314 313 312 312 311 311 310 310 310 310 309 309 308 307 307 306 306 305 304 302 301 299 296 294 293 293 292 292 292 292 293 293 293 293 293 293
305 310 315 316 315 314 313 312 311 311 311 310 310 310 310 310 309 308 308 307 307 306 305 304 303 302 300 297 294 293 294 293 292 292 291 292 292 292 292 293 293 293
304 309 313 315 314 313 312 311 311 311 311 310 310 310 310 309 308 308 308 307 306 305 305 303 302 301 299 295 294 294 294 293 292 292 291 292 292 292 292 292 292 292
305 309 312 314 314 313 312 311 311 311 310 310 309 309 309 309 308 308 307 306 306 305 304 302 302 300 297 295 294 295 294 293 293 292 292 292 292 292 292 293 293 292
307 309 312 313 313 312 311 311 311 311 310 309 309 308 308 308 308 308 307 306 305 304 303 303 301 298 296 295 295 295 294 293 293 293 293 293 292 292 293 293 293 292
307 309 311 312 313 312 311 311 310 310 309 309 308 308 308 308 308 307 306 305 304 304 303 301 299 297 296 296 296 295 294 293 293 293 293 293 293 293 293 293 293 292
307 309 311 312 312 312 312 311 310 310 309 308 308 308 308 307 306 305 305 304 304 303 301 298 297 296 296 296 296 295 294 293 293 294 294 293 294 294 294 293 293 292
307 309 311 312 312 312 311 311 310 309 307 307 307 308 307 305 305 305 304 304 303 301 299 297 297 297 297 296 296 296 294 293 293 293 294 294 294 294 293 293 293 293

ECMWFNIL_925_thetae_006.txt.gz
Theta_e
324 322 321 320 319 319 320 319 318 318 316 316 317 317 317 317 315 315 316 315 315 314 313 312 311 311 311 311 311 311 311 312 312 312 311 311 311 311 310 310 309 309
325 324 323 321 319 319 321 321 320 318 316 316 316 316 318 318 316 315 316 316 315 315 314 313 312 312 311 311 311 311 311 312 312 311 312 312 311 311 310 310 309 309
322 323 324 322 322 321 319 320 320 319 317 317 316 317 318 319 317 316 316 316 316 315 314 313 312 312 311 311 311 311 311 312 312 311 311 311 311 311 311 310 310 309
320 320 322 322 324 323 319 317 318 320 319 318 318 318 318 318 318 317 317 317 316 316 315 314 312 312 312 311 311 311 311 311 311 311 311 310 309 309 309 309 309 308
322 321 322 323 324 325 323 319 316 317 320 320 319 318 317 317 318 317 317 317 317 316 315 314 313 312 312 312 312 312 311 311 310 310 310 309 309 308 308 308 308 308
323 323 323 324 324 325 325 322 319 317 317 319 319 318 316 317 317 317 317 317 317 317 316 315 313 313 312 312 312 312 311 310 310 309 309 309 308 308 307 307 307 307
323 323 323 324 324 324 324 323 322 320 318 318 319 318 317 317 317 317 317 317 317 316 316 315 314 313 312 312 312 311 311 310 309 309 308 308 308 307 307 306 306 306
321 322 323 323 323 324 324 323 322 322 320 319 319 318 317 317 317 317 317 317 317 316 316 315 313 312 312 311 311 311 310 309 309 308 308 308 308 307 306 306 306 306
322 322 322 323 323 323 323 323 322 322 321 320 319 319 318 317 317 318 317 317 317 316 316 314 313 312 312 311 311 310 310 309 309 308 308 308 308 307 306 306 306 306
324 323 323 323 323 323 322 323 322 322 322 320 320 320 319 318 318 318 317 317 317 317 315 314 313 312 311 311 311 310 309 309 308 308 308 307 307 306 305 305 305 305
324 324 323 324 324 323 322 322 322 322 322 320 320 320 320 319 319 319 317 317 317 316 315 314 313 312 311 311 310 309 309 309 308 308 307 306 306 305 304 304 304 304
323 323 324 324 324 323 322 322 321 321 321 321 320 320 320 320 320 319 318 318 317 316 315 314 312 311 311 310 310 309 308 308 307 307 306 305 304 303 303 302 302 302
323 324 324 324 324 324 323 322 322 321 322 321 320 320 320 320 320 319 319 318 317 316 314 313 312 311 311 310 309 309 308 307 307 306 305 304 302 301 301 301 301 301
321 322 324 324 324 323 323 323 322 322 321 321 320 320 320 320 319 319 318 318 316 315 314 313 312 311 310 309 309 308 308 307 306 304 303 302 301 300 300 300 299 300
316 319 321 322 323 323 323 322 322 322 322 321 320 320 320 320 319 317 317 316 315 314 313 312 311 311 310 309 308 308 307 305 304 302 301 301 300 299 299 299 299 299
313 315 318 319 320 321 322 322 321 321 321 321 320 320 319 319 318 317 316 315 314 313 312 311 311 310 309 307 307 306 304 303 302 301 300 299 299 299 299 299 298 298
310 312 314 316 318 319 321 321 320 320 320 320 320 320 319 317 316 315 314 313 313 313 311 311 310 309 307 306 304 303 303 302 301 300 299 299 298 298 298 299 299 298
308 309 311 314 316 318 319 320 319 319 319 319 319 318 317 315 314 313 313 312 313 312 311 310 308 307 306 304 303 303 301 300 300 299 299 298 298 298 298 298 298 298
306 307 309 312 315 317 318 318 318 318 318 318 318 317 315 314 314 314 313 313 312 311 309 308 307 306 305 304 303 302 299 298 299 299 298 298 298 298 298 298 297 298
306 307 308 310 313 315 317 317 317 318 318 317 317 316 316 315 314 314 314 312 311 310 309 307 306 306 304 303 302 300 296 297 299 299 298 298 298 297 297 297 297 297
307 307 308 309 311 313 315 316 316 317 317 316 316 316 316 315 315 314 314 312 311 310 309 307 306 305 304 302 300 297 295 296 298 298 298 298 297 297 297 297 297 298
308 308 308 309 310 311 313 314 315 315 315 315 316 316 315 315 315 314 313 312 311 310 309 306 305 304 303 301 297 295 294 295 297 298 298 298 298 298 298 298 297 297
308 308 308 309 310 311 312 314 315 315 315 315 315 315 315 315 314 313 312 311 310 309 307 305 303 302 301 298 295 294 294 296 298 298 298 298 298 298 298 297 297 297
307 307 308 309 310 310 312 313 314 314 314 314 314 314 314 314 313 312 311 309 308 307 305 304 303 302 299 296 294 294 294 296 297 298 298 298 298 298 298 298 297 297
307 308 308 309 309 310 312 313 314 314 314 314 313 314 314 313 311 310 309 308 306 305 304 304 303 300 297 295 295 294 294 295 297 297 297 298 298 298 298 298 297 297
308 308 309 309 310 311 312 313 314 313 313 313 313 314 314 312 310 309 308 307 305 304 303 303 302 299 296 295 295 294 294 294 296 297 297 298 298 298 297 297 297 297

ECMWFNIL_925_thetae_009.txt.gz
Theta_e
321 320 321 320 319 320 320 320 320 319 318 319 319 318 318 317 316 317 318 317 315 314 314 314 314 314 314 314 314 314 314 315 315 315 315 314 314 313 314 313 312 312
322 321 321 320 319 320 320 320 320 320 318 318 319 319 319 317 316 318 318 316 316 315 314 314 314 314 314 314 314 314 314 315 315 315 315 315 314 314 314 314 312 312
323 323 322 321 320 320 321 321 320 320 318 318 319 319 320 318 317 318 318 317 317 316 315 314 314 314 314 314 314 314 315 315 315 315 315 314 314 313 313 313 312 311
324 324 324 323 321 320 322 322 322 320 319 318 318 319 321 319 317 318 318 318 318 317 316 315 315 314 314 313 314 314 314 314 314 314 314 314 313 313 312 311 311 311
326 325 325 325 323 322 323 323 322 321 320 319 319 319 321 320 318 318 318 318 318 318 317 316 315 315 314 314 314 314 314 313 314 314 314 313 312 312 312 312 311 311
326 326 325 324 323 323 324 323 322 320 320 320 320 319 321 320 319 319 318 318 318 318 317 316 316 315 315 315 315 314 314 313 313 313 313 313 312 311 311 311 311 311
326 326 324 322 321 322 324 324 322 320 320 321 320 320 321 320 319 319 318 318 318 318 318 317 316 316 315 315 315 314 314 313 312 312 312 312 312 311 311 310 310 309
326 326 325 323 321 322 324 324 322 321 321 320 319 320 321 321 319 319 319 318 318 318 318 317 316 316 315 315 315 314 314 313 312 312 311 311 311 311 311 310 310 309
325 323 323 323 321 321 322 323 322 322 322 321 320 319 320 320 319 319 319 318 318 318 318 317 317 316 315 315 315 315 314 313 313 312 311 311 311 310 310 310 310 310
324 323 323 323 322 321 321 321 322 323 322 322 322 321 320 319 318 319 319 319 318 318 318 317 317 316 315 314 314 315 314 313 313 312 312 312 311 310 309 309 309 309
324 324 325 324 322 322 323 323 323 323 322 322 323 322 321 320 318 318 319 319 319 318 318 318 317 317 316 315 314 314 314 313 313 312 312 312 311 310 309 308 308 308
324 324 324 323 322 321 322 324 324 324 323 323 323 322 321 321 320 319 319 320 319 319 318 318 317 317 316 315 315 314 314 313 313 312 312 311 310 310 308 308 307 307
322 323 324 324 324 323 323 324 325 324 324 323 322 322 322 321 320 320 319 319 319 319 319 319 318 317 316 315 315 314 314 313 313 312 311 311 309 308 307 306 306 305
314 316 317 317 320 323 324 324 325 324 324 324 322 322 322 321 320 319 320 319 319 319 319 319 318 317 316 315 315 314 314 313 312 312 311 310 308 307 305 305 304 304
312 313 313 314 316 320 322 323 324 324 324 324 323 323 323 322 321 320 320 320 320 320 319 319 318 317 316 315 315 314 313 313 312 311 310 309 307 306 304 304 303 303
312 313 314 315 317 319 320 321 322 322 323 323 324 324 323 323 322 321 320 320 321 321 319 319 318 317 315 315 314 313 313 312 311 310 308 307 306 305 304 303 303 302
309 310 310 312 314 316 318 319 320 320 321 321 322 323 323 322 322 321 321 321 321 320 319 318 317 316 315 313 312 312 312 311 309 308 307 305 305 304 304 303 303 302
307 308 308 309 310 312 315 316 318 318 319 320 320 320 321 322 322 322 321 321 320 319 318 317 316 314 313 312 311 310 309 308 308 306 306 304 304 303 303 303 302 302
307 307 307 308 309 310 312 314 316 316 317 318 319 319 320 321 321 321 321 320 319 318 316 315 314 313 312 311 310 309 307 306 307 306 305 304 303 303 302 302 302 302
308 308 308 308 308 308 310 312 314 314 316 317 317 318 319 319 319 319 319 319 318 317 316 314 313 312 310 310 309 307 305 305 305 305 304 303 303 302 302 302 301 301
308 308 308 308 308 308 309 310 312 314 315 316 316 316 317 317 317 318 318 318 317 317 315 312 310 310 310 308 307 305 303 303 304 304 303 302 302 302 301 301 301 301
308 308 308 308 308 308 309 309 310 313 314 315 315 315 316 316 317 317 318 317 317 317 314 311 309 310 308 306 304 302 300 300 302 303 302 302 302 302 301 301 301 301
308 307 307 307 307 307 308 309 309 311 313 314 315 315 315 315 315 316 317 317 317 316 313 310 308 307 305 303 302 299 298 299 301 302 302 302 302 302 302 301 301 301
308 307 307 307 307 307 307 308 309 310 311 313 314 314 314 314 315 315 316 316 316 315 312 308 306 304 303 301 299 297 297 299 301 301 301 302 302 301 301 301 301 301
307 308 308 308 308 308 307 308 308 309 311 312 313 313 313 313 314 314 315 315 315 312 309 306 305 303 301 299 297 295 297 299 300 300 300 301 300 300 301 301 300 300
306 307 308 309 309 309 308 309 309 309 310 312 312 312 313 313 313 314 314 314 312 309 306 304 303 301 299 297 295 295 296 297 297 298 299 300 300 300 300 300 300 299

ECMWFNIL_925_thetae_012.txt.gz
Theta_e
321 321 320 321 322 321 321 321 320 320 320 319 318 317 317 317 316 317 318 316 315 315 315 314 314 314 314 315 314 314 315 315 314 313 312 312 311 312 312 309 310 314
321 321 320 321 322 321 321 321 320 320 320 320 319 318 318 316 315 318 318 316 315 315 315 314 314 314 314 314 314 313 313 313 314 315 316 314 312 313 313 310 311 312
321 321 321 321 321 321 321 321 320 320 319 320 320 319 319 316 316 318 318 316 316 315 314 314 315 315 314 314 315 314 314 314 315 314 313 312 313 314 312 311 311 311
322 322 321 320 320 321 321 320 321 320 318 320 320 319 319 317 316 319 318 316 317 315 315 315 315 315 314 314 315 315 315 315 314 313 312 313 313 312 311 310 310 310
323 322 323 321 320 321 321 320 321 321 319 319 320 320 320 318 316 319 319 317 318 317 316 316 315 315 314 314 315 314 315 314 313 313 314 314 312 311 311 311 311 310
324 324 323 323 322 322 323 322 321 322 320 319 319 320 321 320 317 319 319 318 318 318 317 316 316 315 314 314 315 314 314 313 313 314 315 313 312 311 311 312 311 311
326 326 324 324 323 323 323 323 322 322 321 320 320 319 321 321 318 318 319 319 319 319 318 317 316 315 314 315 315 314 314 314 313 313 314 313 313 312 311 311 310 310
324 324 324 323 323 322 323 323 322 322 321 321 321 320 320 322 320 319 319 319 319 319 319 317 316 316 315 315 316 315 314 315 313 312 313 313 312 311 311 311 310 309
324 324 325 325 324 323 323 322 322 321 321 321 322 320 320 321 322 321 320 319 319 319 319 318 317 317 316 316 316 315 315 315 313 312 313 312 312 311 312 312 311 310
323 323 323 325 325 325 325 324 323 322 322 322 322 321 321 321 322 321 320 320 319 319 319 319 318 317 316 316 316 315 316 315 314 313 312 312 312 311 311 311 311 311
322 322 323 325 326 325 324 323 322 322 322 321 321 321 319 320 321 321 321 320 320 319 319 319 318 317 317 316 316 315 316 315 314 313 313 312 312 312 311 310 310 310
323 324 325 326 325 323 323 323 322 321 321 320 320 320 319 319 319 321 321 320 320 320 319 319 319 318 317 316 316 315 316 315 314 313 313 312 312 312 311 310 309 309
325 325 326 326 324 323 322 322 322 321 320 319 320 320 320 320 321 321 321 320 320 319 319 320 319 319 318 317 316 316 315 315 314 313 313 313 312 312 310 310 309 308
320 321 322 324 324 324 323 322 321 320 319 319 320 320 320 321 321 321 321 320 320 320 320 320 319 319 318 318 316 316 315 315 315 314 313 313 312 311 310 309 308 307
314 314 316 318 318 318 320 321 321 321 322 322 322 321 321 321 321 320 321 320 320 320 320 320 320 320 319 318 317 316 316 315 315 314 313 313 311 310 309 307 307 306
313 314 316 317 317 316 318 319 319 321 323 323 323 323 322 322 322 321 321 320 320 321 321 320 319 319 319 318 317 317 316 315 315 314 313 312 311 309 307 306 305 305
311 311 312 313 314 316 317 318 319 320 321 322 322 323 323 323 323 323 322 321 321 321 321 319 318 318 318 318 318 317 316 315 314 314 313 312 310 308 307 306 305 304
308 308 308 309 310 311 312 315 316 317 318 319 319 320 321 322 323 323 323 322 322 322 320 319 318 318 318 318 317 316 315 315 313 313 311 310 308 307 306 306 305 304
307 308 308 308 309 309 309 311 312 314 315 316 317 318 319 320 320 321 322 322 322 322 321 319 318 318 318 318 317 315 314 313 312 311 309 307 307 306 305 305 304 304
308 308 309 309 308 309 308 309 309 311 313 314 316 316 317 318 319 319 320 321 322 321 320 320 319 318 317 316 315 314 313 312 310 309 307 306 306 305 305 304 304 303
308 308 308 309 308 308 308 308 309 309 311 313 315 315 315 316 317 318 319 319 320 320 319 318 318 318 317 315 313 313 311 310 308 307 306 306 305 304 304 304 303 303
309 309 308 308 308 308 308 308 308 309 310 311 313 315 315 315 315 316 317 318 319 319 318 317 316 316 315 314 312 311 310 308 307 306 305 305 304 303 303 303 302 302
308 308 308 308 308 308 308 307 308 308 309 310 311 313 314 315 315 315 315 316 317 318 318 316 315 315 314 312 312 311 310 307 306 305 304 304 303 303 303 303 302 302
308 308 308 308 308 308 307 307 307 307 308 308 309 311 313 314 314 314 314 315 316 317 317 316 315 313 312 311 310 310 308 305 304 303 303 303 303 303 303 303 302 302
307 307 308 308 308 308 308 308 308 308 308 308 308 310 312 313 313 313 313 313 314 316 316 315 314 311 308 308 308 306 304 302 301 302 302 302 302 302 302 302 302 302
306 307 307 307 308 308 309 309 309 308 308 308 308 309 311 312 312 312 313 313 313 314 313 313 312 309 306 306 304 302 300 301 301 300 300 300 301 301 301 301 301 300

ECMWFNIL_925_thetae_015.txt.gz
Theta_e
319 319 319 318 319 320 320 319 320 319 318 317 315 315 315 313 315 316 315 313 309 309 311 314 316 316 314 313 310 307 305 304 304 304 303 303 303 307 311 312 311 310
319 320 319 318 319 320 319 320 320 319 318 317 316 316 315 314 316 317 315 313 309 308 308 311 314 315 315 313 309 306 307 307 308 308 306 304 305 307 311 312 312 312
319 319 320 319 319 320 319 320 320 319 319 318 317 317 316 314 316 318 315 311 310 309 307 309 312 313 313 312 309 307 309 312 313 313 310 307 306 307 309 311 312 312
320 319 321 320 319 320 320 320 320 320 320 319 318 318 317 314 314 317 316 311 310 309 308 309 313 314 312 312 311 310 311 313 313 313 312 311 310 308 307 309 310 311
320 320 321 321 321 320 321 320 320 320 320 319 319 318 318 316 314 316 316 313 312 311 309 309 314 315 313 313 314 312 311 312 310 309 311 311 311 309 306 308 309 310
322 321 320 321 321 320 320 321 320 319 319 319 319 319 319 318 315 315 315 314 314 314 312 311 313 315 313 313 315 313 312 313 309 310 313 310 309 309 308 308 310 310
322 322 322 322 322 321 320 321 321 319 318 319 319 319 319 319 318 316 316 315 314 315 315 313 312 314 313 313 314 314 313 313 311 313 315 312 309 311 310 309 310 310
322 322 322 322 323 322 320 321 321 320 318 319 319 319 319 319 319 319 317 316 315 315 316 316 314 314 313 313 313 314 314 313 312 313 315 313 311 312 311 309 309 309
322 322 322 322 323 323 322 322 322 321 320 320 320 320 320 320 320 320 319 318 317 316 317 317 316 315 314 313 313 314 314 313 313 313 313 313 313 312 311 310 309 309
322 321 322 323 323 322 322 322 322 321 321 321 321 321 321 321 320 320 320 319 318 318 318 318 318 317 316 315 313 314 315 314 314 313 312 312 313 312 311 311 311 310
322 321 322 323 322 320 321 323 322 321 321 321 321 321 321 322 322 321 320 320 319 319 318 319 319 318 318 316 315 314 315 315 315 314 312 312 313 312 310 311 311 311
322 322 321 321 320 319 321 323 323 321 321 322 321 321 321 321 321 321 320 321 320 319 319 319 319 319 319 318 317 316 315 315 315 315 313 312 312 312 311 311 311 310
321 320 319 320 322 322 322 324 323 321 320 320 321 321 320 320 320 320 320 320 320 320 319 319 319 319 319 318 318 317 316 315 315 316 314 312 312 312 312 311 310 309
321 321 321 322 324 324 323 323 323 321 321 320 321 321 320 320 319 319 319 319 319 319 319 319 319 319 319 318 318 317 316 316 315 315 314 313 312 312 312 311 310 310
324 324 324 324 324 324 323 323 322 322 322 321 320 319 319 319 319 318 319 319 319 319 319 319 319 318 319 319 318 317 317 316 316 315 315 313 313 312 312 311 310 309
319 319 320 320 320 320 320 320 320 320 320 320 320 320 320 320 320 319 319 319 320 320 320 320 319 319 319 319 319 318 317 316 316 315 315 314 313 312 312 311 309 308
315 315 316 316 316 316 317 317 318 319 318 320 321 322 322 322 322 322 321 321 321 321 321 321 320 320 320 320 319 318 317 317 316 316 315 314 313 313 311 310 309 307
312 313 313 314 314 315 315 316 317 318 319 320 322 322 322 322 322 322 322 321 321 322 322 321 321 320 320 320 320 318 318 317 316 315 315 314 313 312 311 310 308 307
308 308 309 309 310 310 310 311 312 314 315 316 318 319 320 321 321 321 321 321 321 322 322 322 321 321 321 320 320 318 318 318 316 315 315 314 313 312 311 309 308 306
307 308 308 308 308 308 308 308 309 309 310 311 313 316 317 318 318 318 319 319 319 320 321 322 322 321 321 321 319 318 318 317 316 315 314 313 311 310 309 307 306 305
308 308 308 308 308 308 308 308 308 308 309 309 311 313 314 314 315 316 317 317 317 318 319 320 321 320 320 320 318 317 317 317 315 314 312 310 308 308 307 306 305 304
308 308 308 308 308 307 307 307 307 307 308 308 309 310 312 313 314 314 315 317 318 318 317 318 319 318 318 318 317 316 315 314 313 312 310 309 307 306 305 305 304 304
308 308 308 308 307 307 307 307 307 307 307 308 308 308 309 311 313 313 314 314 316 318 318 318 317 318 318 316 314 313 313 311 310 309 308 307 305 304 304 304 304 304
308 308 308 308 307 307 307 307 307 307 306 306 307 308 308 309 311 312 313 313 314 316 317 318 317 317 317 314 312 311 311 308 307 306 306 305 305 304 303 303 303 303
306 307 307 307 307 307 307 307 307 307 307 307 307 307 307 307 309 310 311 312 312 313 315 317 318 317 314 312 310 309 309 307 306 305 304 304 303 303 303 303 302 302
305 305 306 306 307 307 306 307 308 308 308 307 306 306 307 307 308 310 311 312 312 312 314 316 317 315 311 309 308 307 307 306 304 303 302 301 301 301 300 299 299 299

ECMWFNIL_925_thetae_018.txt.gz
Theta_e
320 320 319 318 320 322 321 319 316 315 314 311 309 308 308 310 311 311 311 313 314 314 313 312 310 306 305 305 304 303 303 304 306 308 310 312 312 312 311 309 308 308
320 320 319 318 320 321 320 317 316 316 314 311 309 308 309 311 311 311 311 312 314 314 314 315 313 309 306 305 304 303 303 303 304 304 306 310 312 311 310 309 308 307
320 320 319 318 319 321 320 317 317 317 314 312 311 309 310 312 312 311 308 309 312 314 315 315 315 314 310 305 304 304 305 304 304 304 304 307 310 311 311 310 311 311
321 320 319 317 318 320 320 318 318 318 315 314 313 311 310 312 312 311 308 306 307 311 314 314 314 314 311 307 305 305 306 306 305 304 303 304 306 308 310 311 311 311
321 320 319 317 318 319 319 319 319 318 317 315 315 313 311 311 312 311 308 306 305 306 309 312 312 312 311 309 307 307 307 307 309 308 305 305 306 306 308 310 310 309
321 321 320 319 318 319 319 319 319 319 318 317 316 315 313 311 312 311 309 307 305 305 306 307 309 311 312 311 310 310 308 308 310 309 307 306 307 307 307 309 309 309
321 321 320 319 319 319 319 319 320 320 319 318 317 317 315 313 312 311 309 308 307 306 306 306 307 310 311 310 311 312 311 309 309 309 309 309 308 308 308 308 309 309
321 320 320 320 320 320 320 320 320 320 320 319 318 318 317 316 314 313 312 310 309 308 308 307 307 307 308 309 310 312 312 311 311 310 311 312 311 310 309 308 309 309
321 320 320 320 321 320 320 321 320 320 319 319 318 319 318 318 317 316 315 314 312 312 311 311 310 309 308 309 309 310 311 312 312 310 311 312 313 312 311 309 308 308
321 320 320 320 321 322 321 321 321 320 319 320 319 319 319 318 318 317 317 316 315 315 314 314 313 312 311 310 310 310 310 311 312 311 310 311 312 313 312 311 309 309
321 320 320 320 321 322 322 321 321 320 320 320 319 319 319 319 318 318 318 318 317 317 317 316 316 314 314 313 313 312 311 311 311 311 312 312 312 312 313 312 311 311
321 320 321 321 320 322 322 321 321 321 321 321 320 320 319 318 319 318 318 318 318 318 319 318 317 316 316 316 316 315 313 312 312 312 312 313 312 312 312 312 312 311
320 321 321 322 322 322 321 321 321 322 322 321 321 321 320 320 320 319 319 319 318 319 319 319 318 318 318 318 317 317 316 315 314 313 313 313 314 312 312 312 311 310
319 320 321 322 323 322 321 320 320 321 322 322 321 320 320 321 321 321 320 319 319 319 319 319 319 318 318 319 319 318 317 316 315 315 314 314 314 313 312 312 311 311
321 321 320 320 321 320 320 320 319 321 323 322 321 320 320 320 320 320 320 319 320 320 320 319 319 319 318 319 319 318 318 317 316 316 315 315 315 314 313 312 312 311
321 321 320 320 321 320 321 321 321 322 322 322 322 321 321 320 320 320 320 320 319 320 319 320 319 319 319 319 318 318 318 318 317 316 316 315 315 315 313 312 312 311
322 323 323 323 324 323 322 322 321 321 321 321 320 320 319 319 320 320 321 321 320 320 320 320 320 320 320 320 319 319 318 318 318 317 316 316 315 315 313 312 312 311
321 322 322 322 322 320 319 318 318 318 319 318 318 319 319 320 320 321 322 322 322 322 321 321 321 321 321 320 320 319 319 319 318 317 317 316 315 315 314 313 312 311
316 316 316 316 317 317 316 315 316 317 318 318 318 319 319 320 320 320 320 321 321 321 321 321 320 320 321 321 321 320 319 319 319 318 316 316 315 315 314 313 312 310
311 313 313 312 314 313 311 311 311 313 314 314 315 316 317 319 319 319 318 319 319 319 318 318 317 317 318 320 321 321 320 319 319 318 316 316 315 314 313 312 310 309
308 309 310 310 310 309 308 308 308 309 309 309 311 312 314 315 316 316 316 315 316 317 317 316 315 315 316 317 318 319 319 318 318 317 316 315 314 313 312 311 310 309
307 308 308 308 308 307 307 307 307 307 308 308 309 309 310 311 312 313 314 313 313 314 316 316 315 315 315 316 317 317 317 318 317 316 314 313 313 312 310 309 309 308
307 308 307 307 307 306 306 306 307 307 307 307 307 307 308 309 309 310 311 312 313 313 314 315 315 316 316 316 317 317 316 316 315 313 312 311 310 309 308 306 306 305
307 308 308 307 307 306 306 306 306 306 306 306 305 305 306 306 307 307 308 310 311 312 312 313 314 316 316 316 317 316 315 314 313 311 309 308 307 305 305 304 304 303
306 307 307 307 307 306 306 307 307 306 306 306 305 305 305 305 305 306 306 307 309 310 311 311 312 315 316 316 316 315 314 313 311 309 308 306 305 304 303 303 303 303
306 306 306 306 307 307 307 306 306 306 306 306 307 306 305 305 305 306 306 307 308 309 311 311 312 314 315 314 313 312 312 311 310 308 307 305 304 304 303 302 302 302

ECMWFNIL_925_thetae_021.txt.gz
Theta_e
318 316 316 319 317 315 318 320 319 318 315 312 311 313 314 314 314 314 312 309 308 307 307 306 305 305 304 305 308 312 314 314 313 312 313 313 312 312 311 309 309 309
316 315 316 319 318 317 319 320 319 317 313 311 311 312 313 314 313 313 310 308 308 308 306 305 304 304 304 303 304 305 306 306 307 309 311 312 312 310 307 305 305 306
317 317 319 319 317 317 320 320 319 316 313 311 311 311 312 313 313 312 310 309 308 308 307 306 305 304 304 304 304 303 303 303 303 306 308 310 310 308 305 305 305 305
318 320 320 319 317 317 319 320 319 316 313 313 311 310 311 312 313 313 312 312 310 308 309 309 307 305 304 304 304 304 303 303 303 304 306 307 308 307 306 307 306 305
319 321 320 319 318 317 318 319 318 315 315 314 311 309 309 310 311 311 311 313 312 311 311 311 310 308 306 304 304 304 304 304 303 304 304 306 308 308 308 308 306 305
319 320 320 319 318 317 316 316 316 316 316 315 313 310 309 310 311 310 309 310 312 313 313 313 313 312 309 306 305 305 305 304 304 304 304 305 307 308 309 309 307 306
320 320 319 319 318 317 317 316 316 317 317 317 315 312 311 310 311 311 310 308 309 311 313 313 313 312 311 308 306 306 306 305 305 305 305 305 305 307 308 309 309 309
321 320 319 319 318 317 317 316 315 317 318 318 317 315 314 312 311 311 311 309 308 307 310 312 312 312 312 311 309 309 308 307 306 305 306 306 306 306 307 308 309 309
321 321 320 320 319 317 318 317 315 316 319 319 318 317 315 315 313 311 311 311 309 307 307 309 310 310 312 312 311 311 311 309 308 307 307 307 308 309 308 308 308 308
321 321 320 320 319 318 318 318 318 318 319 319 319 318 316 316 315 313 312 312 311 310 308 307 308 308 310 312 311 312 312 312 311 310 309 309 309 310 310 310 308 308
321 320 320 320 319 319 319 318 318 318 319 319 319 319 318 318 316 315 314 314 313 313 312 311 310 309 310 310 310 310 311 311 311 312 311 311 310 310 311 311 310 309
321 320 320 319 319 319 319 318 317 317 319 320 319 320 319 318 317 316 316 315 315 316 315 314 314 313 313 313 312 311 311 311 311 311 312 312 311 311 311 312 312 311
321 320 320 320 319 320 320 319 318 319 320 320 319 319 319 318 318 317 317 317 316 316 316 316 315 315 315 315 314 314 313 313 313 312 312 312 312 312 312 312 312 312
321 320 320 320 320 321 321 321 321 321 320 320 320 320 320 319 318 318 318 317 317 317 316 316 316 316 317 317 316 316 315 315 315 314 314 313 313 313 313 312 312 312
321 321 320 320 320 321 321 321 321 320 320 320 321 320 320 320 319 319 319 319 318 318 317 316 316 317 319 318 318 317 317 317 317 317 317 315 315 314 313 313 312 312
322 321 319 319 319 320 320 320 320 319 319 320 321 320 320 320 320 319 319 319 319 319 318 317 316 318 320 319 319 318 318 318 318 318 318 317 316 315 314 314 313 313
320 320 319 318 318 319 320 320 319 319 318 318 320 319 318 319 319 319 319 319 319 319 318 318 318 319 320 319 319 319 318 318 318 318 318 318 317 317 316 315 314 313
320 320 319 318 318 319 320 320 320 320 320 319 320 320 318 318 319 319 319 319 319 318 318 319 320 320 320 320 320 319 319 319 318 318 318 318 318 317 316 315 315 314
321 321 320 320 320 321 321 322 322 321 320 320 320 320 319 319 319 319 320 319 319 319 319 320 320 319 319 319 319 320 320 320 319 319 318 318 317 317 316 315 314 314
320 321 322 321 322 322 321 320 318 317 317 317 316 317 317 318 318 319 319 319 319 319 320 320 318 317 316 316 316 317 318 319 319 319 319 318 318 316 316 315 314 313
312 315 317 317 317 317 315 313 312 312 312 312 313 314 315 315 316 317 317 317 317 316 316 316 317 316 316 315 314 315 316 317 317 318 318 318 317 316 315 314 313 312
308 309 311 312 312 312 310 309 308 309 309 309 309 310 310 311 311 312 312 313 313 313 313 313 314 314 315 315 315 315 316 316 316 317 317 317 316 314 313 313 311 310
307 308 308 309 309 308 307 307 307 307 307 307 307 307 307 307 307 308 308 309 310 311 312 312 312 313 313 314 315 316 316 316 316 316 315 315 313 312 311 310 309 308
307 307 307 308 308 307 306 306 306 306 306 306 306 305 305 305 305 305 306 306 307 308 309 310 311 312 312 313 314 316 316 316 315 314 313 312 311 310 309 308 308 307
307 307 307 307 307 306 306 305 304 304 305 305 305 305 304 305 304 304 303 304 304 305 305 306 308 310 312 313 314 315 316 315 314 313 312 310 309 308 307 306 306 305
306 306 306 307 307 306 306 306 305 305 305 305 305 305 305 306 305 304 304 304 303 303 304 305 307 309 311 313 313 314 314 314 313 312 311 309 308 307 306 305 303 303

ECMWFNIL_925_thetae_024.txt.gz
Theta_e
320 319 315 313 313 310 312 317 319 317 317 315 314 314 314 314 314 314 312 310 307 307 307 306 306 308 311 316 318 318 318 316 314 313 313 313 313 312 311 309 309 309
320 318 314 312 312 309 310 316 318 318 317 314 312 313 314 314 314 314 312 310 308 307 305 304 304 304 305 310 313 314 314 312 311 311 311 311 310 308 306 305 305 305
319 316 312 312 311 310 314 317 318 319 317 313 310 311 313 313 314 313 312 311 310 308 307 305 304 303 303 304 305 306 306 306 307 309 310 310 307 305 303 303 304 304
320 315 313 313 311 312 317 317 317 319 317 313 311 310 311 312 313 313 312 313 312 311 310 308 306 304 303 303 303 303 303 303 305 307 308 308 306 304 304 305 306 306
320 316 315 315 313 315 318 315 311 314 316 314 312 310 309 309 311 312 312 313 312 312 312 312 310 306 303 303 303 303 303 304 307 308 307 308 307 306 305 305 306 308
319 316 316 316 315 317 318 313 308 308 311 313 312 311 309 307 309 310 311 311 312 312 312 312 313 311 307 305 305 305 304 304 306 308 307 308 309 309 307 305 305 307
318 316 317 317 317 319 318 314 310 309 310 312 314 313 310 308 308 309 310 309 309 310 311 312 312 313 312 308 307 307 306 305 305 305 306 306 308 309 309 308 307 306
317 316 317 317 318 319 318 315 313 312 312 314 316 316 314 311 309 309 309 309 309 308 309 310 312 313 312 311 309 308 308 308 308 307 307 306 306 307 308 309 309 307
317 318 317 318 319 319 319 317 315 314 313 313 316 317 316 315 313 311 311 311 312 310 308 308 310 311 312 311 310 310 309 309 309 309 308 307 307 307 307 308 308 308
318 319 319 318 319 319 319 317 316 315 312 311 316 318 318 318 317 315 313 312 313 314 312 309 309 311 312 312 312 312 312 311 310 310 309 308 308 308 308 308 308 308
319 320 319 319 319 319 319 318 317 315 313 312 315 318 318 318 318 317 316 315 314 314 315 313 311 310 311 312 312 313 313 313 313 312 311 311 310 311 310 310 309 309
320 319 320 320 319 319 320 319 317 316 315 315 316 318 319 319 319 318 318 317 316 315 315 315 314 312 311 311 312 312 312 313 313 313 312 312 312 312 312 311 311 311
320 319 319 320 320 319 320 319 317 317 317 317 317 318 319 319 319 319 319 318 318 316 316 315 315 314 314 314 314 314 313 313 313 313 312 312 312 312 312 312 311 312
320 320 320 320 320 319 319 319 318 318 318 318 318 318 319 320 319 319 319 319 318 318 317 316 316 316 316 316 316 316 315 315 314 314 313 313 313 314 313 313 312 312
320 320 320 320 320 319 319 319 318 319 318 318 319 319 319 320 320 319 319 319 319 318 318 317 316 316 316 316 317 317 317 316 316 315 315 314 315 315 315 315 314 313
321 320 320 320 320 319 319 319 319 319 320 319 320 320 320 320 320 320 319 319 319 319 318 317 314 314 314 315 316 317 316 317 317 316 316 316 316 316 316 317 316 315
321 321 320 319 319 320 320 320 320 320 320 320 320 319 319 319 319 318 317 318 319 318 318 316 314 313 314 316 317 318 318 318 318 317 317 317 317 317 317 318 317 317
320 321 320 319 319 319 319 320 320 320 320 320 319 319 318 318 317 317 316 316 317 318 318 317 316 317 317 318 319 319 319 319 318 318 318 318 318 318 318 318 318 317
320 319 319 319 319 318 318 318 319 319 319 319 319 318 317 315 314 315 314 314 316 318 318 318 318 319 319 319 319 319 320 319 319 319 319 319 319 319 318 318 318 318
320 320 320 320 320 318 318 318 319 320 320 319 319 318 317 316 315 315 315 316 317 319 319 319 319 319 319 318 317 317 317 316 317 317 318 318 319 319 319 318 318 318
316 318 320 321 321 320 319 320 320 320 319 318 318 318 318 318 317 317 318 318 319 319 318 318 318 318 318 317 317 316 315 314 314 315 316 316 317 318 318 318 318 317
308 311 315 318 320 320 320 319 318 316 315 314 315 315 316 316 316 315 315 316 315 315 315 314 315 315 316 316 316 316 316 315 315 315 315 315 316 317 317 317 316 316
306 307 309 313 314 315 315 313 312 310 309 310 310 310 310 310 310 309 309 310 310 310 310 311 311 312 313 313 314 315 316 316 316 315 314 314 315 315 314 314 314 313
306 306 307 309 311 311 310 308 307 307 307 306 306 305 306 306 306 305 305 305 305 305 306 307 307 308 310 310 311 312 313 315 315 315 314 314 313 313 312 311 310 309
306 306 306 307 309 308 307 306 306 306 305 305 305 305 304 304 304 304 303 303 303 303 303 303 303 305 306 308 309 311 312 314 315 314 314 313 312 311 310 308 307 306
305 305 306 307 307 306 306 305 305 305 305 305 305 305 305 305 305 305 305 304 304 303 302 302 303 303 304 306 308 311 312 313 314 314 313 312 310 309 308 306 305 304

ECMWFNIL_925_thetae_027.txt.gz
Theta_e
321 319 318 314 312 312 311 314 316 316 316 315 315 316 316 314 313 313 311 310 311 311 310 310 312 317 319 318 316 316 316 315 314 314 314 314 314 314 313 313 312 311
320 319 316 312 312 311 309 313 317 317 316 314 313 314 314 313 313 313 311 309 309 308 306 305 308 314 317 316 315 315 314 313 313 312 312 311 310 309 308 307 307 306
320 319 315 311 312 311 310 314 317 317 316 313 311 312 314 314 314 313 312 309 308 307 306 304 304 309 313 314 314 313 312 311 311 310 308 307 306 305 305 304 303 303
320 320 316 312 311 310 311 315 316 316 316 313 310 310 311 313 314 313 312 310 309 308 307 305 303 304 306 308 309 309 309 310 310 308 306 305 305 305 305 305 306 306
320 321 316 312 312 310 312 315 314 314 314 312 311 310 308 309 311 312 311 310 310 310 310 308 306 303 303 303 304 306 307 308 309 308 307 306 306 306 307 307 307 308
320 320 316 312 313 312 313 315 312 308 309 310 311 310 308 307 308 309 310 311 311 311 311 311 310 307 305 304 304 304 305 307 308 308 308 308 307 306 306 308 308 308
319 320 317 314 314 313 314 316 313 307 306 310 312 312 309 307 306 307 308 309 311 311 312 312 312 312 309 307 306 305 305 305 305 307 308 308 308 306 306 306 307 307
319 319 319 316 315 314 315 317 316 309 306 310 314 313 311 309 307 307 307 307 309 310 311 312 313 313 312 310 308 307 307 306 305 305 305 306 307 307 307 307 306 306
319 319 319 318 316 315 315 317 318 313 308 310 314 315 314 312 309 308 308 308 308 309 309 310 311 312 313 312 311 310 309 309 308 307 307 306 306 306 306 307 308 307
319 318 318 317 316 316 316 317 319 316 312 313 315 316 316 315 313 312 311 310 310 310 310 309 309 310 311 312 312 312 312 312 311 311 310 309 308 307 307 307 308 308
319 318 317 317 317 317 317 318 319 318 315 314 315 316 316 317 316 316 315 314 313 313 312 312 312 311 311 311 311 312 312 313 313 313 312 312 311 310 309 308 308 308
320 319 318 317 318 319 318 318 319 319 317 315 315 315 316 317 317 317 317 317 316 315 314 314 314 314 313 312 312 312 312 312 312 312 312 312 312 312 312 311 311 310
321 321 320 319 319 319 319 319 319 319 318 317 316 316 315 316 318 318 318 318 317 316 315 315 315 315 315 314 314 314 314 313 313 313 313 313 313 313 313 313 312 312
321 321 321 320 320 319 320 319 319 319 318 318 317 316 316 317 318 318 318 318 318 318 317 317 316 316 316 316 316 316 316 316 315 315 315 315 315 315 314 314 313 312
321 320 320 320 319 319 319 319 319 319 318 318 318 317 317 318 318 319 318 318 318 318 318 318 318 317 317 317 317 317 316 316 316 316 316 317 317 317 317 316 315 314
321 320 320 320 320 319 319 319 319 319 318 318 318 318 318 318 319 319 319 319 319 318 318 319 318 317 318 317 315 315 315 315 316 317 317 317 317 318 318 317 317 316
321 321 320 320 319 319 320 319 319 319 319 318 319 318 319 319 319 319 319 319 318 317 317 318 318 317 316 316 314 313 314 316 317 318 318 318 318 318 318 318 317 317
320 320 320 320 319 319 319 320 320 319 319 319 319 319 319 319 319 319 319 317 316 315 315 316 317 316 315 316 316 315 316 317 318 319 319 319 318 318 318 318 317 317
320 320 319 319 319 319 319 319 319 319 319 319 318 318 317 317 318 318 317 316 315 315 314 315 317 317 316 317 317 318 318 319 319 320 320 319 319 319 318 318 317 317
315 318 320 320 319 318 318 318 318 318 318 318 318 317 316 316 316 316 315 314 314 314 315 315 317 317 318 318 318 318 318 318 318 318 318 318 318 318 318 318 317 317
307 310 314 318 320 320 319 319 318 317 318 318 317 317 317 316 316 316 314 314 314 315 316 317 318 318 318 318 317 316 315 314 314 314 314 315 315 316 317 317 317 317
305 305 307 311 317 320 321 320 320 319 319 319 319 318 318 318 317 316 315 316 316 317 318 318 318 318 318 318 316 314 314 314 314 314 314 314 314 314 315 316 316 316
306 306 305 306 309 315 319 319 319 319 318 317 318 317 317 318 318 317 317 317 317 316 316 315 316 316 316 316 316 315 315 315 315 315 315 315 314 313 314 314 315 314
305 305 306 306 306 309 314 315 314 314 314 314 315 316 316 316 315 314 313 311 310 310 310 310 311 311 312 313 313 314 314 314 315 315 315 315 313 313 312 312 312 311
306 305 305 306 306 307 310 311 311 311 311 312 313 312 311 310 308 307 305 304 304 304 304 304 305 306 307 309 310 310 311 312 314 315 314 313 312 311 310 309 309 308
305 305 305 305 306 307 308 308 308 308 308 308 308 307 306 305 304 303 303 303 303 303 303 303 303 303 304 305 307 309 311 312 314 314 313 312 310 309 308 306 306 306

ECMWFNIL_925_thetae_030.txt.gz
Theta_e
329 327 326 324 323 323 322 321 321 320 320 320 321 322 322 321 320 319 318 317 317 318 318 319 321 322 321 321 320 318 318 319 319 320 321 321 322 322 322 321 320 318
329 327 325 324 324 322 321 321 320 320 319 319 320 320 320 319 320 318 316 315 315 314 316 318 320 320 320 319 319 317 316 317 317 317 318 318 318 318 318 318 317 315
328 327 326 325 322 321 320 321 321 319 318 319 319 319 319 319 319 318 316 315 314 312 313 315 317 317 317 317 317 316 316 316 316 315 315 315 315 315 315 315 316 315
328 327 326 322 318 319 321 322 321 319 317 318 319 319 319 319 319 317 316 315 314 312 312 313 315 315 315 316 315 314 314 314 313 312 312 313 313 314 314 315 316 315
325 325 325 320 316 319 322 322 322 319 317 317 319 318 319 319 318 317 316 315 314 314 313 313 313 314 314 315 314 313 313 313 312 312 312 312 313 313 314 314 315 315
325 325 324 319 316 318 321 322 321 319 317 318 318 317 317 318 318 317 317 317 316 316 315 313 313 313 314 314 314 314 313 313 313 313 312 313 313 313 314 314 314 315
326 325 323 320 316 317 321 322 321 319 318 317 317 318 317 317 317 317 317 317 317 317 316 314 313 313 313 314 313 314 314 314 314 313 313 312 312 313 314 314 314 314
326 325 323 322 320 320 322 323 319 318 318 318 318 318 317 316 316 316 316 316 316 317 317 316 315 314 315 314 313 313 313 314 314 313 312 312 312 312 313 313 313 313
326 325 324 325 325 323 323 323 320 318 318 319 319 318 317 317 316 316 316 315 316 316 316 317 316 316 316 316 315 314 314 314 314 313 313 313 313 312 312 313 313 313
325 326 325 325 325 324 323 324 323 321 318 317 319 319 317 318 317 316 316 316 316 316 316 317 317 317 317 316 316 316 315 315 315 314 314 314 313 313 313 313 314 313
325 325 325 325 324 324 323 323 324 324 321 318 319 320 319 319 318 317 317 317 316 316 316 316 316 316 316 316 316 316 317 317 316 316 316 316 315 314 314 314 314 314
325 325 324 324 324 323 323 323 323 324 323 321 320 321 320 320 320 318 318 318 318 317 317 317 316 316 317 317 317 317 317 318 318 318 318 317 317 316 315 315 315 315
326 325 325 324 324 324 323 323 323 323 324 322 321 321 321 321 320 320 320 320 320 320 319 319 319 318 318 318 318 319 319 319 319 319 319 318 318 318 317 317 317 317
326 326 326 325 325 324 324 323 323 324 324 323 322 322 321 321 321 321 321 321 321 321 320 321 320 320 320 320 320 320 320 321 321 320 320 320 320 320 319 319 318 318
325 325 325 325 325 324 324 323 323 324 324 324 324 323 322 322 322 321 321 321 321 321 321 322 321 322 321 321 321 322 321 321 321 321 321 321 322 321 321 321 320 319
324 325 325 324 324 324 324 323 323 324 325 324 324 324 324 323 322 322 322 321 322 322 322 322 322 323 321 319 320 321 321 321 321 321 321 321 322 322 322 322 321 321
324 323 324 324 324 323 323 324 324 324 325 324 324 324 324 323 323 322 322 322 322 323 322 322 323 322 319 317 318 318 318 319 320 320 320 320 321 322 322 322 322 321
323 323 323 323 323 323 323 324 324 324 324 324 324 324 323 323 322 322 323 322 322 322 322 322 322 320 317 316 317 316 315 316 319 321 321 321 322 322 322 322 322 322
321 323 323 323 323 323 323 324 323 323 323 323 323 323 322 322 322 322 322 322 322 322 321 322 321 319 317 316 316 315 314 316 318 320 321 322 322 323 322 322 322 322
315 318 320 322 323 322 322 323 323 323 323 322 322 321 320 320 320 321 322 322 321 321 320 320 320 319 316 316 316 316 316 317 318 320 321 321 322 321 321 321 320 320
311 312 314 317 320 321 322 322 322 323 322 321 321 320 318 317 318 320 320 320 319 320 319 319 319 318 316 316 317 317 318 318 319 319 320 319 319 319 318 318 318 318
310 310 311 312 315 318 321 321 322 322 322 321 321 320 318 317 318 319 319 318 319 319 318 319 319 318 316 316 317 318 319 318 318 318 317 317 318 318 318 318 317 317
310 310 310 311 311 313 317 319 321 321 323 322 321 321 320 320 320 319 319 319 319 318 319 320 320 319 317 317 318 318 317 316 316 315 316 316 317 317 316 316 316 316
309 309 310 310 310 311 313 316 318 319 320 321 321 321 322 321 320 320 319 319 320 320 320 321 320 319 319 318 318 317 315 314 315 314 315 316 316 315 314 313 313 314
307 308 309 309 310 310 311 313 315 317 318 318 319 321 321 320 318 318 318 318 318 318 318 318 317 317 317 317 317 316 315 314 314 314 315 315 315 314 313 311 311 311
306 307 308 308 309 310 310 312 313 315 316 317 317 318 319 317 315 315 315 314 313 311 312 314 314 312 313 314 314 314 315 314 314 314 314 314 314 313 312 310 309 309

ECMWFNIL_925_thetae_033.txt.gz
Theta_e
329 328 326 323 323 323 324 322 322 322 322 323 325 325 324 323 321 320 321 321 320 321 322 322 323 322 322 322 320 321 322 322 322 323 324 324 325 325 323 321 320 318
330 329 326 324 323 324 324 323 322 323 322 323 324 324 323 321 319 318 319 319 319 320 322 322 322 321 321 320 318 318 319 319 319 320 320 321 321 321 320 318 317 316
330 329 327 325 325 325 324 323 322 322 322 323 323 323 321 319 318 318 317 317 317 319 320 320 320 320 319 318 318 318 318 318 318 317 317 317 317 318 317 317 317 316
330 329 328 327 325 324 324 323 321 321 321 322 322 321 320 319 318 317 316 315 315 316 317 317 317 317 317 317 316 316 316 315 316 315 316 316 317 317 317 318 319 318
329 329 328 326 324 323 324 323 321 319 320 321 321 320 319 318 317 316 315 314 314 315 315 316 316 316 316 315 315 315 314 313 314 314 315 315 315 316 317 319 319 319
329 329 327 324 323 324 324 322 320 319 320 320 320 319 319 317 316 315 315 314 314 314 314 314 315 315 315 315 314 314 313 313 314 314 314 315 315 315 316 318 318 318
329 327 325 321 321 322 323 321 320 319 319 320 319 318 318 317 316 315 315 315 314 313 313 314 315 315 315 315 315 314 315 314 314 314 314 315 315 316 316 316 316 317
328 327 325 320 319 321 322 321 319 319 319 319 319 318 317 317 316 316 315 316 315 314 313 313 314 315 315 315 315 315 315 316 315 314 313 314 315 316 316 316 316 316
328 327 326 323 320 320 323 322 320 319 318 318 319 318 317 317 316 316 316 316 316 315 314 314 314 315 316 315 315 315 316 317 316 315 315 315 315 314 315 315 315 315
329 327 327 326 323 321 322 322 320 319 317 317 318 317 317 317 316 316 316 316 316 316 315 315 315 316 316 315 314 314 315 316 316 315 315 316 315 314 314 314 315 315
329 328 327 327 325 323 323 323 321 320 318 318 318 317 317 318 316 315 316 315 315 316 316 316 316 317 316 316 316 316 315 316 316 316 316 316 316 315 315 315 316 316
328 328 327 327 326 325 324 324 323 322 319 318 318 318 317 318 317 316 316 315 315 315 316 316 316 316 316 317 317 318 317 317 317 317 317 317 317 316 316 316 317 317
327 327 327 326 326 325 325 324 324 324 322 319 318 319 318 318 317 317 316 315 315 315 315 316 316 316 316 317 317 318 319 319 319 320 319 319 318 318 317 317 318 318
327 327 327 326 326 325 325 325 324 324 324 322 320 320 319 319 318 318 317 317 316 316 316 316 316 317 317 318 318 319 320 320 321 321 321 321 320 320 320 320 319 319
327 327 327 326 326 325 325 326 325 324 325 324 322 321 319 319 319 319 319 319 318 318 317 317 318 318 318 319 320 320 322 322 322 322 322 322 322 322 321 321 321 320
327 327 327 326 325 324 324 325 325 325 325 325 324 322 320 319 319 319 320 320 320 320 320 321 321 321 321 320 321 322 323 323 323 323 323 323 323 323 323 323 323 322
325 325 326 326 325 324 324 324 324 325 325 326 326 325 323 322 321 320 320 320 320 321 322 323 324 324 323 322 321 323 324 324 324 323 323 323 323 323 324 324 323 322
324 324 325 325 325 325 325 325 325 325 326 326 326 326 325 325 323 322 322 321 321 322 323 325 325 324 324 322 321 321 322 323 324 323 323 323 322 322 322 323 322 322
323 324 324 324 325 324 325 326 326 325 326 326 326 326 325 325 325 324 324 323 322 322 324 325 324 323 324 323 320 319 319 320 321 322 322 322 322 322 322 322 321 320
317 319 321 323 324 324 324 325 326 326 326 325 325 325 324 324 325 324 324 324 324 323 324 324 324 323 323 321 318 317 317 317 318 320 322 322 323 322 321 321 320 319
314 314 315 318 320 321 322 323 324 325 326 325 325 324 324 323 323 323 324 324 323 323 324 324 323 323 322 321 319 318 317 315 316 319 322 323 323 321 319 319 319 319
313 313 313 313 315 316 318 320 321 323 325 325 325 324 323 322 322 322 322 323 323 323 322 322 321 322 321 320 319 318 317 315 316 319 322 322 321 320 318 318 318 317
311 312 313 313 313 313 314 316 319 321 323 324 324 323 323 322 322 321 321 321 322 321 321 321 321 321 320 320 319 318 316 317 318 319 320 319 319 318 317 317 317 317
310 310 311 312 313 312 313 314 315 317 319 321 323 323 323 322 322 322 321 321 321 321 321 321 321 320 320 320 319 317 316 317 319 318 317 317 317 317 316 316 316 316
307 309 310 311 311 312 312 313 313 313 314 316 319 321 322 322 322 322 322 322 322 322 322 321 320 321 321 320 319 317 317 318 318 316 315 315 316 315 316 315 313 313
306 307 308 309 310 311 311 312 312 312 312 314 316 317 318 320 321 322 322 322 322 322 322 320 319 320 320 319 318 318 318 317 316 314 315 316 315 314 315 314 312 312

ECMWFNIL_925_thetae_036.txt.gz
Theta_e
328 327 325 324 324 324 324 323 323 323 323 325 325 326 325 323 323 323 323 322 322 323 323 323 323 322 322 323 323 324 324 325 325 326 326 325 323 321 320 319 318 317
328 326 324 323 323 324 324 322 323 323 324 325 326 324 323 320 320 321 321 321 323 323 322 322 322 321 320 320 321 321 321 322 323 323 322 322 320 318 317 316 316 316
328 327 324 323 324 324 324 323 323 323 324 325 325 323 320 319 319 319 319 321 321 322 321 321 320 319 318 319 319 319 319 319 319 318 319 319 318 317 317 316 316 317
329 327 324 324 325 324 324 323 323 323 324 324 323 321 319 318 318 317 317 319 319 319 319 318 318 318 318 318 317 318 317 317 317 317 318 318 318 318 319 319 319 319
329 328 326 326 325 324 323 323 322 322 323 323 322 320 319 318 317 316 315 316 316 317 317 317 316 316 316 316 315 315 315 316 316 316 316 317 318 319 320 319 319 318
329 328 327 326 324 324 323 322 321 321 322 322 321 320 318 317 316 315 315 315 315 315 315 316 316 315 315 314 314 314 314 314 315 315 315 315 318 319 319 318 318 318
329 329 327 325 324 324 324 322 320 321 322 321 320 319 318 316 315 315 315 314 314 314 315 315 316 315 315 315 314 314 314 314 314 315 315 315 317 318 318 318 318 317
330 328 325 324 324 323 323 321 320 320 321 320 319 318 317 316 315 315 315 314 314 314 315 315 316 316 316 316 315 315 314 314 314 315 316 316 317 317 317 317 317 317
329 326 324 323 323 323 322 321 320 320 320 320 319 318 317 316 315 315 315 314 314 313 314 315 315 316 316 316 316 316 316 315 314 315 316 316 316 316 316 316 316 316
328 326 323 321 322 323 323 321 320 319 319 319 319 317 317 317 316 315 316 315 315 314 314 315 315 316 316 315 316 316 317 316 315 315 316 315 315 315 316 315 316 316
329 327 324 322 321 322 323 322 320 319 318 318 318 317 317 317 316 316 316 315 315 315 314 315 316 316 315 315 315 316 316 317 316 316 316 315 315 315 315 315 315 315
328 327 326 326 324 322 323 323 321 319 318 318 318 317 317 318 316 315 316 315 316 315 315 316 316 316 316 315 315 315 316 316 316 316 316 316 316 315 315 315 316 316
326 325 325 327 326 323 324 323 322 320 319 318 318 318 318 318 316 316 316 316 315 315 316 316 316 316 316 316 316 317 316 316 316 316 316 316 317 316 315 316 317 317
325 324 325 326 326 326 325 324 323 323 321 319 319 318 317 318 317 316 316 316 315 315 315 316 316 316 316 317 317 318 318 318 318 318 318 318 318 317 317 317 317 318
326 326 327 327 327 327 326 325 324 324 323 321 320 319 319 318 318 317 317 316 316 316 315 316 316 316 316 317 318 318 319 319 320 320 320 319 319 319 319 319 319 319
327 326 327 327 327 327 326 326 325 324 324 322 321 321 321 319 318 318 318 317 317 317 316 316 316 317 317 317 318 318 319 320 321 322 321 321 322 321 321 321 321 321
326 326 326 326 326 326 326 325 325 324 324 323 323 323 321 320 320 319 318 318 318 318 318 318 318 318 318 317 318 319 320 321 321 322 323 323 323 323 323 322 322 322
325 325 325 325 325 325 325 324 324 324 324 324 323 323 322 322 320 319 319 319 319 318 319 320 320 320 320 321 320 319 320 322 322 323 324 324 324 323 322 321 320 321
324 324 324 324 324 324 324 324 323 323 324 324 324 324 324 324 322 320 321 321 320 320 320 320 321 321 322 323 322 321 321 322 323 324 324 324 324 323 321 320 320 320
319 320 321 322 323 323 323 324 324 323 322 322 322 323 323 324 324 323 322 323 322 321 321 321 322 322 321 321 321 321 322 321 322 324 323 323 323 322 321 321 321 320
314 315 316 317 319 321 321 322 323 323 322 322 321 322 324 324 324 325 324 323 323 323 323 323 323 323 322 320 318 320 322 322 321 322 321 320 321 321 320 320 321 319
312 312 313 314 314 316 317 319 321 322 323 323 323 323 325 324 324 324 324 324 324 324 324 325 324 324 323 321 320 321 322 322 320 319 318 318 319 320 320 320 320 319
309 310 311 312 313 314 314 315 317 319 321 323 323 323 324 324 324 323 323 323 324 324 324 325 324 324 323 322 322 322 322 321 319 318 317 317 319 320 321 320 319 318
306 307 308 310 311 312 313 313 314 315 316 319 321 322 323 323 323 323 322 323 323 323 323 323 323 322 322 322 322 322 322 321 320 318 317 318 319 320 319 318 318 317
305 306 307 308 309 310 311 312 312 313 313 314 316 318 321 322 322 322 321 321 321 321 321 321 321 321 321 321 321 321 321 321 319 318 318 319 319 318 317 317 317 317
304 304 305 307 307 308 309 310 310 311 312 312 312 313 316 318 320 320 321 321 321 321 321 321 321 320 320 321 321 320 320 319 319 318 318 318 317 317 316 315 315 315

ECMWFNIL_925_thetae_039.txt.gz
Theta_e
325 325 324 323 323 323 324 324 324 325 325 326 326 325 325 324 324 325 324 324 324 322 323 322 322 324 325 326 326 326 327 327 326 326 326 325 325 325 325 324 324 325
325 325 325 324 324 324 324 324 323 323 324 326 326 324 324 324 324 324 323 322 321 320 322 322 321 322 324 325 325 326 326 326 325 325 323 320 318 319 319 319 321 323
326 325 324 323 324 324 323 323 323 324 325 325 325 324 323 322 321 321 322 321 320 321 322 321 319 320 322 322 322 323 323 324 324 322 319 316 316 316 315 316 317 319
327 325 324 323 324 324 323 322 324 325 325 325 324 323 320 319 319 320 321 321 321 321 321 319 318 318 319 319 319 320 320 320 320 319 317 317 317 316 316 316 316 315
327 324 323 323 324 324 323 323 324 324 324 324 323 320 318 317 319 320 321 321 320 320 319 318 318 317 318 318 318 318 317 317 317 317 318 319 319 318 317 317 316 316
326 324 324 324 324 324 323 323 323 324 323 323 320 318 317 317 317 318 319 319 318 318 318 317 317 316 316 316 316 316 316 317 317 317 318 319 318 318 317 317 317 317
327 325 324 325 324 323 322 321 322 323 323 321 319 318 317 316 315 315 316 316 316 316 316 316 316 315 314 313 314 315 315 315 316 317 318 318 317 317 317 317 317 316
328 326 325 325 324 323 321 321 321 322 322 321 319 317 317 315 314 314 314 315 315 315 315 315 314 314 313 313 314 314 313 314 315 316 318 317 318 317 317 317 316 315
327 326 325 325 324 322 321 320 320 321 321 320 319 317 316 315 314 314 314 314 314 315 315 315 314 314 314 314 313 313 314 314 315 316 317 318 317 317 317 316 316 315
325 325 325 324 323 322 321 320 320 321 320 319 319 317 316 316 315 314 314 313 314 314 315 315 315 316 315 314 314 315 315 315 316 316 317 317 316 316 317 316 316 315
324 323 324 323 322 322 321 319 320 320 319 319 318 317 317 316 315 315 314 313 313 314 315 315 316 316 315 314 316 316 315 315 316 316 316 316 315 316 316 315 314 314
323 323 323 323 322 322 321 320 319 319 319 319 318 316 317 317 315 315 315 314 314 313 314 315 315 315 315 315 316 316 315 315 315 315 315 315 315 315 315 315 314 313
323 322 321 321 322 322 322 320 319 318 318 319 318 316 317 317 315 315 315 315 314 314 314 315 315 315 314 315 316 316 316 315 315 315 315 315 315 315 315 315 315 315
323 322 322 322 323 324 324 321 319 318 317 318 318 317 317 318 315 315 316 315 315 314 315 315 315 315 315 315 315 315 316 316 315 316 316 316 316 315 316 316 316 316
322 321 323 324 324 324 325 322 321 319 318 318 319 317 317 318 316 315 315 315 315 315 315 316 316 316 315 316 316 316 316 316 316 316 316 317 317 316 316 316 317 317
323 322 323 324 324 324 324 324 323 322 319 318 320 320 318 318 317 317 316 316 315 315 315 316 316 316 316 316 317 317 317 317 318 318 318 318 318 318 317 317 317 317
323 323 323 323 324 324 324 324 323 323 322 320 321 321 320 319 318 318 317 316 315 316 316 317 316 316 316 316 316 317 318 318 319 319 320 320 320 320 319 319 318 318
323 322 322 323 323 323 323 323 321 321 323 323 322 322 321 320 320 320 319 318 316 316 316 317 317 317 316 316 316 317 317 318 319 320 321 321 322 321 320 320 320 319
320 321 321 322 323 322 321 321 321 322 324 324 323 323 322 322 321 320 320 320 319 317 317 317 318 319 318 317 318 318 318 319 320 321 321 322 323 323 322 322 321 319
312 314 316 319 321 321 322 323 323 323 323 324 324 324 323 323 322 322 321 321 321 320 319 319 318 319 319 319 319 319 319 320 321 322 323 323 323 323 323 322 322 320
307 308 309 311 314 316 319 321 323 323 322 322 323 323 323 323 323 323 323 323 323 322 322 321 320 320 320 320 320 320 321 321 321 322 323 323 323 323 322 322 322 322
306 306 307 307 308 310 312 314 317 321 322 322 321 320 320 321 321 322 323 323 324 323 323 323 322 321 321 321 321 321 321 321 321 321 322 321 321 321 321 320 321 321
304 305 305 306 306 308 309 310 311 314 317 319 320 320 320 319 318 319 320 323 324 324 323 323 323 323 322 322 322 322 322 322 321 321 321 320 319 319 319 319 319 319
302 303 303 304 305 306 307 308 309 309 311 312 314 317 319 319 320 318 317 320 323 323 323 323 323 323 323 323 323 323 323 323 322 321 322 320 318 317 318 319 318 317
302 303 303 303 304 304 305 305 306 307 308 308 309 310 312 315 318 320 320 321 322 322 322 322 322 323 323 323 323 322 322 322 322 322 321 319 317 317 318 318 318 318
301 302 302 302 302 303 303 303 304 304 305 305 306 305 305 308 311 315 318 320 321 321 321 321 321 322 322 322 321 321 321 321 321 321 320 319 318 318 318 317 317 318

ECMWFNIL_925_thetae_042.txt.gz
Theta_e
326 326 325 323 323 325 327 327 326 326 326 325 325 325 325 325 324 325 325 324 324 323 323 325 326 326 326 327 327 328 328 328 328 328 327 327 326 326 326 326 327 328
326 325 324 322 324 327 326 326 326 326 326 325 325 324 325 324 324 324 324 323 324 323 322 324 325 325 326 326 327 328 328 328 327 327 327 326 326 326 326 325 325 326
325 323 322 321 324 325 324 324 325 326 326 325 325 325 324 324 323 324 324 323 323 322 321 323 324 325 325 325 326 326 326 325 323 322 322 322 322 323 323 324 325 325
324 323 322 322 323 324 323 324 324 325 326 325 325 324 324 323 323 323 322 321 320 320 320 322 324 325 325 324 325 325 325 322 318 317 317 317 317 318 319 321 320 320
324 323 323 323 324 324 323 323 324 325 325 325 324 324 322 321 321 321 320 320 320 320 319 320 322 323 323 323 323 324 324 321 317 315 316 315 315 316 317 317 316 316
324 324 324 324 323 323 322 323 324 325 325 324 323 321 318 318 320 320 320 321 321 319 318 318 319 320 320 320 319 320 321 319 317 316 316 316 316 315 315 315 315 316
325 324 323 323 323 322 322 323 324 324 324 323 321 317 316 318 320 321 321 321 319 318 318 317 317 318 318 318 318 318 317 317 318 317 317 317 315 315 314 314 315 315
324 324 323 323 323 323 322 323 324 324 323 322 318 316 316 318 319 320 320 319 318 317 317 316 316 316 316 317 317 317 316 317 318 318 318 317 316 315 315 314 315 315
324 323 323 323 323 323 322 323 323 323 322 320 317 316 316 316 316 317 317 317 316 316 316 315 315 314 314 316 315 316 316 316 318 318 317 316 316 317 316 315 315 315
324 323 323 322 322 321 321 322 322 322 321 319 317 316 315 314 314 314 315 315 315 315 315 314 313 313 313 314 314 314 314 316 317 317 317 317 317 317 316 315 315 315
325 324 324 323 321 321 320 321 321 321 320 319 317 316 315 314 314 314 314 314 314 314 315 314 313 313 313 313 313 313 314 315 317 317 317 317 317 316 316 315 315 314
324 324 324 321 319 320 320 320 321 321 320 319 318 316 316 315 314 314 313 314 314 314 315 314 314 314 313 313 314 314 314 315 316 317 317 317 316 316 315 315 314 314
322 323 323 322 320 321 321 320 320 320 319 319 319 317 317 316 315 314 314 313 313 314 315 315 315 315 314 314 315 315 314 315 316 316 317 316 316 316 315 315 314 314
321 322 323 322 320 321 322 321 319 320 319 319 319 317 316 317 315 314 314 314 313 314 315 315 315 315 314 315 315 315 315 316 316 316 316 315 315 315 314 314 313 313
321 322 322 320 319 321 323 323 320 319 319 319 319 317 316 317 316 314 315 315 313 313 314 315 315 314 314 315 316 315 315 315 315 315 315 315 315 314 314 314 314 314
321 322 321 320 321 322 323 323 321 320 319 319 319 317 316 317 316 314 315 315 315 314 313 314 315 314 314 314 315 316 315 315 314 315 315 315 314 314 314 315 315 315
321 321 321 321 322 323 323 322 321 321 321 321 321 320 319 318 317 316 315 315 315 314 314 314 314 315 315 314 314 315 315 315 315 315 315 315 315 315 315 316 316 316
321 321 321 321 322 322 321 322 322 322 322 322 321 321 321 320 319 318 318 317 316 315 315 315 315 315 315 315 315 315 315 316 316 315 316 316 316 316 316 316 316 316
318 320 321 321 321 321 321 321 321 322 322 322 321 322 322 322 321 320 320 319 318 317 316 315 315 316 316 315 315 316 316 317 317 317 317 317 317 317 317 317 316 316
309 312 314 316 317 318 318 319 320 321 320 320 320 320 321 322 322 322 322 321 320 319 319 318 317 317 317 316 315 316 317 317 317 318 318 318 318 318 318 318 318 318
304 304 306 307 308 308 310 312 316 318 320 320 320 320 320 321 321 321 322 321 321 321 321 320 320 319 319 318 317 317 317 317 317 318 319 319 319 319 319 320 320 320
302 303 303 304 304 305 305 306 308 310 312 314 314 315 316 318 319 319 320 320 321 322 322 322 322 321 321 321 320 320 320 319 319 319 320 320 321 321 321 321 320 321
301 302 302 302 303 303 303 304 304 304 305 306 306 307 308 309 310 313 316 318 320 321 322 322 322 323 323 322 322 322 322 321 321 321 321 321 321 322 322 321 319 320
300 301 301 301 301 302 302 302 303 303 303 303 303 304 304 304 304 306 308 311 314 317 320 321 322 323 323 323 322 322 322 323 322 322 321 321 320 320 320 320 319 320
300 300 300 300 300 300 301 301 301 302 302 303 303 303 303 303 303 304 305 306 308 310 313 316 319 321 322 321 322 322 322 322 323 323 322 321 321 320 319 319 319 320
300 300 300 300 300 300 300 300 300 300 301 301 302 302 302 302 303 303 304 304 305 306 307 309 313 317 320 321 321 321 321 321 322 322 322 321 321 320 318 318 318 318

ECMWFNIL_925_thetae_045.txt.gz
Theta_e
328 327 326 326 328 328 327 326 326 326 325 325 325 325 325 325 325 325 325 324 325 325 325 325 324 325 326 327 328 328 328 328 328 328 328 328 327 326 327 328 329 329
326 326 325 325 326 326 324 324 325 326 326 325 325 325 325 325 325 325 324 324 324 324 324 325 324 323 324 326 327 328 328 328 327 327 327 327 326 326 327 327 328 329
326 325 324 325 325 324 324 325 325 325 325 325 324 324 324 324 324 324 324 323 323 323 323 326 325 322 323 325 327 328 328 327 327 327 327 326 325 325 326 327 328 328
325 325 325 324 323 323 325 326 326 326 326 325 325 324 324 323 323 323 323 323 323 322 322 325 325 322 323 325 327 327 327 327 326 325 325 325 324 324 325 325 327 327
325 325 324 323 323 325 327 326 325 326 326 325 325 324 324 323 323 323 323 322 322 321 321 324 325 323 323 325 326 325 322 321 321 321 321 321 321 322 323 324 325 326
325 324 323 322 324 326 325 324 325 325 325 325 324 324 324 323 322 321 321 321 320 320 321 324 325 324 323 323 325 324 320 316 316 317 317 318 319 319 319 320 323 324
324 323 322 322 324 324 323 323 324 324 325 325 324 324 322 321 320 320 320 320 319 319 320 322 324 324 323 322 322 324 322 317 315 316 316 317 317 316 316 316 320 323
323 322 322 323 323 324 323 323 323 324 325 324 323 321 319 318 319 320 320 320 319 318 318 319 320 321 321 320 319 321 321 318 316 316 315 316 315 315 315 316 318 322
323 322 323 323 323 323 323 323 324 324 324 323 321 318 317 318 319 319 320 320 318 318 317 317 317 317 318 318 318 318 318 318 317 316 315 315 315 315 315 316 317 320
323 323 323 323 323 323 323 323 324 323 323 321 318 315 317 318 318 318 318 318 317 317 316 316 315 315 316 316 317 316 316 317 318 317 316 315 314 314 315 315 316 317
323 322 322 322 323 323 323 323 323 322 321 319 316 315 316 316 315 315 316 316 316 316 316 315 314 313 314 315 316 316 315 316 317 317 316 316 316 315 315 315 315 315
323 322 322 322 322 322 322 322 322 321 320 319 316 314 314 314 313 313 313 314 314 314 314 314 314 312 313 314 314 314 314 315 317 317 316 316 317 316 315 315 314 314
323 323 322 321 320 320 319 320 321 321 320 319 317 315 314 314 314 313 313 313 313 314 314 314 313 313 313 313 313 313 313 314 316 317 317 317 317 316 315 314 314 314
321 322 322 321 320 318 317 319 321 320 319 319 318 317 315 315 315 314 313 313 313 314 314 314 313 314 314 313 313 313 313 313 315 317 317 317 317 316 315 315 314 314
320 321 321 322 321 319 318 320 320 319 319 319 319 318 317 316 316 315 314 313 313 313 314 314 314 315 315 314 314 314 314 314 315 316 316 317 317 316 315 315 314 314
321 321 321 322 322 321 321 321 320 319 319 319 319 318 317 316 316 316 315 314 314 313 313 314 314 315 315 314 314 315 314 314 315 315 316 316 316 316 315 315 314 314
320 320 320 321 322 322 322 321 320 320 320 320 320 319 318 317 317 317 315 314 314 314 313 313 313 314 314 314 314 314 315 315 315 315 315 315 315 315 315 314 314 313
320 320 320 321 321 321 321 321 320 320 321 321 321 321 320 320 319 319 318 317 315 315 314 314 313 314 314 313 313 314 314 315 314 314 314 314 315 315 314 314 314 314
315 316 316 317 318 319 320 320 320 320 321 321 320 321 321 321 321 321 321 321 320 318 316 315 314 314 314 314 313 314 314 314 314 314 314 314 314 315 315 314 314 314
306 307 307 308 310 313 314 315 316 317 319 319 319 319 319 320 320 320 321 321 322 321 320 318 316 315 315 315 314 314 314 314 314 314 314 314 314 314 314 315 315 315
302 303 303 303 304 305 307 307 308 310 311 311 311 312 312 313 314 316 317 319 320 321 321 321 321 319 318 317 316 315 315 314 314 314 314 314 315 315 315 315 315 315
301 301 301 302 302 303 303 303 303 304 305 305 305 305 306 307 308 309 311 313 316 318 319 321 322 322 322 321 320 318 316 315 314 314 314 315 315 315 316 316 316 317
299 300 300 300 301 301 301 301 301 302 302 303 303 304 304 304 305 305 305 307 310 312 315 317 319 320 321 322 322 322 320 319 317 316 315 316 316 317 317 317 317 317
299 299 299 299 299 300 299 299 300 300 300 301 301 302 302 302 302 303 303 304 305 307 308 311 314 316 317 318 320 321 322 322 321 320 319 318 319 319 319 319 319 319
299 299 299 299 299 299 299 299 299 299 299 299 300 300 300 301 301 302 302 302 303 304 304 306 308 310 311 312 314 318 320 321 322 321 321 321 321 321 321 320 319 319
298 298 298 298 298 298 298 298 298 298 298 299 299 299 299 300 300 300 301 301 302 302 303 303 304 306 307 307 309 311 315 318 319 320 321 321 322 322 322 320 319 319

ECMWFNIL_925_thetae_048.txt.gz
Theta_e
334 332 329 328 328 327 327 328 327 326 325 324 325 325 325 326 325 325 324 324 325 326 325 324 325 326 327 328 328 328 329 329 329 329 329 328 328 329 328 327 328 328
333 332 330 328 328 328 327 327 326 325 325 325 325 325 325 325 325 325 324 324 325 325 325 324 324 326 326 326 327 327 328 328 328 328 328 328 328 327 327 326 327 328
332 331 330 328 327 328 328 327 326 325 325 325 325 324 325 325 325 324 324 324 324 324 324 324 325 324 325 326 326 327 327 327 327 327 327 327 327 326 326 326 326 328
330 330 329 327 326 328 328 326 325 325 325 325 324 324 324 324 324 324 324 323 323 323 322 324 325 323 323 325 326 327 328 327 327 327 326 326 326 325 326 326 326 328
328 328 326 325 325 327 326 325 325 325 325 325 324 324 323 323 323 323 323 323 323 322 321 323 325 323 321 324 326 326 326 326 326 325 325 325 325 325 325 326 327 328
326 326 324 324 325 325 324 324 325 326 325 324 324 324 323 323 323 322 322 322 322 322 321 321 324 324 322 323 325 324 321 319 320 320 321 322 323 323 324 325 326 327
325 325 324 324 324 323 324 325 326 325 325 325 325 324 324 323 323 322 322 321 321 320 320 320 323 324 322 322 324 324 321 318 315 316 317 318 319 320 321 323 325 326
325 325 324 324 323 323 324 325 325 324 325 325 324 324 324 322 321 320 320 320 319 319 319 321 324 324 323 323 322 322 322 321 316 315 316 317 318 317 317 319 322 324
325 324 324 323 323 324 324 323 323 324 324 325 324 324 322 320 319 319 320 319 318 318 318 319 321 322 322 322 321 319 320 321 317 315 316 317 316 315 315 315 318 322
324 323 323 322 323 323 323 322 323 323 324 324 324 321 319 318 319 319 319 319 318 318 317 317 317 318 318 319 319 318 318 319 317 315 315 315 314 314 315 315 318 322
323 322 322 322 323 323 323 323 323 324 324 323 320 318 317 318 319 319 319 319 318 317 316 316 315 315 315 315 317 317 316 317 317 316 315 315 315 314 315 315 317 321
322 322 322 323 322 322 321 322 323 323 322 319 317 316 316 316 317 317 316 316 316 316 316 315 315 314 313 314 315 316 316 316 317 317 316 315 315 314 314 315 316 318
321 321 322 322 322 321 320 320 321 321 319 317 316 315 315 314 314 314 314 313 314 315 314 314 315 314 312 313 314 315 314 314 315 316 317 316 315 315 315 314 315 316
320 321 321 321 321 321 320 320 320 320 319 318 317 316 315 314 314 313 313 313 313 313 313 314 314 313 313 313 313 313 313 313 314 315 316 316 316 316 315 314 314 314
320 320 320 320 321 321 319 317 317 319 320 318 317 318 317 315 315 314 314 314 313 313 313 314 314 313 313 314 313 313 313 313 313 314 316 317 316 316 315 315 314 314
319 319 319 318 318 318 317 316 316 317 319 319 317 318 318 317 316 316 315 316 315 314 313 313 313 313 314 314 314 314 314 314 314 314 315 316 316 316 316 315 315 314
320 320 319 318 318 318 318 318 318 319 319 319 318 319 319 317 317 316 316 315 315 314 314 313 313 313 314 314 315 314 314 314 314 314 314 315 315 316 316 316 315 315
319 319 319 319 319 319 319 319 320 320 320 320 320 320 320 319 319 319 318 317 316 315 314 314 313 313 313 313 314 314 314 314 314 314 314 314 315 315 315 315 315 315
316 317 318 318 318 318 319 319 319 319 319 319 319 319 320 320 319 320 320 319 319 318 318 317 315 314 314 313 313 313 313 314 314 314 314 315 315 315 315 314 314 314
309 311 311 312 313 314 315 315 314 313 313 314 314 315 316 316 316 316 318 319 320 321 321 320 319 318 317 316 315 315 314 313 313 314 314 315 315 314 314 314 314 314
303 304 305 305 307 308 309 308 307 307 307 307 308 308 309 310 310 310 312 313 316 318 319 320 320 321 320 320 319 318 317 315 314 313 313 314 314 314 314 314 314 314
300 301 301 302 303 304 304 303 304 304 304 304 305 305 305 305 306 306 306 307 309 312 313 314 315 317 319 320 321 320 320 319 317 316 315 314 313 313 314 314 314 314
299 299 300 300 300 300 300 300 301 301 301 302 303 304 304 303 303 303 303 304 305 306 307 307 308 309 312 314 317 319 320 321 321 320 319 318 316 315 314 314 314 314
298 298 298 298 298 299 298 298 299 299 299 299 300 301 302 301 300 301 301 302 302 303 303 303 304 304 306 307 309 312 315 318 320 321 321 321 320 320 318 317 317 317
298 298 298 298 297 298 298 298 298 298 298 298 298 298 299 299 299 299 300 300 300 301 301 301 302 302 303 304 304 306 308 310 313 316 319 321 322 321 321 320 319 319
297 297 297 297 297 297 297 297 297 297 297 297 297 298 298 298 298 298 298 298 299 299 299 300 300 300 301 301 302 302 303 304 306 308 311 314 317 319 320 320 319 319

ECMWFNIL_925_thetae_051.txt.gz
Theta_e
331 332 331 331 331 330 329 329 328 328 326 324 324 324 324 325 325 324 324 325 325 325 326 326 326 326 327 328 328 329 330 330 330 330 330 330 329 329 329 328 328 329
332 331 330 330 329 328 328 328 328 327 325 324 325 324 325 325 325 324 324 324 325 326 326 325 325 324 325 327 327 328 328 328 329 329 329 329 329 329 329 328 328 328
332 331 329 328 327 327 328 328 327 326 324 324 325 325 325 325 325 325 324 324 325 325 325 325 324 323 324 325 326 326 327 327 328 328 328 328 328 327 327 327 328 328
333 331 329 327 327 327 327 327 326 325 325 324 324 324 325 325 325 325 324 324 324 323 323 324 324 323 323 325 326 326 327 327 327 327 327 327 326 325 326 327 328 328
332 331 329 328 328 327 327 326 325 325 325 324 324 324 324 325 324 324 323 323 322 322 322 323 324 323 322 324 326 326 326 327 326 326 326 325 325 324 325 326 327 328
331 330 329 328 328 328 327 326 325 325 325 324 324 324 324 324 323 323 323 323 322 322 321 322 324 324 322 323 324 322 320 321 322 323 324 323 324 324 324 325 327 328
329 329 329 328 328 328 327 326 325 325 325 324 324 324 323 323 323 322 322 322 322 322 321 320 323 324 322 323 323 321 320 318 317 317 319 320 320 322 323 324 326 327
327 327 327 327 327 327 326 324 324 325 325 325 324 324 323 323 323 322 321 321 320 320 320 321 323 324 323 323 323 322 322 321 317 315 316 318 318 320 321 323 325 326
326 325 324 325 325 325 324 324 325 325 325 325 324 324 323 322 321 320 320 319 319 319 320 322 323 324 324 323 323 320 319 321 319 315 315 317 317 317 317 320 323 325
324 323 323 324 323 323 324 325 325 325 324 324 324 323 322 320 319 319 319 318 318 318 318 319 320 321 321 321 320 319 317 319 320 316 315 316 316 315 315 316 319 323
323 323 323 323 323 324 325 325 324 324 324 324 323 321 318 317 318 319 319 319 318 317 317 316 316 316 316 316 317 318 317 317 318 317 315 315 315 314 315 315 317 321
322 322 322 323 323 323 323 323 324 323 323 321 319 318 317 317 318 317 318 318 317 317 316 316 315 314 313 314 315 317 316 316 317 317 316 315 315 314 314 314 316 319
321 321 322 322 322 322 322 322 322 321 319 318 317 318 318 318 318 316 315 316 315 315 315 315 315 314 313 313 314 315 316 315 315 316 316 316 315 315 314 314 314 316
321 321 320 320 320 320 320 320 319 318 317 316 316 317 317 316 316 315 314 314 314 314 314 314 314 314 313 313 313 314 314 314 313 314 316 316 316 315 315 314 314 314
320 320 320 319 320 319 319 318 317 316 315 314 314 315 316 315 315 315 315 314 314 313 313 313 313 314 313 313 314 313 312 313 313 313 315 316 316 316 316 315 314 314
319 319 319 319 319 319 319 318 317 316 316 315 314 314 314 313 314 316 316 315 315 315 314 313 313 313 313 313 314 314 313 313 314 313 314 315 316 316 316 315 314 314
318 318 318 318 318 317 317 317 317 317 317 317 315 314 314 315 315 317 317 316 315 315 314 314 313 313 313 313 314 314 314 314 314 314 314 315 316 316 316 316 316 315
317 317 317 317 317 317 317 317 317 318 319 318 318 317 317 318 318 318 318 317 316 316 315 315 315 314 313 313 313 313 314 314 314 314 314 314 315 315 315 316 316 316
317 316 316 316 316 317 317 317 318 318 317 317 316 317 318 318 318 319 319 319 319 318 317 317 317 317 316 315 314 313 313 313 314 314 314 314 314 314 315 315 315 315
315 314 313 313 313 314 314 314 313 312 312 312 311 312 314 315 315 316 317 318 319 318 317 317 317 317 318 318 317 316 315 314 313 313 314 314 314 314 314 315 315 314
310 310 308 308 308 309 308 308 307 306 306 307 307 308 309 309 310 310 311 312 313 314 314 313 313 314 316 318 319 319 318 317 316 315 314 313 314 314 314 314 314 314
305 306 306 305 306 306 304 303 303 303 303 304 304 304 304 304 305 305 306 306 307 308 309 309 308 309 312 314 316 318 319 320 319 319 317 316 315 314 314 314 314 313
301 302 302 302 303 302 301 300 300 301 302 303 304 303 303 303 302 301 302 303 303 304 304 304 305 306 307 309 311 313 315 317 318 319 320 320 319 319 318 317 316 315
298 299 299 299 299 299 298 298 298 299 299 301 302 302 304 305 303 300 300 301 301 301 301 301 302 302 303 304 306 307 309 311 312 313 315 317 318 319 320 320 320 319
297 297 297 297 297 297 297 297 297 297 297 298 298 298 300 302 302 299 298 299 299 299 299 300 300 300 301 301 302 303 304 305 306 307 308 310 311 313 315 317 318 320
297 297 297 297 297 297 297 297 297 297 297 297 297 297 297 297 298 297 298 298 298 298 298 298 298 298 299 299 300 301 301 302 302 303 303 304 305 306 308 309 311 313

ECMWFNIL_925_thetae_054.txt.gz
Theta_e
332 333 333 333 334 333 332 332 331 330 329 329 329 329 329 329 329 329 329 329 328 328 329 329 328 328 329 330 332 332 332 332 332 331 331 330 330 331 330 330 330 329
331 333 333 333 334 333 332 331 330 330 329 329 328 328 328 328 328 328 329 329 328 328 328 328 328 328 327 328 330 331 332 332 332 331 331 331 331 331 331 330 330 329
331 332 332 332 333 333 332 331 330 330 329 329 329 328 328 328 328 328 329 329 328 328 328 328 327 327 326 327 329 329 330 332 333 332 331 331 331 331 331 331 330 330
330 332 332 332 332 332 332 331 330 330 329 329 329 328 328 328 327 327 328 328 327 327 327 327 327 326 326 327 327 327 328 329 331 331 331 331 331 331 331 331 330 330
331 332 332 331 331 331 330 330 330 330 329 329 328 328 327 327 327 326 326 327 327 327 327 327 326 326 325 326 326 326 327 327 329 330 330 330 330 331 331 331 331 330
332 332 331 330 329 329 329 329 329 329 329 328 328 327 327 327 326 325 325 326 325 326 326 326 326 326 325 325 325 325 325 326 327 328 327 327 327 329 330 330 331 331
331 331 330 329 328 329 329 329 328 329 329 328 328 328 327 326 325 324 324 325 325 325 325 325 326 325 325 325 325 325 324 324 325 325 325 324 325 326 328 330 331 330
331 330 330 329 329 330 329 328 328 329 328 328 328 327 326 326 325 325 324 324 324 324 323 324 325 324 324 325 324 324 324 324 323 323 324 324 324 324 326 330 331 330
331 329 329 330 330 330 328 328 328 328 328 329 327 327 326 326 325 324 323 322 322 323 323 324 324 324 324 324 324 324 324 324 323 322 323 323 323 322 323 327 331 331
329 328 329 330 330 330 329 328 328 327 328 328 327 326 325 325 323 322 321 322 322 322 323 324 324 323 324 323 323 323 323 323 322 322 322 322 321 321 322 324 329 331
329 330 331 331 330 329 328 328 328 327 327 327 326 325 324 322 321 320 320 321 320 320 321 322 322 322 322 322 322 322 322 322 322 321 321 322 320 320 321 323 327 330
331 331 331 330 329 328 327 327 327 327 327 326 324 323 321 320 320 320 319 319 319 318 318 318 318 318 318 319 320 320 320 322 323 322 321 321 321 320 320 322 325 329
330 330 329 329 328 327 327 326 326 326 325 323 322 321 321 320 320 319 319 318 317 317 317 317 316 316 316 316 317 319 319 320 322 322 321 320 320 320 320 320 322 327
328 327 327 328 327 326 326 325 325 323 322 321 320 321 320 319 319 318 318 317 317 317 317 316 316 316 316 316 316 317 318 319 320 322 321 320 320 320 320 319 320 322
324 324 325 326 326 326 325 324 324 322 322 322 321 320 319 319 318 318 318 317 317 316 316 317 318 318 317 317 318 317 317 317 318 319 321 321 320 319 319 319 319 320
322 322 322 323 324 324 322 321 320 319 319 319 319 320 320 319 319 319 319 318 318 319 319 319 318 317 314 315 316 317 318 318 317 317 318 320 320 319 319 319 319 319
322 321 321 321 321 320 318 316 315 315 316 315 316 317 316 315 316 318 320 321 321 320 319 316 314 314 313 313 314 315 317 319 319 318 317 318 319 319 319 318 319 319
321 321 320 319 318 317 316 315 315 316 317 316 316 315 314 314 315 317 319 320 318 317 316 315 314 313 313 313 313 314 315 316 318 319 318 318 318 319 319 319 318 319
318 318 317 317 317 317 316 317 317 317 317 317 316 316 316 317 318 319 319 318 316 315 315 316 316 315 315 314 313 313 313 314 317 319 318 318 319 319 319 320 319 319
314 314 314 314 314 315 315 316 315 315 315 316 316 317 318 318 318 318 318 316 314 313 314 315 316 317 318 317 316 315 313 313 317 319 318 319 320 320 320 320 320 320
310 310 310 310 310 311 312 312 311 310 311 312 313 315 315 315 315 315 315 314 313 311 311 312 312 314 317 318 318 318 316 317 318 319 319 319 320 320 320 320 320 320
307 306 306 307 307 307 308 307 307 307 307 308 308 309 310 310 310 310 311 312 312 310 308 307 307 310 312 315 317 318 319 320 322 322 321 322 322 321 321 320 320 320
305 304 304 304 305 305 305 305 304 304 304 304 304 304 304 304 305 306 306 307 308 309 307 305 304 306 307 309 312 315 316 318 320 322 322 323 324 323 322 322 322 320
303 303 303 303 302 302 303 303 304 305 305 305 305 305 304 303 303 303 302 303 304 305 305 304 303 303 304 306 307 309 311 314 315 318 320 320 322 323 323 323 323 320
302 302 302 301 301 301 301 301 301 302 303 303 304 305 304 303 303 303 303 302 301 300 301 302 302 301 301 302 303 304 306 309 312 314 315 315 316 317 319 320 321 321
301 302 302 302 302 302 301 301 300 300 300 300 301 302 302 302 303 303 303 303 301 300 299 299 300 300 299 298 300 300 300 304 307 309 309 310 311 312 313 315 317 318

ECMWFNIL_925_thetae_057.txt.gz
Theta_e
333 333 335 334 332 332 331 329 330 331 331 330 330 331 331 331 331 331 331 330 330 330 330 330 330 332 333 334 334 333 332 333 332 332 332 332 332 332 332 331 330 331
333 333 334 334 332 332 331 330 330 330 330 330 330 330 330 330 330 331 330 330 330 329 330 330 329 330 330 331 334 333 332 332 332 332 332 332 332 332 331 331 331 331
333 332 333 333 332 333 333 331 330 330 330 330 330 329 329 329 329 330 330 330 329 329 329 329 329 329 328 329 332 333 332 331 331 332 332 332 332 332 331 331 332 333
333 333 333 332 331 332 333 331 330 330 330 330 330 329 329 329 329 329 330 330 329 329 329 329 328 328 327 328 330 330 331 332 331 332 332 332 332 332 332 331 332 332
332 332 332 331 332 333 333 331 330 330 331 330 329 329 329 329 328 329 329 329 328 329 329 328 328 327 327 328 328 328 329 330 332 332 332 332 332 332 331 330 330 330
331 332 331 330 332 333 332 331 331 331 331 330 329 328 328 328 327 327 328 327 326 327 327 328 328 327 327 327 327 328 327 328 329 330 330 330 331 331 331 330 331 331
331 332 330 329 331 332 331 331 330 330 330 329 328 327 327 327 327 326 327 326 325 325 325 326 327 327 327 327 327 327 327 326 327 327 326 326 327 328 329 330 331 331
332 332 330 329 330 331 330 329 330 330 329 329 328 328 327 326 326 326 326 326 326 326 325 325 326 326 326 326 326 326 326 325 325 325 324 325 325 326 328 330 332 330
333 333 331 330 329 329 329 329 329 330 329 329 328 327 327 326 326 325 325 326 326 326 325 325 325 324 325 325 326 326 325 325 324 324 324 325 325 324 325 329 331 330
333 333 331 329 329 329 328 328 329 330 329 329 328 327 327 327 326 324 324 324 324 324 324 325 324 324 325 325 325 325 325 324 324 324 324 324 324 323 323 326 329 329
333 333 332 329 329 329 328 328 330 330 330 329 328 327 327 326 324 323 323 323 323 323 324 324 324 323 324 324 324 324 324 324 323 323 324 323 322 323 322 324 328 329
331 331 332 331 330 329 328 329 330 330 330 329 327 326 325 323 321 321 321 321 321 322 322 323 323 323 323 323 323 323 323 324 323 322 323 323 322 322 322 324 326 329
327 328 331 332 330 329 329 329 329 329 329 327 325 323 321 320 320 321 320 320 319 319 319 320 319 319 320 320 321 321 322 323 324 323 322 322 322 322 323 324 325 328
327 328 330 331 330 330 329 328 328 328 327 324 323 322 320 320 321 320 320 320 319 319 319 318 318 318 318 318 319 320 321 322 323 323 322 322 322 322 322 323 324 327
327 327 328 329 329 329 328 327 327 326 324 323 322 322 321 320 320 319 319 319 318 318 318 319 321 320 318 318 319 319 320 320 322 323 322 321 322 322 322 322 322 324
326 327 327 327 327 326 326 326 325 323 322 321 321 321 321 320 319 318 318 317 317 319 320 322 322 320 317 317 319 319 319 319 319 320 322 321 321 320 321 322 322 323
325 326 326 325 326 326 326 326 325 324 323 322 323 323 323 322 322 321 320 320 322 322 320 318 317 316 314 315 316 318 320 321 319 319 320 320 320 320 320 321 322 321
324 324 324 324 325 325 324 324 324 324 322 321 321 320 320 321 323 323 323 323 322 321 317 314 313 313 312 313 314 315 316 319 320 319 319 320 320 320 319 320 321 321
324 323 322 322 321 320 319 318 318 318 318 318 317 316 317 319 321 322 321 319 318 316 315 314 314 313 313 313 313 313 314 316 318 319 318 318 319 319 319 319 319 320
321 321 320 319 317 316 316 315 315 315 316 317 317 317 319 321 321 319 317 315 315 315 314 315 315 315 315 314 313 314 313 313 317 320 319 318 320 320 320 320 320 320
319 318 317 316 315 315 315 315 315 316 316 317 317 317 318 319 319 318 315 314 313 314 315 315 315 316 318 317 315 315 314 313 317 321 319 318 320 320 320 321 321 321
313 313 313 313 313 314 314 313 314 314 314 314 314 314 314 315 316 316 315 313 312 312 312 311 312 314 317 318 317 317 317 318 320 321 320 319 320 320 320 320 320 320
308 309 309 310 310 311 311 311 311 311 311 312 312 311 311 311 312 312 313 313 312 311 308 307 309 311 313 315 316 317 318 320 320 321 321 322 322 322 321 320 321 321
306 306 307 307 307 308 308 308 309 308 309 310 310 309 310 309 308 308 309 310 311 310 308 305 305 307 308 309 311 313 315 316 317 318 320 322 323 324 323 322 323 323
305 305 305 305 305 306 305 306 306 306 307 308 308 308 308 308 307 307 307 306 305 306 307 306 304 302 303 304 305 306 309 313 314 315 317 318 318 319 321 321 322 322
305 305 305 305 306 306 305 305 305 305 306 306 306 306 306 307 307 307 307 306 304 302 302 302 301 300 299 300 301 301 303 307 311 312 312 313 313 314 315 316 318 320

ECMWFNIL_925_thetae_060.txt.gz
Theta_e
333 334 334 333 334 332 331 333 333 331 330 330 331 331 332 333 334 333 333 332 332 331 331 331 333 334 334 333 334 334 333 333 333 333 332 332 332 332 333 333 332 332
334 334 333 333 333 331 331 331 330 330 330 330 330 331 332 333 333 332 331 331 331 331 331 331 332 333 333 333 333 332 333 333 332 332 332 332 332 332 333 333 331 331
334 334 333 333 332 330 330 329 329 329 329 329 330 331 331 332 332 332 331 331 330 330 331 330 330 331 331 331 333 332 332 332 331 332 333 332 332 333 333 333 331 330
334 334 334 333 331 330 330 329 329 329 329 330 331 330 331 330 330 331 331 330 330 330 330 329 329 329 329 330 332 331 332 332 331 332 333 332 332 333 333 331 331 331
334 334 334 333 332 331 330 330 330 330 330 330 330 329 330 330 329 330 330 330 329 330 330 329 329 328 328 329 330 330 331 331 331 332 332 332 332 332 332 332 332 332
334 334 334 333 333 331 331 331 331 330 330 330 329 329 329 329 329 330 330 329 329 329 329 329 329 328 328 328 328 329 329 330 331 331 331 331 330 331 332 332 332 332
333 333 333 333 332 331 331 331 331 331 330 330 329 329 329 328 329 329 329 327 327 328 328 328 328 327 327 328 328 328 328 328 329 329 329 328 329 331 331 331 331 331
333 332 332 331 331 330 329 330 331 331 330 329 328 328 328 328 328 328 327 326 326 326 327 327 328 327 327 327 327 328 327 327 327 327 326 326 327 328 329 330 331 330
332 331 331 330 329 329 329 330 331 330 329 329 327 327 327 327 327 327 327 326 326 326 326 326 326 325 326 326 326 326 326 325 325 325 325 325 325 326 327 329 331 330
331 330 329 328 328 328 329 330 330 330 329 328 327 326 327 327 326 326 326 326 326 326 326 325 324 324 324 325 325 325 326 324 324 325 325 325 325 324 325 328 330 330
331 329 328 328 327 327 329 330 329 329 329 328 327 327 327 326 326 325 325 325 325 325 325 324 324 323 323 324 324 324 325 323 323 324 324 324 323 323 324 325 328 329
331 328 327 327 326 327 329 330 330 329 329 328 327 327 326 325 324 324 324 323 323 324 324 324 323 323 323 323 323 323 324 324 322 323 323 323 322 322 323 325 327 329
329 328 326 326 327 327 328 329 329 329 328 328 326 325 324 323 322 322 322 322 322 323 323 322 322 322 322 322 322 321 322 324 324 323 322 322 321 322 323 325 327 328
327 327 326 326 327 328 329 329 329 328 327 326 325 323 322 321 321 321 320 320 320 320 320 320 319 319 319 320 321 321 321 323 324 323 322 322 322 322 323 324 325 327
326 326 326 327 327 328 329 329 328 326 325 323 322 321 321 321 321 320 320 319 320 321 321 320 319 318 318 317 319 320 321 322 323 323 323 322 322 322 322 323 324 326
325 326 327 328 328 328 329 329 327 326 323 322 321 321 321 320 320 320 320 320 322 322 321 321 320 318 316 317 318 319 320 321 321 321 322 321 321 321 321 322 323 323
326 327 327 327 327 328 328 327 325 324 323 323 322 321 321 321 321 322 322 322 322 321 320 320 319 318 316 316 317 318 319 320 320 320 321 321 321 320 320 321 322 322
326 326 326 326 326 326 326 325 324 324 324 324 323 324 324 324 324 323 323 322 321 319 317 315 314 315 315 314 316 317 318 320 319 319 320 320 320 320 320 320 322 321
324 324 324 324 324 325 325 324 323 323 323 323 323 323 323 322 322 321 321 320 318 316 314 313 312 312 312 312 313 314 316 318 318 319 320 319 319 320 319 319 320 321
322 321 321 321 321 322 321 321 321 320 319 319 319 319 319 319 318 318 318 318 316 315 314 314 314 313 313 312 312 312 313 314 317 320 320 319 320 320 320 320 321 321
319 318 318 318 318 318 318 318 318 317 317 317 317 318 319 318 317 316 315 315 314 314 314 314 315 315 315 314 314 313 312 312 314 318 319 319 319 320 321 321 321 321
316 315 315 315 315 315 315 316 316 317 317 317 318 318 318 318 316 315 313 312 312 312 312 313 314 315 315 316 315 315 316 316 317 319 320 319 319 319 319 320 320 320
313 313 314 313 313 313 313 314 314 315 315 316 316 316 316 315 315 314 312 311 310 309 309 310 311 312 312 315 316 317 318 318 318 319 321 321 321 321 321 320 321 322
310 311 312 313 312 312 312 312 312 312 313 314 314 314 313 313 313 313 312 311 309 307 307 306 307 306 308 310 313 314 316 316 315 317 319 319 319 320 322 321 321 322
308 308 309 310 310 310 310 311 311 310 311 311 311 311 311 311 312 312 311 309 308 307 306 304 302 302 303 305 306 309 311 313 314 315 316 316 315 315 318 321 321 321
306 307 307 307 307 307 308 308 308 308 308 309 309 309 309 309 309 309 308 306 304 303 302 300 299 299 299 299 300 302 304 308 311 311 311 312 311 310 313 317 319 319

ECMWFNIL_925_thetae_063.txt.gz
Theta_e
335 334 334 334 333 333 333 332 331 331 331 331 332 332 333 333 333 333 333 333 332 332 332 332 332 333 333 333 334 334 334 333 332 332 331 331 331 331 331 331 331 332
335 334 334 334 333 333 332 330 330 331 331 331 331 332 333 334 334 333 333 332 332 331 331 331 333 333 333 333 333 333 333 333 333 333 332 331 331 332 332 332 332 331
335 335 334 334 334 332 331 330 330 331 330 331 331 332 333 333 333 333 332 331 331 331 331 331 333 334 333 333 333 332 333 333 333 333 332 331 332 332 333 333 332 331
334 334 334 334 334 332 331 331 331 331 330 330 332 333 333 333 332 331 331 331 330 330 330 330 331 332 332 332 332 332 332 332 332 332 332 332 332 332 333 333 332 331
334 334 334 334 333 332 332 332 331 329 329 331 333 332 332 332 331 330 330 330 330 330 330 329 330 330 330 331 332 332 332 332 332 332 332 332 332 332 333 333 331 331
334 334 333 333 332 332 331 331 330 329 330 332 332 331 331 331 331 330 330 330 329 329 329 329 328 328 329 329 330 331 331 331 331 332 333 332 332 332 332 331 331 331
333 333 333 332 331 330 330 329 329 330 331 331 330 330 330 330 330 330 330 329 329 329 329 328 328 328 328 328 329 330 329 330 330 331 332 331 331 332 331 331 331 331
331 330 332 332 330 330 329 330 330 331 330 330 329 329 329 329 329 329 329 328 328 328 328 328 327 327 327 327 328 328 328 329 329 330 330 329 330 331 331 331 331 332
328 328 331 331 330 330 331 331 330 330 329 329 329 328 328 329 328 328 328 327 327 328 327 327 327 326 326 327 327 326 327 327 327 327 327 327 328 329 329 330 331 331
327 328 329 330 330 331 331 330 329 329 329 328 327 327 328 328 327 327 327 326 327 327 326 325 326 325 325 327 326 325 326 325 325 326 326 326 326 326 327 329 329 328
327 327 327 327 329 330 330 329 328 328 328 326 326 327 327 327 326 326 326 325 326 326 325 325 324 323 325 326 324 324 325 323 324 325 323 323 324 324 326 329 329 328
327 327 326 326 328 330 330 329 328 328 326 326 326 327 327 326 326 326 326 325 325 325 324 324 323 322 324 324 323 324 324 323 323 323 322 322 323 323 326 328 329 329
327 326 326 326 328 329 329 329 328 327 326 326 327 326 325 325 325 325 324 324 324 324 323 323 322 322 322 322 321 322 323 323 323 323 322 322 322 324 325 326 328 328
327 327 325 325 328 330 329 329 329 327 327 327 326 325 324 324 323 323 322 322 322 321 321 321 321 321 321 321 321 321 322 323 323 322 322 322 322 324 323 324 326 328
327 326 325 325 327 329 329 329 327 326 326 325 324 322 321 321 321 320 320 320 320 319 318 319 319 319 319 320 321 321 322 323 323 322 322 322 322 323 322 323 325 327
326 326 325 325 324 326 328 327 324 323 323 322 321 321 320 320 320 320 320 319 319 318 318 317 317 317 318 318 320 320 321 322 322 322 322 321 321 322 322 323 323 325
325 325 325 325 324 324 326 324 322 322 322 321 321 320 320 320 321 321 320 320 319 319 318 318 317 316 316 317 318 319 319 320 320 320 321 321 321 321 322 322 322 323
325 325 325 324 324 324 324 323 323 322 322 321 321 320 320 320 320 320 319 319 319 318 317 317 316 315 315 316 317 318 319 319 319 319 319 319 320 321 321 322 322 321
324 325 324 323 324 324 323 323 323 323 322 321 321 321 321 320 319 318 317 316 316 314 313 312 313 313 313 314 315 317 318 319 319 319 319 320 320 320 321 321 320 319
323 323 323 323 324 323 323 323 323 322 321 321 321 320 320 319 318 317 316 315 314 312 311 312 312 312 312 312 313 314 316 317 318 319 319 319 320 321 321 320 318 318
320 321 321 322 322 322 322 321 321 320 319 319 319 318 317 316 316 315 314 313 313 313 313 312 312 313 313 313 313 313 313 314 317 319 320 319 320 320 320 320 320 320
316 317 318 318 319 319 319 319 319 319 318 317 317 316 315 314 313 313 312 312 312 312 313 312 311 312 313 314 316 316 314 314 318 321 321 321 320 320 320 320 320 320
313 314 314 315 316 316 317 317 317 317 317 317 316 315 314 313 311 310 310 310 310 310 311 310 309 309 311 314 316 317 317 317 319 320 320 321 320 320 321 321 319 319
310 311 312 313 313 313 314 315 315 316 316 316 316 315 313 312 311 309 308 308 307 305 305 306 305 305 307 310 312 315 316 317 317 316 316 317 318 318 319 319 318 317
308 309 310 310 310 311 312 314 314 314 315 316 315 314 313 311 311 308 306 303 302 300 300 302 301 301 302 304 306 310 313 313 313 312 311 313 315 316 316 315 313 313
307 307 308 308 309 310 311 312 313 313 313 313 312 312 311 309 307 305 303 301 300 300 300 300 299 298 298 299 300 302 305 307 308 306 306 308 311 313 313 312 310 309

ECMWFNIL_925_thetae_066.txt.gz
Theta_e
333 333 333 334 334 335 334 331 331 332 333 333 333 332 332 333 333 332 332 333 333 334 334 334 334 333 333 333 333 333 333 333 333 333 332 332 331 331 331 330 330 330
334 334 333 333 334 335 334 333 332 332 332 332 331 331 332 332 332 332 333 333 333 333 333 333 332 332 333 333 333 333 333 333 333 333 332 331 331 331 331 330 330 330
334 334 333 332 333 334 334 333 332 332 332 331 331 331 332 332 332 332 333 333 333 333 332 332 332 332 333 333 333 333 333 333 333 333 332 331 331 331 330 330 330 331
333 334 333 332 332 334 334 333 332 332 331 331 330 331 331 332 332 332 333 333 333 333 332 332 332 333 333 333 333 333 333 333 332 332 332 331 331 331 330 330 331 331
332 332 332 332 332 333 333 333 332 331 331 331 331 331 332 333 332 332 332 332 332 332 331 332 333 333 333 333 333 333 333 332 332 332 332 331 331 331 331 332 331 331
331 331 331 332 333 334 333 332 332 331 331 331 331 332 333 333 332 332 332 332 331 331 331 332 333 333 333 333 332 332 332 332 332 332 332 331 331 332 332 332 332 332
332 331 331 331 333 334 333 331 331 331 330 331 331 332 333 333 333 332 331 331 330 330 331 332 332 332 332 332 332 332 332 332 331 332 331 331 331 331 332 332 333 332
332 332 330 331 332 333 333 331 331 331 330 331 331 331 330 331 332 331 330 330 330 330 330 330 330 329 331 331 331 331 331 331 331 331 332 332 331 332 332 332 332 331
332 333 332 332 332 332 332 331 330 330 330 330 330 329 328 329 331 330 330 330 329 329 329 328 329 328 329 330 330 330 330 330 331 331 332 332 331 331 332 331 331 331
332 332 332 332 331 331 331 331 329 329 329 328 328 328 328 329 330 329 329 329 328 328 328 327 328 328 327 328 328 328 329 329 330 330 331 331 331 331 331 330 330 331
330 330 329 329 329 330 330 330 329 328 328 328 327 327 329 330 330 329 329 329 328 327 327 327 327 326 327 327 327 327 327 327 328 328 328 328 329 329 329 329 330 330
327 328 328 328 328 329 329 329 329 327 327 328 327 327 329 329 329 329 328 328 328 327 327 326 326 326 326 326 326 326 325 325 326 326 325 326 327 327 326 327 329 329
325 327 327 327 327 329 328 327 326 326 327 327 326 327 328 328 328 328 328 328 327 326 326 325 325 326 326 325 325 325 324 324 324 324 324 324 324 325 325 325 327 328
326 326 326 326 327 327 326 325 325 326 326 325 325 326 326 326 326 326 326 326 325 324 324 323 324 324 324 322 323 324 323 323 323 323 323 322 322 324 325 325 326 327
326 326 324 326 327 326 326 326 325 325 324 323 324 325 325 324 324 325 325 324 323 322 322 322 322 322 322 321 322 323 323 322 322 322 322 322 324 324 324 324 325 327
326 325 324 325 326 326 325 325 325 324 322 322 323 324 324 323 323 323 323 322 321 320 320 321 321 320 320 321 321 322 323 322 322 322 322 323 323 323 324 324 325 326
325 324 324 324 325 324 323 323 323 322 320 321 322 323 321 321 321 320 320 319 318 318 319 319 319 319 320 320 320 321 322 322 321 321 322 322 322 321 323 323 325 327
324 324 324 323 323 323 322 322 321 319 319 320 320 320 319 319 319 318 317 316 316 316 316 316 317 318 319 319 319 320 320 321 320 320 320 321 321 322 322 322 325 326
324 324 323 323 322 322 321 321 319 317 318 319 319 319 319 318 318 317 316 316 316 316 316 315 315 316 317 318 318 319 319 320 319 319 319 320 321 322 322 323 324 326
323 323 323 322 322 321 321 320 317 316 318 318 318 319 318 317 316 315 315 314 315 315 314 314 314 314 315 316 318 318 319 319 319 320 319 320 321 323 323 323 324 324
321 321 322 322 321 320 320 318 316 317 318 317 317 317 316 314 313 312 312 311 311 312 312 313 313 313 313 314 315 316 318 319 319 320 320 320 321 321 321 321 320 319
317 318 320 320 319 319 319 317 316 316 317 316 315 314 313 312 312 311 311 310 310 311 311 313 314 314 314 313 314 316 318 319 319 320 320 320 319 318 318 317 317 316
312 314 316 317 316 316 316 316 315 314 314 314 314 312 311 311 310 309 309 309 309 310 311 312 313 314 315 315 316 318 319 320 319 319 318 317 316 315 315 315 315 315
309 311 312 313 314 313 312 313 313 311 310 312 312 310 309 308 307 307 306 307 307 307 308 309 309 310 313 315 317 319 320 320 320 319 317 315 314 313 314 314 314 314
309 309 309 310 311 310 310 312 312 309 308 309 310 308 304 303 303 303 302 303 303 303 304 305 304 304 308 311 314 317 319 319 320 319 316 313 312 311 311 311 311 312
308 308 308 308 309 309 309 310 310 309 308 306 305 303 301 300 300 300 299 299 300 300 301 301 300 300 302 305 308 311 315 316 317 317 314 311 309 309 308 307 307 307

ECMWFNIL_925_thetae_069.txt.gz
Theta_e
331 332 333 333 334 334 334 333 333 333 333 332 333 332 331 332 333 334 334 335 334 333 333 333 332 333 334 334 334 334 333 332 332 333 333 333 332 331 331 332 331 331
331 332 333 333 333 333 333 334 333 333 333 332 332 332 331 331 332 333 334 335 333 331 332 333 332 333 334 335 334 334 333 333 332 332 333 333 332 331 331 331 331 330
332 332 332 332 330 331 333 334 334 333 334 333 332 331 331 331 330 332 334 334 332 331 332 333 333 333 334 334 333 333 333 333 332 332 333 333 332 331 331 330 330 330
331 332 332 331 330 330 332 333 334 334 333 333 332 331 331 330 329 331 333 333 332 332 332 332 333 334 334 334 334 333 333 333 332 332 332 332 332 331 331 331 331 330
330 331 331 331 331 331 330 332 333 333 333 333 332 331 331 330 329 331 332 332 332 332 332 330 332 334 333 333 333 333 333 333 332 332 332 332 332 331 331 331 330 330
329 330 330 330 331 331 330 331 332 332 333 333 332 331 331 330 330 331 332 331 332 332 332 330 330 333 332 332 332 332 333 333 332 333 333 332 332 331 331 331 330 330
329 329 329 330 331 331 331 331 332 333 333 332 331 330 330 330 330 331 331 331 331 331 331 330 330 332 332 332 333 333 333 333 333 332 332 332 331 330 331 331 330 330
330 329 329 330 331 331 331 331 332 333 331 330 330 330 330 330 330 331 331 331 331 331 331 331 331 332 333 332 333 333 333 333 332 332 332 332 331 330 330 331 331 331
331 330 330 330 330 330 331 332 333 332 330 329 329 329 330 330 331 331 330 330 331 331 331 332 332 332 332 332 332 332 332 332 332 332 332 332 331 330 331 331 331 332
331 331 330 330 330 330 331 332 332 331 329 329 329 330 329 330 331 329 328 330 330 329 331 331 332 332 332 332 332 332 332 331 331 331 331 331 331 331 331 331 331 332
330 330 330 330 330 330 331 331 330 330 330 329 329 329 329 330 330 328 328 329 328 328 330 331 331 331 331 331 332 332 331 331 331 330 331 331 331 331 331 331 331 331
328 328 328 329 328 329 330 330 329 329 329 329 328 328 328 328 329 328 328 327 327 328 330 330 329 329 329 330 331 330 330 330 330 330 330 331 331 331 331 331 330 330
326 326 326 327 327 328 328 328 328 328 328 329 328 328 326 325 326 327 326 326 327 329 329 328 328 328 328 329 329 329 328 328 328 329 330 330 329 329 329 329 329 328
325 325 325 325 326 327 327 327 327 327 328 328 328 327 325 325 325 326 325 326 327 328 327 327 328 327 327 327 327 327 327 326 326 327 327 327 326 326 327 327 326 327
325 325 325 325 326 326 326 327 327 327 327 327 326 326 326 326 326 325 325 326 327 326 327 326 326 326 326 326 326 325 325 324 324 325 325 325 325 325 325 326 325 326
325 325 325 325 325 326 326 326 326 326 326 325 326 326 325 325 324 324 326 327 326 325 325 325 325 325 324 324 323 324 323 323 323 323 323 323 323 323 324 325 326 326
325 325 325 324 325 325 325 325 325 325 324 324 324 324 323 323 322 323 325 325 324 324 323 323 323 323 323 323 323 323 322 322 322 322 322 322 323 323 324 324 325 326
324 324 324 324 325 324 324 324 324 323 323 322 321 320 319 320 321 322 323 323 322 322 322 321 322 321 321 322 322 322 322 322 322 322 322 322 323 323 324 324 325 326
322 323 323 323 323 322 322 322 322 321 321 320 318 316 315 317 321 322 321 320 321 321 320 319 319 319 320 321 321 321 321 321 321 322 323 323 323 323 324 325 325 326
319 321 322 321 322 321 320 320 319 318 316 316 316 314 313 316 320 320 319 318 319 319 319 318 318 318 319 319 320 320 320 320 321 321 322 323 324 324 325 325 325 325
315 319 320 319 318 318 317 317 315 313 312 312 313 311 310 313 316 317 316 316 317 317 317 317 317 317 318 319 319 319 320 320 320 320 321 322 323 323 324 323 323 323
311 314 316 316 314 313 313 312 311 309 308 308 309 308 308 310 312 313 314 314 314 315 316 315 315 315 316 317 318 319 319 319 319 319 320 321 321 320 320 319 319 319
309 310 312 313 313 311 309 309 309 308 307 308 310 310 309 309 309 311 312 312 313 313 314 314 313 314 315 316 318 319 319 319 319 319 318 318 317 316 316 316 315 315
308 308 309 310 311 310 308 308 309 309 308 308 309 309 308 307 308 309 310 311 311 312 313 313 314 315 316 317 318 319 319 318 318 317 316 315 313 313 313 314 313 313
308 309 308 308 308 308 307 306 307 308 307 306 306 305 305 305 306 307 308 308 309 311 313 314 315 316 317 317 318 318 318 318 318 316 314 312 311 311 311 312 312 312
307 309 309 308 307 307 306 304 303 304 305 304 303 302 302 302 303 303 303 303 304 308 311 314 315 316 316 316 317 317 317 317 317 316 314 311 310 311 310 309 309 308

ECMWFNIL_925_thetae_072.txt.gz
Theta_e
333 333 332 330 330 332 334 334 333 332 331 330 330 330 330 331 332 333 333 333 333 333 333 333 334 333 332 332 332 333 333 332 332 333 333 332 331 331 331 331 330 330
332 332 332 331 331 333 334 334 333 332 331 330 330 330 330 331 331 331 332 332 333 333 333 334 334 332 330 329 331 333 333 332 332 333 333 332 332 332 331 331 331 331
330 330 331 332 332 332 333 333 332 332 331 331 330 331 331 331 331 331 331 332 333 333 332 333 333 332 329 329 331 332 332 333 332 333 333 332 332 332 332 331 331 331
328 329 330 331 331 331 332 332 331 332 332 331 331 331 331 331 331 331 331 331 332 332 332 333 333 332 331 331 331 332 331 331 332 332 332 332 332 332 332 331 331 331
326 328 330 331 331 332 331 330 330 331 332 332 332 332 331 331 330 330 330 331 332 332 332 332 332 331 332 331 332 332 331 329 331 332 332 331 332 332 332 331 330 330
326 327 329 330 331 331 331 330 329 330 331 331 331 331 331 332 331 330 330 330 331 331 331 331 331 330 331 331 332 332 330 330 332 333 331 331 332 332 332 331 331 330
327 327 328 329 329 329 330 331 331 330 330 330 331 331 331 332 332 330 330 330 330 330 331 331 330 330 331 332 332 331 329 330 332 332 331 332 332 332 332 331 331 330
328 328 328 329 329 329 329 330 331 330 330 330 331 331 331 332 332 331 330 329 329 330 330 330 330 330 331 331 330 329 329 330 331 331 331 332 332 332 332 331 331 330
327 328 328 329 329 329 329 329 330 330 330 331 331 331 331 332 331 330 330 329 330 330 330 329 330 329 330 330 330 329 329 330 332 331 331 332 332 332 331 331 331 330
325 326 327 329 329 329 329 329 330 330 330 330 331 331 330 330 330 330 330 329 330 330 330 330 330 329 329 330 331 330 329 329 331 332 332 332 332 331 331 330 330 330
324 325 326 327 327 328 328 329 329 329 328 329 330 331 330 329 329 329 330 329 330 330 330 330 330 329 330 330 330 330 329 329 331 332 332 332 331 331 331 330 330 330
324 325 325 326 326 326 327 327 328 328 328 329 330 331 330 329 328 329 329 329 330 330 330 330 330 330 331 331 330 330 329 330 331 332 331 331 331 331 330 330 330 330
323 324 325 325 325 325 326 326 326 327 328 329 329 330 330 329 328 328 329 330 330 330 330 330 330 330 330 330 330 330 330 330 331 331 331 331 331 331 331 330 330 330
322 324 325 325 325 325 325 325 325 325 327 328 328 329 330 329 328 328 329 329 330 330 330 330 329 329 329 330 330 331 331 331 331 331 330 330 330 331 331 331 330 330
319 322 323 324 325 325 325 325 325 325 326 326 327 328 329 328 327 328 328 329 329 329 328 328 328 328 329 330 330 331 331 330 330 330 329 329 330 330 330 330 330 330
317 319 322 323 324 325 325 325 324 325 325 326 326 327 327 326 326 327 328 329 328 327 327 327 328 328 329 329 329 329 330 329 328 328 328 328 329 329 328 328 328 328
315 318 320 322 323 324 324 324 324 325 325 326 326 326 325 325 325 326 327 327 326 326 326 327 327 328 328 327 327 328 328 327 326 325 326 327 327 327 326 326 326 326
312 316 319 322 323 324 324 324 324 325 325 325 325 324 323 323 324 325 325 325 325 325 326 327 327 327 327 326 326 326 326 325 324 324 325 325 325 325 324 324 324 325
310 314 317 320 322 323 323 324 323 323 323 323 323 322 322 321 322 323 324 323 324 325 325 326 326 326 325 325 324 324 324 323 323 323 323 323 323 323 324 324 324 324
309 311 313 316 319 321 321 321 320 319 318 317 318 318 319 319 320 320 322 322 322 324 325 325 324 324 323 323 322 322 322 322 322 322 322 322 323 324 324 324 324 324
308 309 310 311 313 315 315 314 314 313 313 312 313 314 316 316 316 316 317 318 320 323 324 323 322 322 322 321 321 321 321 321 322 322 322 323 324 324 324 324 323 324
306 308 308 308 308 309 309 308 307 307 308 309 310 311 312 312 312 311 311 313 316 319 320 319 320 320 320 320 320 321 321 321 322 322 323 323 323 323 323 323 322 323
306 306 307 306 306 306 305 304 303 302 303 305 307 308 308 308 308 308 308 309 312 315 316 317 319 319 319 319 319 320 320 320 321 321 321 321 321 320 321 321 321 321
305 305 305 304 304 303 302 302 302 301 301 304 306 305 305 305 306 307 308 309 311 313 315 316 318 318 318 318 318 319 319 319 319 319 318 318 317 317 317 317 317 317
304 304 304 303 302 301 301 301 302 301 301 303 304 304 304 305 306 307 308 309 310 311 312 314 315 316 317 318 318 318 318 318 318 317 316 314 314 313 313 313 314 315
304 303 303 303 302 301 300 300 301 302 302 302 303 303 304 306 307 307 307 307 308 310 310 311 312 313 314 315 316 316 316 317 317 316 314 311 310 310 309 309 310 311

ECMWFNIL_925_thetae_075.txt.gz
Theta_e
331 332 333 332 332 332 331 332 332 332 333 333 332 332 331 331 331 330 330 331 331 331 331 331 331 332 333 332 332 332 332 331 330 330 330 330 330 330 331 331 331 331
329 330 331 332 332 332 331 332 333 333 334 333 333 332 332 330 330 330 330 330 330 331 332 331 331 331 331 332 333 332 331 331 331 331 331 330 330 329 330 331 331 331
328 328 329 330 331 332 332 332 333 333 333 333 332 332 332 330 330 330 330 330 330 331 332 332 331 330 329 330 333 333 332 332 332 331 331 330 329 329 330 330 332 332
327 327 327 328 329 330 331 332 332 332 331 332 332 332 331 330 330 330 330 330 330 330 331 331 331 330 328 329 331 332 331 332 332 331 330 330 329 329 330 330 330 331
326 327 327 327 328 328 330 331 331 331 331 331 331 331 331 330 330 330 330 330 330 330 331 331 330 329 329 329 330 331 331 331 330 330 330 330 329 328 328 328 329 330
325 327 327 328 328 328 329 330 330 330 331 330 330 329 330 330 330 330 330 330 330 330 330 330 330 329 329 328 329 330 331 330 330 330 330 329 329 329 328 327 329 330
323 325 327 327 328 327 328 329 330 330 330 331 330 329 330 330 330 330 330 330 330 330 330 330 330 329 329 329 329 330 330 330 330 330 330 329 329 329 328 327 328 330
323 324 325 326 327 327 327 328 329 330 330 330 330 329 329 330 330 330 330 330 331 331 330 330 330 330 330 330 330 330 330 330 330 330 330 329 329 328 327 327 329 330
322 323 324 325 326 327 328 328 329 330 330 330 329 329 329 329 329 330 330 330 330 331 330 330 330 329 330 330 330 330 330 330 330 330 330 329 329 328 327 328 330 331
319 322 323 324 325 326 327 327 328 329 329 329 329 329 329 329 329 329 330 330 330 330 330 330 329 329 329 329 330 330 330 330 330 330 330 329 329 328 328 328 331 331
317 319 321 323 324 325 326 326 327 328 328 329 328 329 329 329 329 329 329 330 330 330 330 330 329 329 329 329 330 330 330 330 330 329 329 329 329 329 328 329 331 332
315 316 318 320 322 324 325 325 326 326 327 328 328 329 329 329 329 329 329 329 330 330 330 330 330 329 329 329 329 329 330 330 329 329 328 329 330 329 328 330 332 332
312 314 315 317 320 322 323 324 325 325 325 326 327 327 328 328 329 329 329 329 330 330 330 330 330 329 329 329 329 329 330 330 329 328 328 329 329 328 328 330 332 331
310 311 313 315 317 320 322 323 324 325 325 325 326 326 327 328 328 328 329 329 329 329 330 330 329 330 330 329 329 329 330 330 329 329 328 328 328 327 326 328 330 330
309 310 311 313 315 318 321 323 323 324 325 325 325 326 326 327 327 328 328 328 329 329 329 329 329 329 329 329 330 330 330 330 329 329 329 328 327 326 325 327 329 330
309 310 311 313 315 318 321 323 323 324 324 325 325 325 325 326 326 327 328 328 328 328 328 328 328 329 330 329 330 330 330 330 330 329 328 327 326 325 325 328 330 330
308 309 310 312 314 317 320 323 323 324 324 324 325 324 325 325 326 326 327 327 327 327 327 328 328 330 330 329 330 330 330 330 329 328 327 327 326 325 325 327 330 329
307 309 309 310 311 313 316 319 321 322 323 323 324 325 325 325 325 326 326 326 326 326 326 328 329 329 329 329 329 329 330 329 328 328 328 326 326 326 327 328 328 328
307 308 308 308 308 310 313 315 316 317 317 317 319 322 323 324 325 325 325 324 324 325 326 327 328 328 328 328 329 329 329 328 328 328 328 326 325 327 327 326 325 325
306 306 306 306 306 307 309 311 311 310 310 311 313 315 318 320 320 321 320 320 321 322 324 326 327 328 328 328 328 328 327 328 327 326 326 325 326 326 325 324 324 323
305 305 305 304 304 305 305 306 306 306 307 307 308 310 311 312 313 313 314 314 315 316 318 320 323 325 327 327 326 326 326 326 325 324 324 324 325 324 324 324 323 323
304 304 304 303 303 303 303 303 303 303 304 304 305 306 307 308 308 308 309 310 312 313 313 314 316 319 323 325 325 324 324 324 323 323 323 323 324 323 323 324 323 323
303 304 303 303 303 303 302 302 302 302 302 303 304 304 304 305 306 307 307 308 310 311 312 312 313 314 317 321 323 323 322 322 322 322 322 322 323 323 323 323 323 323
303 303 303 302 302 303 302 302 302 302 302 302 303 303 302 303 305 307 307 307 308 309 309 308 311 313 315 318 321 321 321 321 321 321 322 321 321 321 322 322 322 321
302 303 303 302 302 302 302 302 302 301 301 301 302 303 302 301 304 306 306 306 306 307 306 306 308 311 315 317 318 320 321 321 321 321 320 319 319 319 320 320 320 318
302 302 302 302 302 302 302 302 302 302 301 301 301 303 303 302 303 304 305 305 306 307 306 306 306 308 312 315 315 317 319 320 320 321 319 317 316 316 317 317 316 315

ECMWFNIL_925_thetae_078.txt.gz
Theta_e
330 332 332 333 334 334 335 335 335 335 335 335 335 334 334 334 334 333 333 332 332 332 333 333 334 334 334 333 333 332 332 332 332 332 333 333 333 334 335 334 334 333
329 330 331 332 333 333 334 334 334 334 335 335 335 335 334 334 334 334 333 332 332 332 332 333 333 334 334 333 333 333 333 333 332 333 333 333 334 334 335 334 334 334
327 328 330 331 331 332 332 332 333 334 334 335 335 335 334 334 334 333 333 332 332 331 332 332 332 333 333 333 333 333 333 332 333 333 333 333 333 334 334 334 334 334
325 327 328 329 330 330 331 331 332 333 333 334 335 335 334 334 333 333 332 332 332 332 332 332 332 332 332 333 332 332 332 332 332 333 333 333 332 333 334 333 334 334
324 325 327 328 329 330 330 331 331 332 333 333 334 333 333 334 333 332 332 332 332 332 332 332 332 332 332 332 332 332 332 332 332 332 332 333 333 333 333 333 334 334
322 324 325 327 328 329 330 330 331 332 332 332 333 331 332 333 332 332 333 333 332 332 332 332 332 332 332 332 332 331 331 332 332 332 332 332 332 333 333 333 334 334
321 323 325 326 327 328 329 330 330 331 331 331 331 330 330 332 333 333 333 332 332 332 332 332 332 332 332 332 332 331 331 331 332 332 332 332 332 332 332 332 333 333
320 322 323 325 326 327 328 329 330 330 330 330 331 330 331 331 332 333 333 332 332 332 331 332 332 332 331 331 332 331 331 330 331 332 332 332 332 332 332 331 331 332
319 320 321 323 324 326 327 328 329 329 330 330 330 330 331 331 331 332 332 332 332 332 332 332 332 332 331 331 331 331 331 330 331 332 332 332 333 331 331 331 331 331
316 317 318 320 322 324 325 327 328 328 329 329 330 330 330 331 331 331 331 331 331 331 332 332 332 332 331 331 331 331 331 331 331 332 332 332 332 331 331 331 331 332
314 315 316 317 318 320 322 325 326 328 328 329 329 330 330 330 330 331 331 331 331 331 332 332 332 332 332 331 331 331 332 332 332 332 332 330 331 331 331 330 331 332
313 313 315 315 317 318 320 322 324 326 327 328 328 329 329 329 330 330 330 331 331 331 331 331 331 332 332 332 331 331 332 332 332 332 331 330 331 332 331 330 331 332
312 313 314 315 316 317 319 321 323 325 326 327 327 328 328 329 329 330 330 330 330 330 331 332 331 331 332 332 332 332 332 332 333 332 330 330 332 332 331 331 332 332
312 312 313 314 315 316 318 320 323 324 325 326 327 327 327 328 329 329 330 330 330 330 330 331 331 331 331 332 332 332 332 332 332 332 331 331 331 331 331 331 331 332
311 312 312 313 314 315 316 318 319 322 323 325 326 326 327 327 328 328 329 330 330 330 330 330 331 331 330 331 331 331 332 332 332 331 332 331 330 330 330 330 331 331
311 311 312 312 313 314 314 315 316 317 319 320 322 324 325 326 327 327 328 329 329 329 329 329 330 330 330 330 331 331 331 332 331 331 331 331 330 329 329 329 330 331
310 311 311 311 311 312 312 313 313 314 314 315 317 319 320 322 324 326 327 327 328 328 328 329 329 329 329 330 330 330 330 331 331 331 331 330 329 329 328 329 329 330
310 310 310 310 310 310 310 311 311 311 311 312 313 314 315 317 319 322 324 326 327 327 328 328 328 328 328 329 330 330 330 331 331 330 331 330 329 328 329 328 328 328
309 309 309 310 310 309 309 309 309 308 309 309 310 310 311 312 313 316 319 322 324 325 326 327 327 327 327 329 329 329 329 330 331 330 330 329 328 328 328 328 329 328
308 309 309 309 309 309 309 308 308 307 307 307 308 308 309 309 310 311 313 316 319 320 321 323 325 326 326 327 328 328 328 329 330 330 329 329 329 328 328 329 329 329
307 308 308 308 308 308 308 307 307 306 306 306 306 306 306 307 307 308 309 311 313 314 315 317 320 322 324 324 325 327 327 327 329 330 329 329 329 329 329 329 330 329
306 307 307 307 307 307 307 307 306 306 305 305 305 305 305 305 305 305 306 307 309 310 311 312 313 316 319 322 324 325 325 326 328 328 327 327 327 327 327 328 328 327
306 306 306 306 306 306 306 306 306 305 305 304 304 303 303 303 303 303 303 304 305 306 308 308 309 311 315 317 320 322 322 323 324 324 323 323 324 325 325 324 324 325
305 305 306 306 306 305 305 305 305 304 304 304 304 303 302 302 302 302 301 302 302 303 305 306 307 309 311 313 316 318 319 320 321 320 320 321 321 321 322 322 323 324
305 305 305 305 305 305 304 304 304 303 303 304 304 304 303 303 302 301 301 301 300 301 304 305 307 308 310 312 315 317 317 318 318 318 318 319 318 318 317 318 320 322
304 304 304 304 304 304 303 303 303 302 302 303 303 303 303 303 302 302 301 300 300 300 301 304 307 308 309 312 314 315 315 315 315 316 316 315 315 314 313 313 315 318

ECMWFNIL_925_thetae_081.txt.gz
Theta_e
330 330 331 332 334 334 335 334 333 332 331 331 332 333 335 337 335 334 336 335 334 334 334 335 335 335 335 335 335 335 334 335 335 335 335 334 334 334 334 334 334 333
328 328 329 331 332 333 334 334 334 334 333 334 335 334 334 335 334 334 335 335 334 334 333 334 334 335 335 335 335 335 334 334 334 335 335 334 334 334 333 334 333 332
326 327 328 329 330 332 333 333 334 335 335 335 335 333 333 334 334 334 333 333 334 334 333 333 334 334 335 335 335 335 334 334 334 334 334 334 335 334 333 333 332 332
324 325 326 327 328 330 331 332 333 333 334 334 334 333 333 333 333 334 333 332 333 333 333 333 333 334 335 335 334 334 334 334 334 334 334 334 335 335 334 333 333 332
322 323 324 325 327 328 330 331 332 332 331 331 333 334 333 332 332 333 333 332 331 331 332 333 334 334 334 334 334 334 334 334 333 334 334 334 334 334 334 333 332 332
321 322 323 324 325 327 328 329 331 332 331 331 332 333 333 331 331 332 332 332 331 330 329 330 333 334 334 334 334 334 334 334 333 334 334 334 334 334 334 333 333 332
320 320 321 322 323 324 326 327 329 330 331 332 332 333 333 332 331 331 331 331 331 330 329 329 332 334 334 334 334 334 334 334 334 334 334 334 335 335 335 333 333 333
319 319 320 320 321 322 323 325 327 328 330 331 332 332 333 333 332 332 331 331 331 331 331 330 330 332 334 334 334 334 334 334 334 334 334 334 334 335 334 333 333 332
318 318 318 319 319 320 321 322 323 325 327 329 331 332 333 333 332 332 331 331 331 331 332 331 329 330 333 334 333 334 334 333 333 333 333 334 334 334 333 333 333 332
317 317 317 318 318 319 320 320 321 323 325 327 329 330 331 332 332 332 331 331 331 331 331 331 330 330 333 334 333 334 333 333 333 333 333 333 334 333 332 332 333 333
316 316 316 317 317 318 319 319 321 322 324 325 328 329 330 330 331 332 332 331 331 331 330 331 330 330 332 333 333 333 333 333 333 332 333 333 333 333 332 332 333 333
315 315 315 316 316 317 318 319 320 321 322 324 326 328 329 330 330 330 331 331 331 331 330 330 330 330 331 332 332 333 333 333 333 332 333 333 332 332 332 333 332 332
315 315 315 315 315 316 317 318 319 319 320 321 323 324 326 328 329 329 330 330 331 331 331 331 331 330 330 331 333 333 333 333 333 333 332 332 332 332 333 333 332 332
315 314 315 315 315 315 315 316 317 317 318 319 320 320 322 324 326 327 328 329 330 330 330 330 330 330 330 331 332 333 332 332 333 332 331 331 332 333 333 332 331 332
314 314 314 315 315 315 315 315 315 315 316 316 317 318 319 320 321 323 325 327 328 329 330 330 329 329 330 331 331 332 332 331 331 331 331 331 331 332 331 331 331 331
314 314 314 314 314 314 314 314 314 314 314 314 315 315 315 316 317 319 321 322 324 326 328 329 329 328 330 330 330 331 331 331 330 330 330 330 330 330 329 330 331 331
313 313 313 313 314 313 313 313 313 313 312 312 312 312 312 313 314 315 316 317 319 320 323 325 327 327 328 329 329 329 329 329 329 330 330 330 330 330 328 329 331 330
311 312 312 312 312 312 312 312 312 312 311 311 310 310 310 311 312 312 312 314 315 316 318 320 322 324 325 326 328 329 328 328 329 328 328 329 330 329 328 329 331 331
310 311 311 311 311 311 311 311 311 311 310 309 309 309 309 309 310 310 310 311 311 312 313 316 317 319 322 324 326 327 327 328 328 327 327 329 329 329 330 330 330 331
309 310 310 310 310 310 310 310 310 310 309 308 308 307 307 307 308 308 308 308 308 308 309 311 312 313 317 320 323 325 326 327 327 328 328 328 329 330 330 329 328 330
308 308 309 309 309 309 309 309 309 308 308 307 307 307 306 306 306 306 306 305 305 305 306 307 308 309 311 315 319 321 324 325 326 327 328 327 328 330 330 328 329 331
307 307 308 308 308 308 308 308 308 307 307 307 307 307 306 305 305 305 304 303 303 303 303 304 305 306 307 311 314 317 320 322 324 325 327 327 328 330 329 329 329 329
307 307 307 307 307 307 307 307 307 306 306 306 306 306 306 305 305 304 303 302 302 301 301 301 302 304 306 309 311 314 316 319 322 324 326 328 329 329 328 328 328 328
306 306 306 306 306 307 306 306 306 306 306 306 305 305 305 305 305 305 303 302 301 301 301 300 301 302 306 309 311 313 315 318 321 323 323 324 325 324 324 325 326 327
306 306 306 306 306 306 306 306 306 305 305 305 305 304 304 304 305 304 303 302 301 300 300 300 300 301 304 309 311 313 315 318 320 320 319 318 318 318 319 320 321 324
305 305 305 305 306 306 306 306 306 305 305 304 304 304 304 303 303 303 303 301 301 300 299 299 299 300 303 307 310 313 314 316 317 316 314 313 314 313 313 314 316 320

ECMWFNIL_925_thetae_084.txt.gz
Theta_e
326 326 326 327 328 330 331 332 333 334 334 333 334 334 334 334 333 333 333 333 334 335 335 335 334 334 335 335 335 335 336 335 336 335 335 334 335 335 335 334 334 334
324 324 325 325 326 327 329 330 331 332 333 332 333 333 333 334 334 334 334 333 333 334 334 334 334 334 334 335 334 334 334 335 335 335 335 335 335 335 334 334 334 334
323 323 324 324 325 326 327 328 329 331 332 332 332 332 333 333 334 334 334 334 333 333 333 333 333 333 333 333 334 333 333 335 336 335 335 335 335 335 334 334 334 334
321 322 322 323 324 325 325 327 328 329 330 331 332 332 332 332 333 333 333 333 333 333 333 333 332 332 333 332 333 333 333 334 336 335 334 335 334 334 335 335 334 335
321 321 321 321 322 322 323 324 326 326 328 330 331 332 332 332 333 333 333 333 332 332 332 333 332 332 332 332 332 332 332 333 335 334 333 335 334 334 335 335 335 335
320 320 320 320 320 320 321 322 323 324 325 326 328 330 331 332 332 332 332 332 332 332 332 332 332 332 332 332 332 332 332 332 334 333 333 334 334 334 334 335 334 334
318 318 319 319 319 319 320 321 321 321 322 324 325 327 329 331 331 331 331 332 332 332 332 332 332 332 331 331 330 331 331 331 332 333 333 333 334 333 333 334 334 333
317 317 317 317 318 318 319 320 320 321 322 323 324 325 327 329 330 330 331 331 331 331 332 332 331 331 331 331 330 330 330 331 331 331 331 333 334 333 332 332 332 332
317 317 316 316 317 317 318 318 319 320 321 322 323 324 326 327 329 330 330 330 330 329 330 331 331 331 331 331 330 330 330 331 330 330 330 331 332 332 332 331 331 331
316 316 316 316 316 316 317 317 318 319 320 320 321 322 323 324 326 328 329 329 330 330 330 330 330 331 331 331 331 331 330 331 330 330 330 330 331 332 331 330 330 331
316 315 315 316 316 316 316 316 317 317 318 319 319 320 321 322 323 324 325 326 327 329 330 330 329 329 330 330 331 330 330 330 330 330 330 328 330 332 332 330 330 329
315 315 315 316 316 316 316 316 316 316 316 317 317 318 318 319 319 320 321 322 324 326 327 328 328 328 329 329 330 330 330 329 329 330 330 329 329 331 332 332 331 329
314 314 315 315 315 315 315 315 315 315 315 315 315 315 315 316 316 317 318 319 320 321 322 323 324 327 328 328 327 328 329 329 330 329 329 330 329 329 330 332 332 331
313 314 314 314 314 314 314 314 314 314 314 313 313 312 312 313 313 314 315 315 316 318 319 320 321 324 325 323 322 323 325 327 329 328 329 330 329 329 331 332 331 331
312 313 313 313 313 313 313 313 313 313 313 312 311 311 310 311 311 312 312 312 313 314 315 316 319 321 320 317 318 319 320 323 326 327 328 329 329 330 331 331 331 331
311 311 311 311 311 311 312 312 312 312 311 311 310 310 309 309 309 309 309 310 310 311 311 312 315 317 315 314 315 315 317 321 323 324 326 328 329 329 330 330 331 330
310 310 310 310 310 310 310 310 310 310 310 310 310 309 309 308 308 308 307 308 307 308 308 309 311 311 310 309 311 313 314 317 320 322 324 326 328 329 329 330 330 330
309 309 309 309 309 309 309 309 309 309 309 309 309 309 308 308 307 307 306 306 305 305 305 306 307 307 306 306 308 311 312 314 316 319 322 324 327 328 329 329 330 330
308 308 308 308 308 308 308 308 308 308 308 308 308 308 308 307 307 306 305 304 304 304 304 304 304 304 303 305 307 310 311 312 314 316 320 323 326 327 328 329 329 329
307 308 307 307 308 307 307 307 307 307 307 307 307 307 307 307 307 306 305 303 303 303 302 302 302 301 301 305 307 309 311 312 313 315 318 321 324 326 327 327 328 328
307 307 307 307 307 307 307 307 307 307 306 306 306 306 306 306 306 306 304 303 302 302 301 301 300 299 301 305 308 309 311 312 313 315 317 319 322 324 327 327 328 328
306 306 306 306 306 307 307 307 306 306 306 305 305 305 305 305 305 305 304 302 302 301 300 300 299 298 300 305 307 309 312 313 314 315 316 318 320 323 326 327 328 328
305 305 305 305 306 306 306 306 306 306 305 305 305 304 304 304 304 304 303 302 301 301 300 300 299 298 300 304 307 309 312 314 315 316 317 319 321 322 323 325 326 327
304 304 305 305 305 305 305 305 305 305 305 305 304 304 303 303 303 303 302 301 300 300 300 299 299 298 299 302 305 308 311 313 313 314 315 315 316 318 319 319 322 325
303 303 304 304 304 304 304 303 303 304 304 304 304 304 303 303 302 302 302 301 300 299 299 299 299 298 298 300 303 306 309 310 310 311 311 309 310 312 313 314 318 324
303 303 303 303 303 303 303 302 302 302 303 302 303 303 302 302 302 302 301 300 299 299 298 298 298 297 297 298 301 303 306 307 307 307 307 306 306 307 307 307 312 319

ECMWFNIL_925_thetae_087.txt.gz
Theta_e
321 321 321 322 323 323 323 324 325 326 327 329 331 332 332 332 332 332 333 333 333 333 333 333 333 333 332 331 332 333 332 332 332 332 332 332 332 333 334 333 334 335
320 320 320 321 321 321 321 322 322 323 323 325 327 330 331 331 331 332 332 333 333 333 333 333 333 332 330 329 331 332 331 332 332 331 330 330 330 331 331 331 332 333
319 319 319 319 319 319 320 320 320 320 321 322 324 326 327 329 331 331 331 332 332 332 333 333 332 332 330 328 330 332 331 331 333 332 331 331 330 330 329 329 330 330
317 317 317 318 318 318 319 319 319 319 320 321 323 324 325 326 328 330 331 331 331 331 332 332 332 332 331 328 328 330 330 331 332 332 332 332 332 331 330 330 330 330
316 316 316 316 316 317 317 318 318 319 320 320 321 322 323 324 326 327 330 331 331 330 331 331 331 331 331 330 329 329 330 330 332 332 332 332 332 332 332 331 331 332
315 315 316 316 316 316 316 317 317 318 319 319 319 320 321 323 323 324 327 329 330 330 330 330 330 330 331 331 331 330 330 330 331 331 330 331 332 331 331 331 331 332
315 315 316 316 316 316 316 316 316 317 317 318 319 319 320 321 321 322 323 324 326 328 330 330 330 330 330 330 331 330 330 330 330 330 330 330 331 331 331 330 330 330
314 315 316 315 316 316 316 316 315 316 316 316 317 317 318 318 318 319 320 320 322 324 327 327 328 329 329 330 330 330 330 330 329 329 330 330 330 330 331 332 331 331
314 314 315 315 315 315 315 315 315 314 314 314 314 314 314 315 315 316 317 318 319 321 322 322 323 325 326 326 327 328 329 330 330 330 329 329 329 329 329 330 331 331
313 314 314 314 313 313 313 314 313 313 312 312 311 311 311 312 312 313 314 315 316 317 318 318 320 321 322 322 321 321 322 325 327 329 329 330 329 329 329 330 330 330
313 312 312 312 312 312 312 312 312 312 311 310 310 309 310 310 310 311 311 311 312 313 314 315 317 318 318 318 318 318 318 320 322 325 327 329 329 329 329 329 329 330
311 311 311 310 311 311 311 311 311 311 310 310 309 309 309 309 309 308 309 309 309 310 310 311 314 314 313 314 315 315 316 318 319 321 323 326 328 328 329 328 328 329
310 310 310 309 309 310 310 309 309 309 310 309 309 308 308 307 307 307 307 307 307 307 307 309 311 311 309 309 310 311 312 314 316 319 321 323 325 327 328 328 328 329
309 309 309 308 308 308 308 308 308 308 308 308 308 308 308 307 306 306 306 305 305 305 305 306 308 307 305 304 305 307 308 310 311 314 317 320 323 324 326 327 328 329
308 308 308 308 308 308 307 307 307 307 307 307 307 307 307 307 306 305 305 304 304 304 303 304 305 304 301 301 302 304 306 308 309 311 313 316 319 322 324 326 327 328
307 307 307 307 307 307 307 307 306 306 306 306 307 306 306 307 306 304 304 303 303 303 302 302 303 302 300 300 302 304 305 307 308 310 312 313 314 317 322 325 326 327
307 306 307 307 307 307 307 306 306 305 305 306 306 305 305 306 305 304 303 302 302 302 301 301 301 300 298 300 304 306 306 306 308 310 312 312 312 313 318 323 325 326
306 306 306 306 306 306 306 306 306 305 305 305 305 304 304 304 304 303 302 301 301 301 300 300 300 298 298 300 303 306 308 309 311 312 313 313 312 312 315 320 324 326
305 305 305 306 306 305 305 305 305 305 304 304 304 303 303 303 303 302 301 301 300 300 300 300 299 298 297 300 303 306 310 312 313 313 313 313 313 312 313 317 321 324
304 304 304 305 305 304 304 304 305 304 304 304 303 303 302 303 302 301 301 300 300 299 299 299 298 297 297 299 302 305 310 312 311 311 312 312 313 313 313 316 319 322
303 303 303 303 303 303 302 303 303 303 303 303 303 302 302 302 301 300 300 299 299 299 299 298 298 297 298 299 300 303 309 310 308 308 310 311 312 313 314 315 318 320
302 302 302 302 302 301 301 302 302 302 302 302 302 302 302 302 301 300 299 299 298 298 298 298 298 298 298 299 299 302 306 306 304 305 307 308 309 311 312 314 316 318
302 302 302 302 301 300 300 301 301 301 301 301 301 301 301 301 301 300 299 298 298 297 297 297 297 297 299 299 299 300 302 301 301 302 304 305 306 307 308 311 313 315
302 301 301 301 300 299 300 300 300 300 300 300 300 300 300 300 301 300 299 298 298 297 297 297 297 297 298 300 300 299 299 299 299 300 301 302 303 304 305 306 308 310
301 301 301 301 300 299 299 299 299 299 299 299 299 299 299 299 300 300 299 297 297 297 296 296 296 296 297 299 299 300 300 299 298 298 299 300 301 302 303 303 305 307
301 301 300 300 300 299 299 299 299 299 299 299 299 298 298 298 299 299 298 297 297 297 296 296 296 296 297 298 299 299 300 300 299 298 298 299 299 300 301 301 303 304

ECMWFNIL_925_thetae_090.txt.gz
Theta_e
319 319 318 318 318 319 319 319 319 320 321 322 323 323 325 326 327 328 329 330 331 331 331 331 331 332 332 331 331 330 330 330 330 330 330 330 330 329 328 329 330 331
317 317 317 317 317 317 318 318 319 319 320 320 321 322 323 324 324 326 327 328 330 330 331 331 330 331 331 331 331 330 330 329 329 329 329 330 330 330 329 329 330 330
316 315 316 316 316 316 316 317 317 318 318 319 319 320 322 322 322 324 325 326 327 329 330 330 330 330 330 331 331 330 330 329 328 328 329 329 330 330 330 329 329 328
315 315 315 316 316 316 316 316 316 316 317 317 318 318 319 320 320 322 322 323 324 327 327 328 328 328 329 330 330 331 330 329 328 328 328 328 329 330 330 329 328 328
315 316 315 315 316 316 315 315 315 315 315 315 315 316 316 317 318 319 319 319 321 323 323 323 324 325 326 327 328 329 330 330 329 329 329 328 329 330 330 329 328 328
315 314 314 314 314 314 314 313 312 312 312 312 313 313 314 315 315 316 316 316 317 319 319 320 321 322 323 323 324 324 325 326 327 328 329 329 329 329 329 329 329 328
313 313 312 312 312 313 312 311 310 310 310 309 310 311 311 312 313 313 313 313 314 315 316 317 318 318 319 319 320 320 321 322 322 324 326 327 329 329 329 329 329 329
311 311 311 311 311 311 311 310 310 309 309 308 308 309 309 309 310 310 310 311 311 312 313 314 314 314 314 315 316 317 319 320 320 321 322 323 326 328 329 329 329 329
309 310 310 310 310 309 309 309 309 309 309 308 308 307 307 307 307 308 308 308 308 309 310 310 310 310 310 311 312 313 314 316 317 318 319 321 323 324 327 329 329 329
308 308 308 308 308 308 308 308 309 309 309 308 307 307 306 306 306 306 306 306 306 306 308 308 307 307 308 309 309 309 309 311 313 314 316 318 320 322 324 326 328 329
308 308 307 307 307 307 307 307 307 308 308 308 307 307 306 305 305 305 305 305 304 304 305 306 306 305 304 305 305 305 306 307 308 310 312 314 316 318 321 324 326 328
307 308 307 307 306 306 306 306 307 307 307 307 307 307 306 304 304 304 304 304 304 303 303 304 304 302 301 300 302 303 305 306 306 307 309 311 313 314 317 319 322 325
307 307 307 307 306 305 305 305 306 306 306 305 306 306 305 304 303 303 303 303 302 302 302 302 303 301 299 299 301 302 303 305 307 308 309 310 311 312 313 315 318 321
306 306 306 306 306 305 304 304 305 304 304 304 304 305 305 303 302 301 301 301 301 301 301 301 301 299 298 299 300 300 302 305 308 309 310 311 311 312 312 313 314 317
306 306 306 306 306 305 304 304 304 303 302 303 303 303 303 302 301 301 300 301 301 300 300 300 299 299 298 297 298 299 301 306 309 309 309 309 310 311 311 311 312 313
305 305 305 304 305 305 304 304 304 303 302 302 302 302 301 301 300 300 300 300 300 300 300 300 299 298 298 298 298 299 302 307 310 309 308 308 308 309 310 310 310 311
304 303 303 303 303 304 303 303 304 303 302 302 301 301 300 299 299 299 299 299 299 299 299 299 298 298 298 299 301 302 304 307 307 307 307 307 307 307 308 309 310 310
302 301 301 302 302 302 302 302 302 303 302 302 301 301 300 299 299 298 298 298 298 298 298 298 298 298 298 300 302 303 304 306 305 305 305 305 305 306 306 307 309 311
300 300 300 301 301 300 300 301 301 301 301 301 301 301 300 299 298 298 297 297 297 297 297 297 297 297 298 300 301 302 303 304 305 304 303 303 303 303 304 305 306 308
299 299 299 300 300 299 300 300 300 300 300 301 301 301 300 299 298 297 297 297 297 296 296 296 296 297 298 300 300 301 302 302 303 303 302 302 302 302 302 302 303 304
299 299 299 299 299 299 299 299 299 299 300 300 300 300 300 300 298 297 297 297 296 296 296 296 296 296 298 299 300 301 301 301 301 302 303 302 302 301 301 301 301 301
298 298 299 299 298 298 299 298 298 299 299 299 299 299 299 299 298 297 297 297 296 296 296 296 296 296 297 298 299 300 300 300 300 301 302 303 301 300 300 300 300 300
298 298 298 298 298 298 298 298 298 298 298 298 298 298 298 298 298 297 297 297 296 296 296 296 295 295 296 297 298 298 299 300 299 299 301 302 301 299 299 299 300 300
298 298 298 298 298 298 298 298 298 298 297 297 297 297 297 297 297 297 297 297 296 296 296 295 295 295 295 296 297 297 298 298 297 297 299 300 299 299 299 299 300 300
299 298 297 298 298 298 298 298 297 297 297 297 297 297 296 296 296 297 297 297 296 296 296 295 295 295 295 296 296 297 297 298 297 296 296 297 297 298 298 298 299 300
299 298 297 297 297 297 297 297 296 296 296 295 295 295 296 296 296 296 296 296 296 296 296 295 295 295 295 295 296 296 297 297 297 295 295 296 296 296 297 297 297 299

ECMWFNIL_925_thetae_093.txt.gz
Theta_e
317 317 317 317 317 317 317 318 318 318 318 318 319 319 321 321 321 322 323 324 326 327 327 328 328 328 328 329 329 330 329 329 329 329 329 328 328 328 329 329 328 328
315 316 316 316 316 316 316 316 316 316 316 316 317 318 319 319 319 320 320 321 324 324 324 325 326 326 326 327 328 328 328 328 328 328 328 327 327 328 328 328 328 329
315 315 315 315 315 314 314 314 314 314 314 314 315 315 316 316 317 318 318 319 321 321 320 321 322 322 323 324 325 324 325 325 326 326 327 327 327 327 328 327 328 328
314 314 314 314 313 312 312 312 312 311 312 312 312 312 313 314 314 315 316 316 317 318 317 317 318 318 319 320 321 321 321 322 322 323 324 326 326 327 327 328 328 328
313 313 313 312 311 311 310 310 309 309 309 309 310 310 311 311 312 312 313 313 314 314 314 313 314 314 315 317 318 318 319 319 319 320 321 323 325 326 327 328 329 329
311 311 311 311 310 310 309 309 308 308 307 307 308 308 308 309 309 309 310 311 311 311 311 310 311 312 312 313 314 315 316 316 317 317 318 320 322 324 325 327 327 328
309 309 309 309 309 309 309 309 309 308 307 306 306 306 306 307 307 307 307 308 308 309 308 307 308 309 310 311 312 313 313 313 314 314 315 317 319 320 323 324 325 327
307 307 307 307 308 308 308 308 308 308 307 306 305 305 305 305 305 305 305 305 306 306 306 305 306 307 308 308 308 309 310 311 311 311 312 313 314 316 318 320 322 324
306 305 306 306 307 307 307 307 307 307 307 307 305 304 304 304 305 304 304 304 304 304 304 304 304 304 303 303 302 303 304 306 308 308 308 309 310 311 313 315 316 318
305 305 305 305 306 306 306 306 306 306 306 307 305 303 303 303 303 303 303 303 303 302 303 303 302 300 299 299 299 299 299 302 305 307 308 308 308 308 309 310 310 312
306 305 304 304 305 305 304 304 304 305 305 306 305 303 302 302 302 302 302 302 301 301 301 301 300 299 298 298 298 297 298 300 303 306 308 309 308 308 307 307 307 308
306 305 304 304 303 303 303 302 303 303 303 304 303 302 301 300 301 301 301 301 301 301 300 300 299 298 298 298 298 298 298 299 302 305 307 308 308 308 307 307 306 307
306 305 305 304 303 303 302 302 301 301 301 301 301 300 299 299 300 300 300 300 300 300 300 299 298 297 297 297 299 299 299 299 301 304 306 306 307 307 307 308 307 307
305 305 305 304 304 303 302 301 301 301 300 300 300 299 299 298 298 298 298 299 299 299 299 298 298 297 296 297 298 299 300 300 301 302 304 305 306 306 306 307 307 307
303 304 304 303 303 303 302 302 301 301 300 299 299 298 298 298 297 297 297 297 297 297 297 297 297 296 296 297 297 298 299 300 301 301 303 304 305 305 305 305 306 306
302 302 302 302 303 303 302 302 301 301 301 300 299 298 297 297 297 296 296 296 296 296 296 296 296 295 296 298 298 298 299 300 300 301 301 302 303 304 303 303 304 304
301 301 301 301 301 301 301 301 301 301 301 300 299 298 297 297 297 296 296 296 296 296 295 295 295 295 296 298 299 299 299 299 299 299 300 301 302 302 302 302 302 302
300 300 300 300 300 300 300 300 300 300 300 300 299 298 297 297 297 297 296 296 296 296 295 295 295 295 296 297 298 298 299 299 298 298 299 300 300 301 301 301 301 301
299 299 299 299 299 300 300 300 300 300 299 298 298 298 297 297 297 297 296 296 296 295 295 295 295 295 296 296 297 298 299 299 298 298 298 298 299 299 300 300 300 300
299 299 299 299 299 299 299 299 299 298 298 297 297 297 297 297 297 296 296 296 296 295 295 295 295 295 295 296 296 297 298 298 298 297 297 297 298 298 299 299 299 299
298 298 298 298 298 298 298 298 297 297 297 296 297 297 297 297 297 296 296 296 296 295 295 295 295 295 295 295 296 296 297 297 297 297 297 297 297 297 297 297 297 298
298 298 298 298 297 297 297 296 296 295 295 295 296 296 296 296 296 296 296 296 296 295 295 295 295 295 295 295 295 296 296 297 297 297 296 297 297 297 297 297 297 297
297 297 297 297 296 296 295 295 295 295 295 295 295 295 295 295 296 296 296 296 296 295 295 295 295 295 295 295 295 295 296 296 296 295 295 296 296 296 297 297 296 296
297 296 296 296 295 295 295 295 295 295 295 295 295 295 295 295 295 296 296 296 296 295 295 295 295 295 295 295 295 295 295 295 294 293 294 295 296 296 296 296 296 296
296 296 296 295 295 295 295 295 294 294 295 295 295 295 295 295 295 295 296 296 296 296 295 295 295 294 294 294 295 295 295 294 293 292 293 294 295 295 295 295 295 295
297 297 296 296 295 295 295 295 295 294 294 295 295 295 295 295 295 295 295 296 296 296 296 295 295 294 294 294 294 294 294 294 293 292 291 293 293 294 294 294 294 294

ECMWFNIL_925_thetae_096.txt.gz
Theta_e
315 315 315 314 314 313 313 313 313 313 313 313 314 314 314 314 315 317 317 318 319 320 321 321 321 321 322 323 323 323 323 324 325 325 325 326 326 327 327 327 327 328
314 314 313 313 312 312 311 311 311 311 311 311 311 311 312 312 313 314 315 316 316 316 318 318 318 318 319 319 320 319 319 320 321 321 322 322 323 325 326 327 327 327
313 312 312 311 311 311 310 310 309 309 309 309 309 309 310 310 311 312 312 313 313 313 313 314 315 315 316 316 317 316 316 316 317 318 319 320 320 321 322 324 326 327
311 311 310 310 310 310 309 309 308 307 307 307 307 307 308 308 309 309 310 310 310 309 310 311 312 313 313 314 314 315 314 314 314 314 316 317 317 318 319 320 322 324
309 309 309 309 309 309 309 308 307 306 305 305 305 306 306 306 306 307 307 308 308 307 307 309 310 310 310 311 311 311 311 312 312 311 312 313 315 315 316 316 317 319
308 308 308 308 308 308 308 307 307 307 305 304 304 305 305 305 305 305 305 305 305 305 306 306 306 307 307 307 308 307 306 307 308 308 308 309 310 311 312 313 313 315
307 307 307 307 307 307 307 307 307 307 306 304 303 304 304 304 304 304 303 303 303 303 303 302 302 302 302 302 303 303 303 303 304 305 306 306 308 309 309 310 310 311
306 306 306 306 306 306 305 306 306 306 305 303 302 303 303 303 302 302 302 302 302 301 301 299 299 299 299 299 300 300 301 301 301 302 305 306 307 308 309 309 309 309
305 305 305 305 304 305 305 305 305 305 303 302 301 301 301 301 301 301 301 301 301 300 300 299 298 297 297 298 298 298 299 299 300 301 303 305 305 307 308 308 307 307
304 303 303 303 303 303 303 303 303 303 301 300 300 299 299 300 301 300 300 300 300 299 299 298 297 296 297 298 298 298 298 298 299 300 302 303 304 305 306 305 305 305
303 303 302 302 301 301 301 301 301 300 299 299 299 298 298 299 299 299 299 299 299 298 298 297 296 296 296 298 299 299 299 299 299 299 300 301 303 303 304 304 304 304
304 303 302 301 301 301 300 300 299 298 298 298 298 298 297 297 297 298 297 297 297 297 297 296 296 296 296 297 299 299 300 300 300 300 300 300 301 302 303 304 304 304
304 303 302 301 301 301 301 300 299 298 297 297 297 297 297 297 296 296 296 296 296 296 295 295 295 295 296 297 298 298 299 300 300 299 299 300 300 301 302 303 303 304
303 303 303 302 301 301 301 301 300 299 297 297 297 297 296 296 296 296 296 296 295 295 295 295 295 295 295 296 296 297 298 299 299 298 298 299 300 301 302 302 302 303
302 302 303 302 301 301 301 300 299 298 298 297 297 297 296 296 296 296 295 295 295 295 295 295 295 295 295 295 295 296 296 297 298 297 297 298 299 300 301 301 301 301
301 302 302 301 301 301 300 299 298 297 297 297 297 297 296 296 296 296 295 295 295 295 295 295 295 295 295 296 296 296 296 297 297 296 296 297 298 299 299 300 300 300
300 301 301 300 300 300 299 298 297 297 297 297 297 297 296 296 296 296 295 295 295 295 294 294 294 294 295 295 296 296 297 297 297 296 296 296 297 297 298 299 299 299
300 300 300 300 299 299 297 297 296 296 296 296 296 296 296 296 296 296 295 295 295 295 294 294 294 294 295 295 295 296 296 297 297 296 295 296 296 296 297 298 298 298
299 299 299 298 297 297 296 295 295 295 295 295 295 295 295 295 295 295 295 295 295 295 294 294 294 294 294 295 295 295 296 296 296 296 295 295 295 295 296 297 297 297
299 298 297 296 295 295 294 295 295 295 295 295 295 295 295 295 295 295 295 295 295 295 294 294 294 294 294 294 295 295 295 296 296 295 295 295 295 295 295 296 296 296
297 296 295 295 294 294 294 294 294 295 295 295 295 295 295 295 295 295 295 295 295 295 294 294 294 294 294 294 294 295 295 295 295 295 295 295 296 295 295 295 295 295
295 294 294 294 294 294 294 294 294 294 295 295 294 294 294 295 295 295 295 295 294 294 294 293 293 293 293 293 294 294 295 295 294 294 294 294 295 294 294 294 295 295
294 294 294 294 294 295 294 294 294 294 295 295 294 295 294 294 295 295 294 294 294 294 294 293 293 293 293 293 293 293 294 294 293 293 293 293 293 293 294 294 294 294
295 295 295 295 295 295 294 294 294 294 295 295 295 295 294 294 294 295 294 294 294 294 293 293 293 293 293 293 293 293 293 293 292 292 292 292 292 293 293 293 293 294
295 295 295 295 295 294 294 295 295 295 295 295 295 295 295 294 294 294 294 294 294 293 293 293 293 293 293 292 292 292 292 292 292 292 291 292 292 292 293 293 293 293
296 296 296 295 295 295 295 295 295 295 294 295 295 294 295 294 294 294 294 294 294 294 293 293 293 292 292 292 292 292 292 292 292 291 291 291 292 292 292 292 292 293

ECMWFNIL_925_thetae_102.txt.gz
Theta_e
317 317 316 316 315 315 315 315 315 315 314 314 314 314 313 313 313 313 313 313 312 312 312 311 311 311 311 311 311 313 313 313 313 313 314 315 316 316 317 318 318 319
315 315 315 314 313 313 313 313 313 313 313 312 312 312 311 311 311 311 311 311 311 310 309 309 309 309 309 309 309 310 311 311 311 310 311 312 313 313 314 315 315 316
314 314 313 313 313 312 312 312 312 312 311 311 311 310 310 310 310 310 310 309 309 309 308 308 308 308 308 308 309 309 309 309 309 308 309 311 311 312 312 312 313 314
312 312 312 312 312 311 311 311 311 310 310 310 309 309 309 309 309 309 308 308 308 307 307 307 306 306 307 307 308 308 308 308 308 307 309 310 310 310 311 311 312 312
311 311 311 311 311 310 310 310 310 309 309 309 308 308 308 308 308 308 307 307 307 306 306 306 305 305 306 306 307 307 307 307 307 307 308 309 309 309 310 310 310 311
310 310 310 310 309 309 308 308 308 308 308 308 308 307 307 307 307 307 306 306 305 305 305 304 304 304 305 305 305 306 306 306 306 307 307 307 308 308 308 309 309 309
309 309 308 308 308 308 307 307 307 307 307 307 307 306 306 306 306 306 305 305 304 304 304 303 303 303 304 304 304 305 305 306 306 306 306 307 307 307 307 307 308 308
307 307 307 307 307 307 306 306 306 306 306 306 306 305 305 305 305 304 304 304 304 303 303 303 303 303 303 303 303 303 304 305 305 305 305 306 306 306 306 306 307 307
307 307 306 306 306 306 306 306 305 305 305 305 305 304 304 303 303 303 303 303 303 303 302 302 302 302 302 302 302 303 303 304 304 304 304 304 305 305 305 305 306 306
306 306 306 306 306 305 305 305 305 304 304 304 304 303 303 303 303 303 303 303 303 302 302 302 301 301 301 301 302 302 303 303 303 304 304 304 304 304 304 305 305 305
306 306 305 305 305 305 305 304 304 304 303 303 303 303 303 303 302 302 302 302 302 302 301 301 300 300 300 300 301 301 302 303 303 303 303 303 303 303 303 304 304 305
305 305 305 305 305 305 304 304 304 303 303 303 303 303 302 302 302 302 302 302 301 301 301 300 300 299 299 299 299 300 302 302 302 302 302 302 302 302 303 303 303 304
305 305 304 304 304 304 304 303 303 303 302 302 302 302 302 302 302 301 301 301 301 300 300 300 299 298 297 297 298 299 301 302 302 302 302 302 302 302 302 302 302 303
304 304 304 303 303 303 303 302 302 302 302 302 302 302 301 301 301 301 301 301 301 300 300 299 298 297 295 295 296 297 300 301 302 301 301 301 301 301 301 301 301 301
303 303 302 302 302 302 302 302 301 301 301 301 301 301 301 301 301 301 301 301 301 300 299 298 297 295 294 294 295 296 298 301 301 301 301 301 301 301 300 300 300 300
302 302 301 301 301 301 301 301 301 301 301 301 301 301 301 301 301 300 300 300 300 300 299 298 296 294 294 295 295 295 297 300 301 301 301 301 300 300 300 300 299 300
301 301 301 301 300 300 300 300 300 300 301 301 301 301 301 300 300 300 300 300 300 299 299 298 296 294 294 295 295 296 297 299 301 301 300 300 300 299 299 299 299 299
300 300 300 300 300 300 300 300 300 300 300 300 300 301 300 300 300 300 300 300 300 299 299 298 295 294 294 294 294 296 297 299 300 300 300 300 299 299 299 299 299 299
299 299 299 300 299 299 299 300 300 300 300 300 300 300 300 300 300 300 300 300 300 299 299 297 294 294 294 294 294 296 297 299 300 299 299 299 298 298 298 298 298 298
299 299 299 299 299 299 299 299 300 300 300 300 300 300 300 300 300 300 299 299 299 299 299 297 294 293 294 294 294 296 297 298 299 299 299 298 298 298 298 298 298 298
299 299 299 299 299 299 299 299 300 300 299 299 299 300 300 300 299 299 299 299 299 298 299 298 295 293 294 294 294 295 297 299 299 299 298 298 298 298 297 297 297 297
299 299 299 299 299 299 299 299 299 300 299 299 299 299 300 299 299 299 299 298 298 298 298 298 295 293 293 293 293 295 297 299 299 298 298 297 297 297 297 297 297 296
299 299 299 299 299 299 299 299 299 299 299 299 299 299 299 299 299 299 299 298 298 297 298 298 296 293 292 292 293 294 297 298 298 298 298 297 297 297 297 297 297 296
299 299 299 299 299 299 299 299 299 299 299 299 298 298 298 299 299 298 298 298 298 297 296 297 297 293 291 292 292 293 295 298 297 297 297 297 297 297 297 297 296 296
299 299 299 299 299 299 299 299 299 299 299 298 298 298 298 298 298 298 298 298 298 297 296 296 296 294 292 291 292 292 294 296 297 296 297 297 296 297 297 296 296 296
299 299 299 299 299 299 299 299 299 299 299 299 298 298 298 298 298 298 298 298 298 298 297 296 296 295 292 291 292 291 292 294 296 296 296 296 296 296 296 296 296 296

ECMWFNIL_925_thetae_105.txt.gz
Theta_e
320 320 319 318 318 318 318 317 317 317 317 317 316 315 314 314 314 314 315 314 314 314 313 313 314 314 314 314 315 315 315 315 315 315 315 315 316 316 316 316 316 317
318 317 317 316 316 316 316 316 316 315 315 314 314 314 313 313 313 313 313 313 313 313 312 312 312 312 312 313 313 314 314 314 313 313 314 314 314 314 314 314 315 315
316 316 315 315 315 315 315 315 314 314 313 313 313 313 312 312 313 312 312 312 312 311 311 310 310 311 311 311 312 312 312 312 312 312 313 313 313 313 313 313 313 313
315 315 314 314 314 314 314 313 313 313 312 312 312 312 312 312 312 312 311 311 310 310 309 308 309 309 310 310 310 311 311 311 311 311 312 312 312 311 311 311 312 312
314 314 313 313 313 313 313 312 312 312 311 311 311 311 311 311 311 310 310 309 309 308 307 307 307 308 308 308 309 309 310 310 310 310 311 311 311 311 310 310 310 310
312 312 312 312 312 312 312 312 311 311 311 310 310 310 310 310 310 309 308 308 307 307 306 306 306 307 307 307 307 308 309 309 309 309 309 309 309 310 310 309 309 309
311 311 311 311 311 311 311 311 311 310 310 310 310 310 309 309 308 308 307 307 306 306 306 305 305 306 306 306 307 307 308 308 308 308 308 308 308 308 308 308 308 308
311 311 311 310 310 310 310 310 310 310 310 309 309 308 308 307 307 307 307 306 305 305 305 304 304 305 305 305 306 307 307 307 307 307 307 307 307 307 307 307 307 307
310 310 310 310 309 309 309 309 309 309 309 308 308 307 307 306 306 306 306 305 305 304 304 303 303 303 304 304 305 306 307 307 306 306 307 306 306 306 306 306 306 306
309 309 309 309 309 309 309 309 308 308 307 307 307 307 306 306 306 305 305 305 304 303 303 302 302 302 302 303 304 305 306 306 306 306 306 306 305 305 305 305 305 305
309 309 309 309 309 308 308 308 307 307 307 306 306 306 305 305 305 305 305 304 303 303 302 302 301 301 301 301 302 304 305 306 305 305 305 305 305 305 305 304 304 304
308 308 309 309 308 308 307 307 307 306 306 306 306 305 305 305 305 305 304 303 303 302 302 301 300 299 299 299 301 303 304 305 305 305 305 304 304 304 304 303 303 303
308 308 308 307 307 307 306 306 306 305 305 305 305 305 305 305 305 304 304 303 302 302 301 300 299 297 296 297 299 301 303 304 304 304 304 304 304 303 303 302 302 302
307 307 306 306 306 306 305 305 305 305 305 305 305 305 305 305 305 304 304 303 302 301 300 299 298 296 295 296 298 299 302 304 304 304 304 304 303 303 302 302 301 301
306 306 305 305 305 305 305 305 305 305 305 305 305 305 304 304 304 304 303 303 302 301 300 298 296 295 295 296 297 298 300 303 304 304 304 303 303 302 302 301 301 301
305 305 304 304 304 304 304 304 304 305 305 304 304 304 304 304 304 304 303 302 302 301 300 298 296 294 295 296 297 298 300 302 303 303 303 303 302 301 301 301 300 300
304 304 303 304 304 304 303 303 304 304 304 304 304 304 304 304 303 304 303 303 301 300 299 298 295 294 294 296 298 299 300 301 303 303 302 302 301 301 301 300 300 300
303 303 303 303 303 302 302 302 302 303 303 303 304 303 304 304 303 303 303 303 302 300 298 297 295 294 294 296 298 299 300 301 302 302 302 301 301 300 300 300 300 299
302 302 301 301 301 301 301 302 302 302 303 303 303 303 303 303 303 303 303 303 302 301 299 296 294 293 294 295 298 299 300 301 302 302 301 301 300 300 299 299 299 298
301 301 301 301 301 301 302 302 302 302 303 303 303 303 303 303 302 302 302 302 302 301 300 296 293 293 294 295 297 299 300 301 302 301 301 301 300 300 299 299 299 298
301 301 301 301 302 302 302 302 302 302 302 303 303 303 303 302 302 302 302 302 301 301 300 297 293 293 293 294 296 299 300 301 302 301 301 300 300 299 299 299 298 298
301 301 301 301 301 302 302 302 302 302 302 302 303 302 302 302 302 301 301 301 301 301 301 297 294 292 293 293 295 298 300 300 301 301 300 300 300 299 299 299 298 298
301 301 301 301 301 301 302 302 302 302 301 301 302 302 302 301 302 301 301 300 300 300 301 298 294 292 292 293 294 296 299 300 300 300 300 300 299 299 299 298 298 297
301 301 301 301 301 301 302 302 302 301 301 301 301 301 301 301 301 302 301 300 299 299 300 299 296 294 293 293 293 294 297 299 299 299 300 299 299 299 299 298 298 297
301 301 301 301 301 302 302 302 302 301 301 301 301 301 301 301 301 301 301 301 300 299 298 299 298 296 294 294 293 293 295 297 298 298 299 300 299 298 298 298 297 297
301 301 301 302 302 302 302 302 302 301 301 301 301 301 301 301 301 301 301 301 301 300 299 298 299 298 296 294 294 293 294 295 297 297 297 298 299 298 298 298 297 297

ECMWFNIL_925_thetae_111.txt.gz
Theta_e
322 322 321 320 320 319 319 318 317 316 315 314 314 314 314 313 313 311 310 309 309 310 310 309 310 310 311 311 310 310 310 311 311 310 310 310 310 309 309 309 310 310
320 319 319 319 318 318 317 317 316 315 314 313 314 313 313 312 311 309 308 308 308 308 308 308 309 309 310 310 309 309 309 309 309 309 309 308 308 308 308 308 308 307
318 318 318 318 317 316 316 315 314 314 313 313 313 312 311 310 309 308 307 307 307 307 307 307 308 308 309 309 308 308 308 308 308 308 307 307 307 307 307 307 306 305
317 317 317 316 315 315 314 314 313 313 313 313 312 311 309 308 308 307 306 306 306 306 306 306 307 308 308 307 307 307 307 307 307 307 306 306 306 306 305 305 304 303
316 315 315 315 314 313 313 313 313 313 312 311 310 309 308 307 306 306 305 305 304 304 305 306 306 307 307 307 306 306 307 306 306 306 306 305 305 305 304 304 303 302
315 314 314 313 313 312 312 312 312 312 311 310 308 308 307 306 305 304 304 303 303 303 303 304 306 307 307 306 306 306 306 305 305 305 305 304 304 304 303 303 302 301
314 314 313 313 312 312 312 311 311 310 310 309 308 307 306 305 304 303 302 302 301 302 302 303 305 306 306 306 306 305 305 305 305 304 304 303 303 303 303 302 301 300
313 313 313 312 312 311 311 310 310 309 308 308 307 306 305 304 303 302 301 300 299 299 300 302 304 306 306 306 305 305 305 305 304 304 303 303 302 302 302 302 301 300
312 312 312 311 311 310 310 309 308 308 307 307 306 305 304 303 302 301 299 297 296 296 297 300 304 305 305 305 305 305 305 304 304 303 303 302 302 302 302 301 300 300
311 311 311 311 310 310 309 308 307 307 306 306 305 304 303 303 301 299 297 295 295 295 296 299 303 305 305 305 305 305 304 304 303 303 302 302 301 301 301 301 300 299
311 310 310 310 309 309 308 307 307 307 306 306 305 303 302 302 300 297 295 295 295 295 296 298 301 304 305 305 305 304 304 304 303 302 302 301 301 301 301 300 299 299
310 310 309 308 308 307 307 307 306 306 306 306 304 303 302 301 299 296 294 295 295 295 296 297 300 303 304 304 304 304 304 303 302 302 302 301 301 300 300 299 299 299
309 309 308 307 307 307 307 306 306 305 305 305 304 304 302 301 299 296 294 294 294 294 296 298 300 302 303 304 304 304 304 303 302 301 301 301 300 300 299 299 298 299
309 308 307 307 307 307 306 306 306 305 305 305 304 303 302 302 300 297 294 294 294 294 295 297 300 301 302 303 303 303 303 302 302 301 301 300 300 300 299 298 298 299
308 307 307 306 306 306 306 306 306 305 305 305 304 303 302 301 298 295 294 294 294 294 295 297 299 301 301 302 302 302 302 302 301 301 300 300 300 299 299 298 298 299
307 307 306 306 306 306 306 305 305 305 305 304 303 302 302 300 297 294 293 294 293 294 295 297 298 299 300 301 302 302 302 302 302 301 300 300 300 299 299 298 298 297
306 306 306 306 306 306 305 305 305 305 304 304 303 302 302 301 300 297 294 293 293 293 294 296 298 299 300 301 301 302 301 301 301 300 300 300 300 299 298 298 297 296
306 306 306 306 306 305 305 304 304 304 304 304 304 303 302 302 301 300 297 293 293 293 293 295 297 298 300 301 301 301 301 301 301 301 299 299 300 299 298 297 297 296
305 305 305 305 304 304 304 304 304 304 304 304 304 303 303 302 302 302 299 294 292 293 293 294 295 298 299 300 300 301 301 301 301 301 300 299 299 299 298 297 297 296
304 304 304 303 303 303 303 303 303 303 303 303 303 303 303 302 302 302 300 296 293 293 293 293 294 296 298 300 300 300 300 300 300 301 300 299 299 299 298 297 297 297
303 303 303 303 303 303 303 303 303 303 303 302 302 302 302 302 302 302 301 299 296 295 294 292 293 294 296 299 299 299 299 299 300 300 300 299 299 298 298 297 297 297
301 302 303 304 304 303 304 304 303 303 303 302 302 302 302 302 302 301 302 300 298 297 296 293 292 292 294 296 297 297 297 298 299 299 299 299 299 298 297 297 297 297
302 303 303 303 303 303 303 303 303 303 302 302 301 301 301 301 301 301 300 299 298 298 298 295 293 291 292 293 294 294 294 295 297 298 299 299 298 298 298 298 298 298
303 303 303 303 303 303 303 303 302 302 302 301 301 299 298 298 298 299 298 298 298 298 298 296 294 292 291 292 292 293 293 293 295 296 298 298 298 298 298 298 298 297
303 303 302 303 302 302 302 302 302 302 302 302 301 300 300 300 300 300 299 299 298 298 298 297 295 292 291 292 293 293 293 293 294 295 296 297 297 297 297 297 297 296
303 303 302 302 302 302 302 301 302 302 302 302 302 302 302 301 301 301 301 300 300 299 299 298 296 293 291 292 293 293 293 293 294 295 296 296 297 297 296 296 296 296

ECMWFNIL_925_thetae_117.txt.gz
Theta_e
329 327 326 325 323 321 319 318 317 316 314 313 311 310 309 309 309 310 310 310 310 309 309 309 309 309 308 307 307 306 306 305 304 304 303 301 299 298 298 297 297 297
327 326 325 323 321 319 318 317 316 315 312 311 310 309 308 308 309 309 309 309 309 308 308 308 308 307 307 306 306 305 305 304 303 302 300 298 296 296 296 296 296 297
325 324 323 322 320 318 316 315 314 313 311 309 308 308 307 308 308 308 308 308 308 308 307 307 307 306 306 306 305 304 304 303 301 299 297 296 295 296 296 296 296 296
323 323 322 320 318 316 315 314 312 311 310 309 308 307 307 307 307 307 307 307 307 307 306 306 306 305 305 305 304 303 302 301 300 299 296 295 295 296 296 296 296 296
322 321 320 318 317 315 314 313 311 310 309 308 307 306 306 306 307 307 306 306 306 306 306 305 305 304 304 304 303 302 301 301 300 298 296 295 296 296 296 296 296 296
320 319 318 317 315 314 313 312 311 310 308 307 306 305 305 305 306 306 306 305 305 305 305 305 304 304 303 303 302 301 301 300 300 298 296 295 296 296 296 296 296 296
318 317 316 315 314 314 313 311 309 308 307 306 305 305 304 304 305 305 306 305 304 305 304 304 304 303 302 302 302 301 301 300 299 297 296 296 296 295 296 296 296 296
317 316 315 314 313 313 311 309 308 307 306 305 304 304 304 303 303 305 305 305 304 304 304 304 303 303 302 302 301 301 300 300 299 297 296 296 296 295 295 296 296 295
315 315 314 314 312 311 309 308 307 305 305 305 304 303 303 302 302 304 305 305 304 304 304 303 303 302 302 301 301 301 300 299 298 296 296 296 296 295 295 295 295 295
314 313 313 312 310 308 307 306 305 304 304 304 303 301 300 299 300 303 305 305 304 304 304 303 303 302 302 301 301 300 300 299 297 296 296 296 296 295 295 295 295 295
312 312 311 309 308 307 306 305 304 304 304 303 302 299 297 296 299 303 304 304 304 304 303 303 302 302 301 301 301 300 300 299 298 297 297 296 296 295 295 295 295 295
311 310 309 307 306 305 305 304 303 303 303 302 300 297 295 295 298 302 304 304 304 304 303 303 302 302 301 301 300 300 299 298 298 297 297 297 296 295 295 295 295 295
311 310 308 307 306 305 304 303 303 303 302 300 298 296 295 296 299 302 304 304 304 303 303 303 302 301 301 301 300 300 299 298 298 298 297 297 296 295 295 295 295 295
310 308 307 306 305 304 304 303 303 301 299 297 295 295 295 296 299 302 303 303 303 303 303 302 302 301 300 300 300 299 299 299 298 298 297 297 296 295 295 295 295 295
309 308 307 306 305 304 303 302 301 299 296 295 294 294 295 296 299 301 303 303 303 303 303 302 302 301 300 300 300 299 299 299 299 298 298 297 296 295 295 295 295 295
308 307 306 305 304 303 302 302 300 297 295 294 294 294 295 296 298 300 302 302 302 302 302 302 302 301 300 300 299 299 299 299 299 298 298 297 296 296 295 295 295 295
308 307 306 305 304 302 302 302 300 297 294 294 294 294 294 296 298 300 301 301 302 302 302 302 301 301 300 300 299 299 299 299 299 299 297 296 296 296 295 295 295 295
307 306 305 305 304 302 302 302 300 296 294 293 293 293 294 295 297 299 300 301 301 301 301 301 301 301 300 300 300 299 299 299 299 299 298 296 296 297 296 295 295 295
306 306 305 304 303 303 302 301 298 295 294 293 293 293 293 294 296 298 299 300 300 301 301 300 301 301 300 300 300 299 299 299 299 298 298 297 297 297 297 296 295 295
306 305 305 304 303 302 302 300 298 296 294 293 293 293 293 294 295 296 298 299 299 299 300 300 300 300 300 300 300 300 300 300 299 298 298 297 297 297 297 296 295 295
305 305 305 304 303 302 301 300 298 298 296 294 293 293 293 293 293 295 296 298 299 299 299 299 299 299 300 300 299 300 300 300 299 298 298 297 297 297 297 296 296 295
305 305 305 304 303 302 301 300 299 299 298 295 293 292 292 292 292 293 294 295 297 298 298 298 298 299 299 299 299 299 299 299 299 298 298 297 297 297 297 296 295 295
306 305 304 304 303 302 301 300 301 301 299 298 295 293 292 292 292 292 292 293 294 295 296 296 296 297 297 298 298 298 298 299 298 298 298 298 297 296 295 295 295 295
305 305 304 304 303 302 301 301 301 301 301 300 298 294 293 292 292 291 291 291 292 292 292 293 293 293 293 294 295 297 298 298 298 298 298 297 296 295 295 295 295 295
305 305 304 304 303 302 302 302 302 301 301 301 300 297 294 293 293 292 291 291 291 291 291 291 291 292 292 293 294 296 297 297 297 297 297 296 295 295 295 295 295 295
305 305 304 304 304 303 303 302 302 302 302 301 301 300 296 294 295 295 293 292 292 291 291 290 291 291 292 293 294 295 296 297 297 296 296 295 295 295 295 295 295 294

ECMWFNIL_925_thetae_120.txt.gz
Theta_e
326 325 325 325 323 322 321 319 317 316 314 314 313 312 311 311 311 311 311 311 310 310 309 308 307 306 306 305 304 303 302 300 298 297 297 297 297 297 297 297 297 297
326 325 326 325 322 320 319 317 316 315 313 312 311 310 310 310 310 310 310 310 309 308 308 307 306 305 304 304 303 301 299 297 296 296 296 296 297 297 297 297 297 297
327 326 325 324 322 319 317 316 314 314 312 311 310 310 310 310 309 309 309 309 308 307 307 306 305 304 303 302 301 299 297 296 296 296 296 296 296 297 297 296 296 296
326 326 324 322 320 318 316 314 313 312 311 310 310 309 309 309 308 308 308 308 307 306 306 305 304 303 302 301 300 297 296 295 296 296 296 296 296 296 296 296 296 296
325 324 323 320 318 316 314 313 312 311 310 310 309 308 308 308 308 307 307 307 306 305 305 304 303 302 301 300 298 296 295 295 295 296 296 296 296 296 296 296 296 295
323 321 320 318 316 314 313 312 311 310 310 309 308 307 307 307 307 307 306 306 305 304 304 303 302 301 300 299 297 295 295 295 295 295 296 296 296 296 296 295 295 295
321 319 318 316 314 313 313 312 310 310 309 308 307 307 307 307 306 306 305 305 304 304 303 302 302 301 300 299 297 295 295 295 295 295 295 295 295 295 295 295 295 295
318 317 316 314 313 313 312 311 310 309 308 307 306 306 306 306 305 305 305 304 304 303 303 302 301 300 300 298 296 295 295 294 294 295 295 295 295 295 295 294 295 295
317 315 314 313 312 312 311 310 309 307 306 306 305 305 305 305 305 305 304 304 303 303 302 301 301 300 300 298 296 295 295 295 294 295 295 295 295 295 295 294 294 295
315 314 313 313 311 311 310 309 307 306 305 305 304 304 305 305 304 304 304 303 303 302 302 301 300 300 299 297 295 295 295 295 295 295 295 295 295 295 295 294 294 294
314 313 312 311 311 310 308 307 306 305 304 304 303 303 304 305 304 304 303 303 303 302 302 301 301 300 299 297 296 296 296 295 295 295 295 294 295 295 295 295 295 295
313 312 311 311 310 308 307 305 305 304 304 303 301 301 303 304 304 304 303 303 303 302 302 301 300 300 299 298 297 297 296 296 295 295 295 295 295 295 295 295 295 295
312 311 310 309 308 307 305 304 304 303 303 301 298 298 302 304 304 304 303 303 302 302 302 301 300 300 299 297 297 297 297 296 296 295 295 295 295 295 295 295 295 294
311 309 308 307 306 305 304 303 303 303 302 299 296 297 300 304 304 303 303 303 302 302 301 301 300 300 299 298 298 298 297 297 296 296 296 295 295 295 294 294 295 295
308 307 306 305 304 304 303 303 302 302 300 297 295 296 300 303 304 303 303 303 302 302 301 301 300 300 299 299 298 298 298 297 296 296 296 296 295 294 294 294 295 294
307 305 304 304 304 303 302 302 301 299 297 295 295 297 300 303 303 303 303 303 302 302 301 300 300 299 299 299 299 299 298 298 297 296 296 296 295 295 294 294 295 295
306 304 304 303 303 302 301 300 299 297 295 295 295 298 301 303 303 303 303 302 302 301 301 300 299 299 299 299 299 299 299 298 297 296 296 296 296 295 295 294 295 295
305 304 303 303 302 301 300 298 297 295 294 294 295 298 301 302 302 302 302 302 302 301 301 300 300 299 299 299 298 298 299 298 298 297 296 297 297 296 295 294 295 295
305 304 303 302 301 300 299 297 296 295 294 294 295 297 300 301 301 302 302 302 302 301 301 300 300 300 299 299 298 298 299 298 298 297 297 297 297 297 295 294 295 295
305 304 303 302 301 300 300 299 299 296 294 293 295 297 299 300 301 301 301 301 302 301 301 300 300 300 300 299 299 299 299 299 298 298 297 297 297 297 295 294 295 295
305 305 303 302 302 302 301 301 299 295 293 293 294 296 298 299 300 300 301 301 301 301 301 300 300 300 300 300 299 299 299 299 298 298 297 297 297 297 295 294 295 295
305 305 303 302 302 301 299 298 296 294 292 293 294 295 297 298 299 300 300 300 300 300 300 300 300 299 300 300 299 299 299 299 298 298 298 297 297 296 295 294 295 295
305 305 303 302 301 299 297 296 296 294 293 293 293 294 296 297 298 298 299 299 299 299 299 299 299 299 299 299 299 299 299 299 299 298 298 297 297 295 294 295 295 295
305 305 304 303 301 300 299 298 297 295 293 293 293 293 294 295 297 297 298 298 298 298 298 298 298 298 298 298 298 298 298 299 298 298 297 297 296 294 294 295 295 294
305 305 304 303 301 301 300 298 297 296 294 293 292 292 292 293 294 295 296 296 297 297 296 296 295 295 295 295 296 297 297 298 298 298 297 297 295 294 295 295 294 294
305 305 304 303 302 301 300 299 299 298 295 293 292 292 291 291 292 292 293 293 293 293 293 292 292 292 292 293 295 296 297 297 297 297 297 296 294 295 295 295 294 294

ECMWFNIL_925_thetae_123.txt.gz
Theta_e
329 328 326 325 324 325 326 326 323 321 319 318 316 315 314 313 313 313 312 311 311 310 309 308 307 306 305 303 301 299 297 297 297 297 297 297 297 297 297 297 297 298
328 326 324 324 323 323 324 323 321 320 318 316 315 314 313 313 312 312 311 310 309 308 307 306 306 305 303 301 299 297 296 296 297 297 297 297 297 296 296 296 296 297
326 324 323 324 323 323 322 321 319 318 316 314 314 313 312 312 311 311 310 309 308 307 306 305 304 302 300 299 297 296 296 296 296 297 296 296 296 296 296 296 296 296
324 323 324 323 323 322 320 319 317 316 314 313 313 312 311 311 310 310 309 308 307 306 305 304 302 300 299 297 296 296 296 296 296 296 297 296 296 296 296 296 295 296
323 323 323 322 322 321 319 318 316 314 313 313 312 311 310 310 309 309 308 307 306 305 303 302 301 299 297 296 296 296 296 296 297 297 297 297 296 296 296 296 296 297
322 321 322 321 320 320 318 316 314 313 312 312 312 310 309 309 309 308 307 306 305 304 303 301 299 297 296 296 296 296 297 297 297 297 297 297 296 296 296 296 297 297
321 320 320 320 319 318 317 315 313 312 311 311 311 309 309 308 308 307 306 305 304 303 302 300 298 296 295 295 296 296 297 297 297 297 297 297 296 296 296 297 297 297
320 318 318 318 316 315 315 313 312 311 310 311 310 308 308 308 307 306 305 304 303 302 301 299 297 295 295 295 296 296 296 297 297 297 297 297 297 296 297 297 297 297
318 317 316 316 315 314 313 312 311 310 310 310 309 307 307 307 306 306 305 304 303 301 300 298 296 295 295 296 296 297 297 297 297 297 297 297 297 297 297 297 298 298
316 316 315 315 314 313 312 310 310 309 309 309 307 306 306 306 306 305 304 303 302 301 300 298 296 295 295 296 297 297 297 297 297 297 297 297 297 297 298 298 298 298
314 314 314 314 313 312 311 310 309 308 308 307 306 306 306 305 305 304 304 303 301 301 300 298 296 296 296 297 297 297 297 297 297 297 297 297 297 297 297 298 298 298
313 313 313 313 312 311 310 308 308 307 307 306 305 305 305 305 304 304 303 302 301 301 300 298 297 297 297 297 297 296 296 296 297 297 297 297 297 297 297 298 298 297
313 313 313 313 312 310 309 308 307 306 305 305 304 305 305 304 304 303 303 302 301 301 300 298 297 297 297 297 297 297 296 296 296 297 297 297 297 297 297 297 297 297
313 313 313 312 311 309 308 307 306 305 304 304 304 304 305 304 304 303 302 302 301 301 300 298 297 297 297 297 297 297 297 297 297 297 297 297 297 297 297 296 296 297
313 312 312 311 309 308 307 306 305 304 303 302 303 304 304 304 303 303 302 302 301 301 300 298 297 297 297 297 297 297 297 297 298 297 297 297 297 296 297 297 297 296
312 311 310 309 307 305 305 304 303 302 301 300 302 303 304 304 303 303 302 302 301 301 300 299 297 297 297 297 297 297 297 297 298 298 297 297 297 297 297 297 297 296
311 309 308 306 304 304 303 303 302 300 298 298 300 303 304 303 303 303 302 302 301 301 300 299 298 298 298 298 297 297 297 297 298 297 297 297 297 297 297 297 297 296
309 307 305 304 303 303 303 302 301 299 297 297 300 303 303 303 303 303 302 302 301 301 300 300 299 299 299 298 298 297 297 298 298 298 298 298 297 297 297 297 297 297
307 305 304 303 303 303 303 301 298 296 296 296 299 302 303 303 303 303 302 302 301 301 300 299 299 299 299 299 298 298 298 298 298 298 298 298 297 296 297 297 297 297
307 305 304 303 303 302 301 298 296 295 295 296 299 301 303 303 303 302 302 302 301 301 300 299 299 299 299 299 299 298 298 298 298 298 298 298 297 295 296 297 296 296
306 305 303 302 301 301 298 296 295 295 295 297 298 299 300 301 302 302 302 301 301 301 300 299 299 299 298 299 299 299 298 298 298 298 298 298 297 295 295 296 295 294
306 304 302 301 300 299 296 296 297 297 296 295 295 296 298 300 302 302 302 301 301 301 300 300 300 299 299 299 299 299 299 298 298 298 298 298 297 295 295 295 295 294
305 304 302 300 299 298 297 299 300 298 295 293 294 297 298 300 301 302 301 301 301 301 300 300 300 300 299 299 299 299 299 299 299 298 298 298 297 295 295 295 294 294
304 304 303 300 298 298 300 302 301 298 294 293 294 296 298 300 301 301 301 301 301 300 300 300 300 300 300 299 299 299 299 299 299 299 299 299 297 295 296 295 294 294
304 305 303 300 299 301 302 302 301 296 294 294 294 295 298 299 300 300 300 300 300 300 300 300 300 299 299 299 299 299 299 299 299 299 299 298 297 296 296 296 294 294
305 304 302 300 301 303 302 302 300 295 293 294 294 295 298 299 299 299 299 299 299 299 299 299 299 299 299 299 298 298 298 298 299 299 299 298 297 296 296 296 295 295

ECMWFNIL_925_thetae_126.txt.gz
Theta_e
330 328 327 327 327 327 328 328 327 326 323 321 320 318 318 318 318 317 317 315 314 312 311 309 308 307 305 303 303 304 305 305 305 305 305 305 305 306 306 306 306 305
330 328 326 326 326 327 327 327 325 324 321 320 319 317 316 316 317 316 315 313 311 310 309 308 307 306 305 304 304 305 305 305 305 305 305 305 305 305 306 305 305 304
328 327 326 326 326 326 326 325 324 322 320 319 317 315 315 315 314 314 312 311 310 309 308 307 307 305 305 304 305 305 305 305 305 305 305 305 304 305 305 305 304 304
327 326 325 325 325 326 325 323 321 320 318 317 316 314 314 314 314 313 312 311 310 309 308 307 306 305 304 305 305 305 305 304 304 304 305 304 304 304 304 304 304 304
326 325 324 323 324 324 323 320 319 318 317 316 314 314 314 314 314 313 312 311 310 308 307 306 305 304 304 304 304 304 304 304 304 304 304 304 304 304 304 304 304 304
325 324 322 322 323 323 321 319 319 318 316 315 314 315 315 314 313 312 311 310 309 308 306 305 304 304 304 304 304 304 304 304 304 304 303 304 303 303 303 303 303 303
324 322 322 322 322 321 320 319 318 317 315 314 314 315 314 313 313 312 310 309 308 307 306 305 304 304 304 304 304 304 304 304 303 303 303 303 303 303 302 302 302 302
323 321 321 321 321 320 319 318 317 315 314 313 314 314 313 312 312 311 309 309 307 306 305 304 303 303 303 303 304 303 304 303 303 302 302 302 302 302 302 302 302 302
321 320 320 320 320 319 318 317 316 314 313 313 314 313 312 312 311 310 309 308 307 306 304 303 303 303 303 303 303 303 303 303 303 303 302 302 302 302 302 302 302 302
320 321 320 319 318 318 317 316 314 313 312 312 313 312 312 311 311 310 309 308 306 305 303 303 303 302 302 302 302 303 303 303 302 302 302 302 302 302 302 302 302 302
319 319 319 318 317 317 316 314 313 313 311 312 312 312 311 311 310 309 308 307 306 304 303 303 302 302 302 302 302 302 302 302 302 302 302 302 302 302 302 302 302 302
318 317 318 318 317 316 315 313 313 312 311 311 312 311 310 310 309 308 308 307 305 304 303 302 302 302 302 302 302 302 302 302 302 302 302 302 302 302 302 302 302 302
316 316 317 317 316 315 314 312 311 311 311 311 311 310 309 309 308 308 307 306 305 304 303 302 301 302 302 301 302 302 302 302 302 302 302 302 302 301 301 302 302 302
315 315 317 317 315 314 312 311 310 310 310 311 310 309 309 308 308 308 307 306 305 304 303 302 302 302 301 302 302 302 302 302 302 302 302 302 301 301 301 302 302 301
315 315 315 315 314 312 311 310 309 309 310 310 309 309 308 308 308 307 306 306 305 304 303 302 302 302 302 301 302 302 302 302 302 302 302 301 301 301 301 301 301 300
315 314 314 313 312 311 310 309 309 310 310 309 309 309 308 308 308 307 306 306 305 304 303 303 302 302 301 301 302 302 302 302 302 301 301 301 301 301 301 301 301 300
313 312 312 312 312 310 309 308 309 310 309 309 309 308 308 308 307 306 306 306 305 305 304 303 303 302 300 300 301 301 302 302 302 301 301 301 301 302 301 301 301 300
312 312 311 310 310 309 308 309 309 309 308 308 308 308 308 308 307 307 306 306 305 305 304 304 303 300 298 298 299 301 302 302 302 302 302 301 301 301 301 301 301 300
312 312 310 309 309 308 308 308 308 308 308 307 307 307 307 307 307 306 306 306 306 305 304 304 302 298 297 297 298 299 301 302 302 302 302 302 301 301 301 301 301 300
313 311 310 309 309 308 308 308 307 307 307 306 307 307 307 307 307 307 307 306 306 305 304 303 301 298 297 298 298 298 300 301 302 303 302 302 301 301 301 301 300 301
312 311 310 309 308 308 308 307 306 306 306 306 306 306 307 307 306 306 305 305 305 304 303 304 301 298 298 299 298 298 299 301 303 303 302 302 301 301 301 300 300 300
312 311 310 309 308 307 307 306 306 305 305 304 304 304 305 305 304 303 303 303 303 303 303 304 302 298 298 299 298 298 298 300 303 302 302 302 301 300 300 300 300 301
311 310 308 308 307 307 306 305 304 302 300 299 300 302 303 303 303 303 302 302 303 303 304 305 302 298 298 299 298 298 298 300 303 303 302 302 301 300 300 299 299 299
309 307 307 307 306 306 305 304 302 299 297 298 301 302 303 303 303 303 303 303 304 304 304 305 302 299 298 299 299 299 299 301 303 302 302 302 301 300 300 299 296 294
307 307 306 305 305 305 304 301 299 298 297 299 301 301 302 303 303 303 303 303 304 304 304 305 303 300 298 299 299 299 299 301 303 303 302 302 301 300 300 299 296 294
307 306 305 304 304 303 302 300 300 299 299 299 300 300 301 302 302 303 304 304 304 305 304 304 304 302 299 299 300 299 299 301 303 303 302 302 301 300 300 300 299 297